<?xml version='1.0' encoding='UTF-8'?>
<gpx version="1.1" creator="https://www.komoot.de" xmlns="http://www.topografix.com/GPX/1/1" xmlns:xsi="http://www.w3.org/2001/XMLSchema-instance" xsi:schemaLocation="http://www.topografix.com/GPX/1/1 http://www.topografix.com/GPX/1/1/gpx.xsd">
  <metadata>
    <name>Sen2026/1Bartholomä-Tauberquelle-Rothenburg</name>
    <author>
      <link href="https://www.komoot.de">
        <text>komoot</text>
        <type>text/html</type>
      </link>
    </author>
  </metadata>
  <wpt lat="48.754072" lon="9.986689">
    <name>Bärenberg Holz-Bärenskulptur</name>
    <sym>Flag, Blue</sym>
  </wpt>
  <wpt lat="48.860980" lon="10.010456">
    <name>Blick auf das Alun-Tal</name>
    <sym>Flag, Blue</sym>
  </wpt>
  <wpt lat="48.917578" lon="10.012968">
    <name>Rottal-Tal</name>
    <sym>Flag, Blue</sym>
  </wpt>
  <wpt lat="48.926708" lon="10.015236">
    <name>Naturschutzgebiet Tal der Blinden Rot</name>
    <sym>Flag, Blue</sym>
  </wpt>
  <wpt lat="48.926074" lon="9.975192">
    <name>Quelle der Bühler</name>
    <sym>Flag, Blue</sym>
  </wpt>
  <wpt lat="49.043532" lon="9.994503">
    <name>Fleckenbachsee</name>
    <sym>Flag, Blue</sym>
  </wpt>
  <wpt lat="49.059103" lon="10.008890">
    <name>Mainkling</name>
    <sym>Flag, Blue</sym>
  </wpt>
  <wpt lat="49.121650" lon="10.053005">
    <name>Radweg zwischen Altenmünster und Jagstheim</name>
    <sym>Flag, Blue</sym>
  </wpt>
  <wpt lat="49.147347" lon="10.073316">
    <name>Neuer Radweg bei Crailsheim</name>
    <sym>Flag, Blue</sym>
  </wpt>
  <wpt lat="49.249930" lon="10.114860">
    <name>Quelle der Tauber</name>
    <sym>Flag, Blue</sym>
  </wpt>
  <wpt lat="49.379742" lon="10.185248">
    <name>Hotel Rappen</name>
    <sym>Restaurant</sym>
  </wpt>
  <trk>
    <name>Sen2026/1Bartholomä-Tauberquelle-Rothenburg</name>
    <trkseg>
      <trkpt lat="48.754031" lon="9.986660">
        <ele>647.068804</ele>
        <time>2026-04-26T14:14:46.418Z</time>
      </trkpt>
      <trkpt lat="48.753988" lon="9.986801">
        <ele>647.068804</ele>
        <time>2026-04-26T14:14:48.671Z</time>
      </trkpt>
      <trkpt lat="48.753831" lon="9.987320">
        <ele>647.068804</ele>
        <time>2026-04-26T14:14:57.107Z</time>
      </trkpt>
      <trkpt lat="48.753922" lon="9.987329">
        <ele>647.068804</ele>
        <time>2026-04-26T14:14:59.111Z</time>
      </trkpt>
      <trkpt lat="48.754571" lon="9.987389">
        <ele>647.216901</ele>
        <time>2026-04-26T14:15:13.097Z</time>
      </trkpt>
      <trkpt lat="48.754999" lon="9.987477">
        <ele>647.416187</ele>
        <time>2026-04-26T14:15:22.685Z</time>
      </trkpt>
      <trkpt lat="48.755506" lon="9.987626">
        <ele>647.654468</ele>
        <time>2026-04-26T14:15:34.067Z</time>
      </trkpt>
      <trkpt lat="48.755638" lon="9.987664">
        <ele>647.716461</ele>
        <time>2026-04-26T14:15:36.967Z</time>
      </trkpt>
      <trkpt lat="48.755735" lon="9.987673">
        <ele>647.761300</ele>
        <time>2026-04-26T14:15:39.065Z</time>
      </trkpt>
      <trkpt lat="48.756838" lon="9.987511">
        <ele>648.600837</ele>
        <time>2026-04-26T14:16:03.117Z</time>
      </trkpt>
      <trkpt lat="48.757250" lon="9.987582">
        <ele>648.960107</ele>
        <time>2026-04-26T14:16:12.491Z</time>
      </trkpt>
      <trkpt lat="48.757542" lon="9.987724">
        <ele>649.225791</ele>
        <time>2026-04-26T14:16:19.534Z</time>
      </trkpt>
      <trkpt lat="48.757867" lon="9.987904">
        <ele>649.440927</ele>
        <time>2026-04-26T14:16:27.521Z</time>
      </trkpt>
      <trkpt lat="48.758468" lon="9.988379">
        <ele>649.302044</ele>
        <time>2026-04-26T14:16:42.781Z</time>
      </trkpt>
      <trkpt lat="48.758654" lon="9.988541">
        <ele>649.258089</ele>
        <time>2026-04-26T14:16:47.317Z</time>
      </trkpt>
      <trkpt lat="48.758772" lon="9.988684">
        <ele>649.227136</ele>
        <time>2026-04-26T14:16:50.365Z</time>
      </trkpt>
      <trkpt lat="48.758842" lon="9.988770">
        <ele>649.208676</ele>
        <time>2026-04-26T14:16:52.137Z</time>
      </trkpt>
      <trkpt lat="48.759059" lon="9.989038">
        <ele>649.151328</ele>
        <time>2026-04-26T14:16:57.307Z</time>
      </trkpt>
      <trkpt lat="48.759608" lon="9.989714">
        <ele>648.335757</ele>
        <time>2026-04-26T14:17:09.684Z</time>
      </trkpt>
      <trkpt lat="48.759870" lon="9.989976">
        <ele>647.746037</ele>
        <time>2026-04-26T14:17:15.071Z</time>
      </trkpt>
      <trkpt lat="48.760170" lon="9.990205">
        <ele>647.114909</ele>
        <time>2026-04-26T14:17:20.906Z</time>
      </trkpt>
      <trkpt lat="48.760147" lon="9.990321">
        <ele>646.964847</ele>
        <time>2026-04-26T14:17:22.339Z</time>
      </trkpt>
      <trkpt lat="48.760129" lon="9.990543">
        <ele>646.687755</ele>
        <time>2026-04-26T14:17:24.938Z</time>
      </trkpt>
      <trkpt lat="48.760129" lon="9.990635">
        <ele>646.573784</ele>
        <time>2026-04-26T14:17:26.002Z</time>
      </trkpt>
      <trkpt lat="48.760123" lon="9.992717">
        <ele>644.639753</ele>
        <time>2026-04-26T14:17:51.340Z</time>
      </trkpt>
      <trkpt lat="48.760031" lon="9.996080">
        <ele>642.551124</ele>
        <time>2026-04-26T14:18:34.705Z</time>
      </trkpt>
      <trkpt lat="48.762189" lon="9.996361">
        <ele>641.512299</ele>
        <time>2026-04-26T14:19:49.628Z</time>
      </trkpt>
      <trkpt lat="48.763191" lon="9.996250">
        <ele>641.929734</ele>
        <time>2026-04-26T14:20:24.243Z</time>
      </trkpt>
      <trkpt lat="48.767044" lon="9.995409">
        <ele>645.244097</ele>
        <time>2026-04-26T14:22:37.101Z</time>
      </trkpt>
      <trkpt lat="48.771326" lon="9.994610">
        <ele>651.773527</ele>
        <time>2026-04-26T14:24:16.074Z</time>
      </trkpt>
      <trkpt lat="48.772117" lon="9.994517">
        <ele>654.605277</ele>
        <time>2026-04-26T14:24:35.146Z</time>
      </trkpt>
      <trkpt lat="48.772887" lon="9.994473">
        <ele>657.355558</ele>
        <time>2026-04-26T14:24:55.279Z</time>
      </trkpt>
      <trkpt lat="48.773860" lon="9.994263">
        <ele>661.732848</ele>
        <time>2026-04-26T14:25:22.152Z</time>
      </trkpt>
      <trkpt lat="48.775134" lon="9.993848">
        <ele>667.041247</ele>
        <time>2026-04-26T14:25:55.285Z</time>
      </trkpt>
      <trkpt lat="48.775960" lon="9.993514">
        <ele>669.457434</ele>
        <time>2026-04-26T14:26:15.823Z</time>
      </trkpt>
      <trkpt lat="48.776678" lon="9.993127">
        <ele>671.354131</ele>
        <time>2026-04-26T14:26:33.671Z</time>
      </trkpt>
      <trkpt lat="48.777481" lon="9.992535">
        <ele>672.668928</ele>
        <time>2026-04-26T14:26:54.120Z</time>
      </trkpt>
      <trkpt lat="48.778273" lon="9.991865">
        <ele>674.069019</ele>
        <time>2026-04-26T14:27:14.616Z</time>
      </trkpt>
      <trkpt lat="48.779736" lon="9.990456">
        <ele>676.951038</ele>
        <time>2026-04-26T14:27:55.224Z</time>
      </trkpt>
      <trkpt lat="48.780050" lon="9.990095">
        <ele>676.851712</ele>
        <time>2026-04-26T14:28:04.179Z</time>
      </trkpt>
      <trkpt lat="48.780114" lon="9.990021">
        <ele>676.831425</ele>
        <time>2026-04-26T14:28:05.990Z</time>
      </trkpt>
      <trkpt lat="48.780051" lon="9.990381">
        <ele>676.769538</ele>
        <time>2026-04-26T14:28:11.320Z</time>
      </trkpt>
      <trkpt lat="48.779701" lon="9.991801">
        <ele>676.487378</ele>
        <time>2026-04-26T14:28:30.112Z</time>
      </trkpt>
      <trkpt lat="48.779567" lon="9.992234">
        <ele>676.195977</ele>
        <time>2026-04-26T14:28:35.255Z</time>
      </trkpt>
      <trkpt lat="48.779193" lon="9.993141">
        <ele>675.544218</ele>
        <time>2026-04-26T14:28:47.235Z</time>
      </trkpt>
      <trkpt lat="48.778961" lon="9.993605">
        <ele>675.189415</ele>
        <time>2026-04-26T14:28:55.078Z</time>
      </trkpt>
      <trkpt lat="48.778819" lon="9.993858">
        <ele>674.986972</ele>
        <time>2026-04-26T14:28:59.966Z</time>
      </trkpt>
      <trkpt lat="48.778940" lon="9.994052">
        <ele>674.972889</ele>
        <time>2026-04-26T14:29:04.032Z</time>
      </trkpt>
      <trkpt lat="48.779854" lon="9.996057">
        <ele>678.737553</ele>
        <time>2026-04-26T14:29:43.775Z</time>
      </trkpt>
      <trkpt lat="48.780715" lon="9.998844">
        <ele>678.243251</ele>
        <time>2026-04-26T14:30:23.522Z</time>
      </trkpt>
      <trkpt lat="48.780895" lon="9.999519">
        <ele>678.250863</ele>
        <time>2026-04-26T14:30:32.979Z</time>
      </trkpt>
      <trkpt lat="48.781041" lon="10.000282">
        <ele>678.259167</ele>
        <time>2026-04-26T14:30:43.985Z</time>
      </trkpt>
      <trkpt lat="48.781196" lon="10.001588">
        <ele>678.090359</ele>
        <time>2026-04-26T14:31:03.503Z</time>
      </trkpt>
      <trkpt lat="48.781259" lon="10.003290">
        <ele>676.843055</ele>
        <time>2026-04-26T14:31:27.470Z</time>
      </trkpt>
      <trkpt lat="48.781279" lon="10.003569">
        <ele>676.637708</ele>
        <time>2026-04-26T14:31:30.692Z</time>
      </trkpt>
      <trkpt lat="48.781557" lon="10.003462">
        <ele>676.319239</ele>
        <time>2026-04-26T14:31:39.104Z</time>
      </trkpt>
      <trkpt lat="48.782080" lon="10.003491">
        <ele>672.711800</ele>
        <time>2026-04-26T14:31:53.244Z</time>
      </trkpt>
      <trkpt lat="48.782230" lon="10.003645">
        <ele>671.373431</ele>
        <time>2026-04-26T14:31:57.899Z</time>
      </trkpt>
      <trkpt lat="48.782714" lon="10.004634">
        <ele>665.374427</ele>
        <time>2026-04-26T14:32:18.158Z</time>
      </trkpt>
      <trkpt lat="48.783055" lon="10.005059">
        <ele>662.162470</ele>
        <time>2026-04-26T14:32:29.106Z</time>
      </trkpt>
      <trkpt lat="48.783321" lon="10.005252">
        <ele>660.106650</ele>
        <time>2026-04-26T14:32:36.532Z</time>
      </trkpt>
      <trkpt lat="48.783479" lon="10.005326">
        <ele>658.953686</ele>
        <time>2026-04-26T14:32:40.715Z</time>
      </trkpt>
      <trkpt lat="48.785390" lon="10.006282">
        <ele>646.119563</ele>
        <time>2026-04-26T14:33:34.125Z</time>
      </trkpt>
      <trkpt lat="48.786619" lon="10.006867">
        <ele>639.233352</ele>
        <time>2026-04-26T14:34:09.599Z</time>
      </trkpt>
      <trkpt lat="48.787173" lon="10.007063">
        <ele>636.426022</ele>
        <time>2026-04-26T14:34:25.391Z</time>
      </trkpt>
      <trkpt lat="48.787402" lon="10.007205">
        <ele>635.205209</ele>
        <time>2026-04-26T14:34:32.246Z</time>
      </trkpt>
      <trkpt lat="48.788177" lon="10.008010">
        <ele>630.208488</ele>
        <time>2026-04-26T14:34:58.049Z</time>
      </trkpt>
      <trkpt lat="48.788384" lon="10.008190">
        <ele>628.666788</ele>
        <time>2026-04-26T14:35:04.426Z</time>
      </trkpt>
      <trkpt lat="48.788513" lon="10.008225">
        <ele>627.819923</ele>
        <time>2026-04-26T14:35:07.897Z</time>
      </trkpt>
      <trkpt lat="48.788748" lon="10.008146">
        <ele>626.264456</ele>
        <time>2026-04-26T14:35:14.173Z</time>
      </trkpt>
      <trkpt lat="48.789016" lon="10.007857">
        <ele>624.139932</ele>
        <time>2026-04-26T14:35:22.673Z</time>
      </trkpt>
      <trkpt lat="48.789311" lon="10.007320">
        <ele>621.163054</ele>
        <time>2026-04-26T14:35:34.538Z</time>
      </trkpt>
      <trkpt lat="48.789331" lon="10.007229">
        <ele>620.754621</ele>
        <time>2026-04-26T14:35:36.156Z</time>
      </trkpt>
      <trkpt lat="48.789375" lon="10.007028">
        <ele>619.865857</ele>
        <time>2026-04-26T14:35:39.764Z</time>
      </trkpt>
      <trkpt lat="48.789374" lon="10.006839">
        <ele>619.100765</ele>
        <time>2026-04-26T14:35:43.008Z</time>
      </trkpt>
      <trkpt lat="48.789349" lon="10.006690">
        <ele>618.478365</ele>
        <time>2026-04-26T14:35:45.670Z</time>
      </trkpt>
      <trkpt lat="48.789283" lon="10.006521">
        <ele>617.683099</ele>
        <time>2026-04-26T14:35:49.070Z</time>
      </trkpt>
      <trkpt lat="48.789209" lon="10.006413">
        <ele>617.052342</ele>
        <time>2026-04-26T14:35:51.791Z</time>
      </trkpt>
      <trkpt lat="48.788781" lon="10.005976">
        <ele>613.883007</ele>
        <time>2026-04-26T14:36:05.797Z</time>
      </trkpt>
      <trkpt lat="48.788543" lon="10.005676">
        <ele>611.982174</ele>
        <time>2026-04-26T14:36:14.496Z</time>
      </trkpt>
      <trkpt lat="48.788366" lon="10.005372">
        <ele>610.339890</ele>
        <time>2026-04-26T14:36:21.765Z</time>
      </trkpt>
      <trkpt lat="48.788267" lon="10.005036">
        <ele>608.675738</ele>
        <time>2026-04-26T14:36:28.060Z</time>
      </trkpt>
      <trkpt lat="48.788237" lon="10.004840">
        <ele>607.204704</ele>
        <time>2026-04-26T14:36:31.483Z</time>
      </trkpt>
      <trkpt lat="48.788162" lon="10.004163">
        <ele>602.185953</ele>
        <time>2026-04-26T14:36:42.817Z</time>
      </trkpt>
      <trkpt lat="48.788178" lon="10.003981">
        <ele>600.843632</ele>
        <time>2026-04-26T14:36:45.767Z</time>
      </trkpt>
      <trkpt lat="48.788261" lon="10.003815">
        <ele>599.320176</ele>
        <time>2026-04-26T14:36:49.084Z</time>
      </trkpt>
      <trkpt lat="48.788399" lon="10.003785">
        <ele>597.773289</ele>
        <time>2026-04-26T14:36:52.405Z</time>
      </trkpt>
      <trkpt lat="48.788521" lon="10.003822">
        <ele>596.392808</ele>
        <time>2026-04-26T14:36:55.348Z</time>
      </trkpt>
      <trkpt lat="48.788803" lon="10.004142">
        <ele>592.485905</ele>
        <time>2026-04-26T14:37:03.543Z</time>
      </trkpt>
      <trkpt lat="48.788922" lon="10.004216">
        <ele>591.058950</ele>
        <time>2026-04-26T14:37:06.523Z</time>
      </trkpt>
      <trkpt lat="48.789041" lon="10.004241">
        <ele>589.725928</ele>
        <time>2026-04-26T14:37:09.300Z</time>
      </trkpt>
      <trkpt lat="48.789425" lon="10.004055">
        <ele>584.761511</ele>
        <time>2026-04-26T14:37:18.676Z</time>
      </trkpt>
      <trkpt lat="48.789617" lon="10.004028">
        <ele>582.348961</ele>
        <time>2026-04-26T14:37:23.220Z</time>
      </trkpt>
      <trkpt lat="48.789928" lon="10.003879">
        <ele>578.268561</ele>
        <time>2026-04-26T14:37:30.909Z</time>
      </trkpt>
      <trkpt lat="48.791116" lon="10.003170">
        <ele>563.387318</ele>
        <time>2026-04-26T14:38:01.490Z</time>
      </trkpt>
      <trkpt lat="48.791851" lon="10.002693">
        <ele>555.917952</ele>
        <time>2026-04-26T14:38:21.107Z</time>
      </trkpt>
      <trkpt lat="48.792473" lon="10.002358">
        <ele>549.785434</ele>
        <time>2026-04-26T14:38:37.819Z</time>
      </trkpt>
      <trkpt lat="48.792674" lon="10.002284">
        <ele>549.298527</ele>
        <time>2026-04-26T14:38:43.233Z</time>
      </trkpt>
      <trkpt lat="48.793243" lon="10.002426">
        <ele>547.941021</ele>
        <time>2026-04-26T14:38:58.960Z</time>
      </trkpt>
      <trkpt lat="48.793348" lon="10.002382">
        <ele>547.684587</ele>
        <time>2026-04-26T14:39:02.204Z</time>
      </trkpt>
      <trkpt lat="48.793055" lon="10.002251">
        <ele>546.965517</ele>
        <time>2026-04-26T14:39:08.411Z</time>
      </trkpt>
      <trkpt lat="48.792955" lon="10.002059">
        <ele>546.585927</ele>
        <time>2026-04-26T14:39:12.196Z</time>
      </trkpt>
      <trkpt lat="48.792822" lon="10.001717">
        <ele>545.970003</ele>
        <time>2026-04-26T14:39:18.629Z</time>
      </trkpt>
      <trkpt lat="48.792807" lon="10.001607">
        <ele>545.795789</ele>
        <time>2026-04-26T14:39:20.507Z</time>
      </trkpt>
      <trkpt lat="48.792830" lon="10.001458">
        <ele>545.571881</ele>
        <time>2026-04-26T14:39:23.040Z</time>
      </trkpt>
      <trkpt lat="48.792920" lon="10.001153">
        <ele>546.666819</ele>
        <time>2026-04-26T14:39:28.912Z</time>
      </trkpt>
      <trkpt lat="48.793001" lon="10.001069">
        <ele>547.154688</ele>
        <time>2026-04-26T14:39:31.570Z</time>
      </trkpt>
      <trkpt lat="48.792822" lon="9.998745">
        <ele>554.703206</ele>
        <time>2026-04-26T14:40:17.950Z</time>
      </trkpt>
      <trkpt lat="48.792770" lon="9.996411">
        <ele>559.480776</ele>
        <time>2026-04-26T14:40:57.736Z</time>
      </trkpt>
      <trkpt lat="48.792675" lon="9.995700">
        <ele>560.001325</ele>
        <time>2026-04-26T14:41:09.471Z</time>
      </trkpt>
      <trkpt lat="48.792661" lon="9.995235">
        <ele>559.900749</ele>
        <time>2026-04-26T14:41:16.828Z</time>
      </trkpt>
      <trkpt lat="48.792691" lon="9.995232">
        <ele>559.890889</ele>
        <time>2026-04-26T14:41:17.872Z</time>
      </trkpt>
      <trkpt lat="48.792758" lon="9.995076">
        <ele>559.850652</ele>
        <time>2026-04-26T14:41:22.131Z</time>
      </trkpt>
      <trkpt lat="48.792691" lon="9.995232">
        <ele>559.810415</ele>
        <time>2026-04-26T14:41:26.400Z</time>
      </trkpt>
      <trkpt lat="48.792661" lon="9.995235">
        <ele>559.800555</ele>
        <time>2026-04-26T14:41:27.442Z</time>
      </trkpt>
      <trkpt lat="48.792675" lon="9.995700">
        <ele>559.699979</ele>
        <time>2026-04-26T14:41:34.383Z</time>
      </trkpt>
      <trkpt lat="48.792770" lon="9.996411">
        <ele>559.543229</ele>
        <time>2026-04-26T14:41:44.658Z</time>
      </trkpt>
      <trkpt lat="48.792822" lon="9.998745">
        <ele>554.314142</ele>
        <time>2026-04-26T14:42:13.238Z</time>
      </trkpt>
      <trkpt lat="48.793001" lon="10.001069">
        <ele>547.687015</ele>
        <time>2026-04-26T14:42:38.643Z</time>
      </trkpt>
      <trkpt lat="48.792920" lon="10.001153">
        <ele>547.244691</ele>
        <time>2026-04-26T14:42:40.375Z</time>
      </trkpt>
      <trkpt lat="48.792830" lon="10.001458">
        <ele>546.251972</ele>
        <time>2026-04-26T14:42:44.267Z</time>
      </trkpt>
      <trkpt lat="48.792807" lon="10.001607">
        <ele>545.797387</ele>
        <time>2026-04-26T14:42:46.222Z</time>
      </trkpt>
      <trkpt lat="48.792822" lon="10.001717">
        <ele>545.463711</ele>
        <time>2026-04-26T14:42:47.633Z</time>
      </trkpt>
      <trkpt lat="48.792955" lon="10.002059">
        <ele>544.812059</ele>
        <time>2026-04-26T14:42:53.172Z</time>
      </trkpt>
      <trkpt lat="48.793055" lon="10.002251">
        <ele>544.818352</ele>
        <time>2026-04-26T14:42:56.976Z</time>
      </trkpt>
      <trkpt lat="48.793348" lon="10.002382">
        <ele>544.830273</ele>
        <time>2026-04-26T14:43:04.533Z</time>
      </trkpt>
      <trkpt lat="48.793970" lon="10.003398">
        <ele>544.865934</ele>
        <time>2026-04-26T14:43:27.195Z</time>
      </trkpt>
      <trkpt lat="48.794123" lon="10.003727">
        <ele>544.876288</ele>
        <time>2026-04-26T14:43:33.138Z</time>
      </trkpt>
      <trkpt lat="48.794639" lon="10.005110">
        <ele>541.372114</ele>
        <time>2026-04-26T14:43:52.953Z</time>
      </trkpt>
      <trkpt lat="48.794751" lon="10.005332">
        <ele>540.732882</ele>
        <time>2026-04-26T14:43:56.082Z</time>
      </trkpt>
      <trkpt lat="48.794855" lon="10.005669">
        <ele>539.882142</ele>
        <time>2026-04-26T14:44:00.265Z</time>
      </trkpt>
      <trkpt lat="48.795311" lon="10.008326">
        <ele>530.535949</ele>
        <time>2026-04-26T14:44:30.944Z</time>
      </trkpt>
      <trkpt lat="48.795321" lon="10.008381">
        <ele>530.325932</ele>
        <time>2026-04-26T14:44:31.476Z</time>
      </trkpt>
      <trkpt lat="48.795325" lon="10.008464">
        <ele>530.019605</ele>
        <time>2026-04-26T14:44:32.273Z</time>
      </trkpt>
      <trkpt lat="48.795346" lon="10.008885">
        <ele>528.467407</ele>
        <time>2026-04-26T14:44:36.789Z</time>
      </trkpt>
      <trkpt lat="48.795443" lon="10.009428">
        <ele>526.428802</ele>
        <time>2026-04-26T14:44:42.759Z</time>
      </trkpt>
      <trkpt lat="48.795865" lon="10.010834">
        <ele>520.830342</ele>
        <time>2026-04-26T14:44:59.578Z</time>
      </trkpt>
      <trkpt lat="48.795977" lon="10.011090">
        <ele>519.716803</ele>
        <time>2026-04-26T14:45:03.113Z</time>
      </trkpt>
      <trkpt lat="48.796754" lon="10.012212">
        <ele>516.987311</ele>
        <time>2026-04-26T14:45:23.523Z</time>
      </trkpt>
      <trkpt lat="48.796938" lon="10.012539">
        <ele>516.442204</ele>
        <time>2026-04-26T14:45:29.305Z</time>
      </trkpt>
      <trkpt lat="48.797121" lon="10.012975">
        <ele>515.786921</ele>
        <time>2026-04-26T14:45:36.457Z</time>
      </trkpt>
      <trkpt lat="48.797258" lon="10.013403">
        <ele>515.260477</ele>
        <time>2026-04-26T14:45:43.478Z</time>
      </trkpt>
      <trkpt lat="48.797404" lon="10.014089">
        <ele>515.815029</ele>
        <time>2026-04-26T14:45:54.731Z</time>
      </trkpt>
      <trkpt lat="48.797868" lon="10.015399">
        <ele>516.959156</ele>
        <time>2026-04-26T14:46:19.164Z</time>
      </trkpt>
      <trkpt lat="48.797917" lon="10.016005">
        <ele>517.254683</ele>
        <time>2026-04-26T14:46:29.354Z</time>
      </trkpt>
      <trkpt lat="48.798019" lon="10.016359">
        <ele>517.017900</ele>
        <time>2026-04-26T14:46:35.687Z</time>
      </trkpt>
      <trkpt lat="48.798219" lon="10.016699">
        <ele>516.738557</ele>
        <time>2026-04-26T14:46:43.029Z</time>
      </trkpt>
      <trkpt lat="48.798433" lon="10.016985">
        <ele>516.473315</ele>
        <time>2026-04-26T14:46:49.764Z</time>
      </trkpt>
      <trkpt lat="48.798953" lon="10.017538">
        <ele>515.882662</ele>
        <time>2026-04-26T14:47:02.536Z</time>
      </trkpt>
      <trkpt lat="48.799204" lon="10.017871">
        <ele>515.087170</ele>
        <time>2026-04-26T14:47:08.493Z</time>
      </trkpt>
      <trkpt lat="48.799552" lon="10.018420">
        <ele>511.985952</ele>
        <time>2026-04-26T14:47:16.731Z</time>
      </trkpt>
      <trkpt lat="48.799779" lon="10.018580">
        <ele>510.439447</ele>
        <time>2026-04-26T14:47:20.319Z</time>
      </trkpt>
      <trkpt lat="48.799917" lon="10.018503">
        <ele>509.530935</ele>
        <time>2026-04-26T14:47:22.406Z</time>
      </trkpt>
      <trkpt lat="48.799931" lon="10.018213">
        <ele>508.347401</ele>
        <time>2026-04-26T14:47:25.106Z</time>
      </trkpt>
      <trkpt lat="48.799982" lon="10.018044">
        <ele>507.590776</ele>
        <time>2026-04-26T14:47:26.830Z</time>
      </trkpt>
      <trkpt lat="48.800086" lon="10.018150">
        <ele>506.816736</ele>
        <time>2026-04-26T14:47:28.596Z</time>
      </trkpt>
      <trkpt lat="48.801222" lon="10.018903">
        <ele>500.912488</ele>
        <time>2026-04-26T14:47:46.786Z</time>
      </trkpt>
      <trkpt lat="48.801800" lon="10.019294">
        <ele>498.276432</ele>
        <time>2026-04-26T14:47:57.396Z</time>
      </trkpt>
      <trkpt lat="48.802186" lon="10.019693">
        <ele>496.697107</ele>
        <time>2026-04-26T14:48:05.757Z</time>
      </trkpt>
      <trkpt lat="48.802330" lon="10.019879">
        <ele>496.309708</ele>
        <time>2026-04-26T14:48:09.244Z</time>
      </trkpt>
      <trkpt lat="48.803080" lon="10.020728">
        <ele>494.392777</ele>
        <time>2026-04-26T14:48:25.590Z</time>
      </trkpt>
      <trkpt lat="48.803870" lon="10.021420">
        <ele>492.618750</ele>
        <time>2026-04-26T14:48:41.509Z</time>
      </trkpt>
      <trkpt lat="48.804030" lon="10.021531">
        <ele>492.298888</ele>
        <time>2026-04-26T14:48:44.606Z</time>
      </trkpt>
      <trkpt lat="48.804136" lon="10.021567">
        <ele>492.101384</ele>
        <time>2026-04-26T14:48:46.514Z</time>
      </trkpt>
      <trkpt lat="48.805093" lon="10.022427">
        <ele>490.091761</ele>
        <time>2026-04-26T14:49:06.356Z</time>
      </trkpt>
      <trkpt lat="48.805316" lon="10.022653">
        <ele>489.981503</ele>
        <time>2026-04-26T14:49:11.452Z</time>
      </trkpt>
      <trkpt lat="48.805521" lon="10.022840">
        <ele>489.883155</ele>
        <time>2026-04-26T14:49:16.124Z</time>
      </trkpt>
      <trkpt lat="48.805683" lon="10.022974">
        <ele>489.807290</ele>
        <time>2026-04-26T14:49:19.729Z</time>
      </trkpt>
      <trkpt lat="48.806445" lon="10.023629">
        <ele>489.447197</ele>
        <time>2026-04-26T14:49:37.789Z</time>
      </trkpt>
      <trkpt lat="48.806754" lon="10.023910">
        <ele>489.666142</ele>
        <time>2026-04-26T14:49:45.796Z</time>
      </trkpt>
      <trkpt lat="48.807145" lon="10.024237">
        <ele>490.671888</ele>
        <time>2026-04-26T14:49:55.838Z</time>
      </trkpt>
      <trkpt lat="48.807316" lon="10.024260">
        <ele>491.058673</ele>
        <time>2026-04-26T14:49:59.782Z</time>
      </trkpt>
      <trkpt lat="48.807344" lon="10.024404">
        <ele>491.281468</ele>
        <time>2026-04-26T14:50:02.091Z</time>
      </trkpt>
      <trkpt lat="48.807386" lon="10.024534">
        <ele>491.496331</ele>
        <time>2026-04-26T14:50:04.325Z</time>
      </trkpt>
      <trkpt lat="48.807530" lon="10.024630">
        <ele>491.850669</ele>
        <time>2026-04-26T14:50:08.085Z</time>
      </trkpt>
      <trkpt lat="48.807724" lon="10.024695">
        <ele>492.298282</ele>
        <time>2026-04-26T14:50:12.909Z</time>
      </trkpt>
      <trkpt lat="48.807994" lon="10.024858">
        <ele>492.952932</ele>
        <time>2026-04-26T14:50:20.017Z</time>
      </trkpt>
      <trkpt lat="48.808035" lon="10.024903">
        <ele>493.066914</ele>
        <time>2026-04-26T14:50:21.275Z</time>
      </trkpt>
      <trkpt lat="48.808086" lon="10.024963">
        <ele>493.212276</ele>
        <time>2026-04-26T14:50:22.904Z</time>
      </trkpt>
      <trkpt lat="48.808122" lon="10.025006">
        <ele>493.315475</ele>
        <time>2026-04-26T14:50:24.061Z</time>
      </trkpt>
      <trkpt lat="48.808198" lon="10.025131">
        <ele>493.762318</ele>
        <time>2026-04-26T14:50:26.927Z</time>
      </trkpt>
      <trkpt lat="48.808229" lon="10.025206">
        <ele>494.053662</ele>
        <time>2026-04-26T14:50:28.410Z</time>
      </trkpt>
      <trkpt lat="48.808256" lon="10.025408">
        <ele>494.731845</ele>
        <time>2026-04-26T14:50:31.925Z</time>
      </trkpt>
      <trkpt lat="48.808241" lon="10.025551">
        <ele>495.208282</ele>
        <time>2026-04-26T14:50:34.436Z</time>
      </trkpt>
      <trkpt lat="48.808172" lon="10.025961">
        <ele>496.600637</ele>
        <time>2026-04-26T14:50:42.028Z</time>
      </trkpt>
      <trkpt lat="48.808133" lon="10.026392">
        <ele>498.032063</ele>
        <time>2026-04-26T14:50:50.161Z</time>
      </trkpt>
      <trkpt lat="48.808134" lon="10.026435">
        <ele>498.173632</ele>
        <time>2026-04-26T14:50:50.967Z</time>
      </trkpt>
      <trkpt lat="48.808135" lon="10.026479">
        <ele>498.318490</ele>
        <time>2026-04-26T14:50:51.788Z</time>
      </trkpt>
      <trkpt lat="48.808140" lon="10.026589">
        <ele>498.681280</ele>
        <time>2026-04-26T14:50:53.806Z</time>
      </trkpt>
      <trkpt lat="48.808146" lon="10.026635">
        <ele>498.835572</ele>
        <time>2026-04-26T14:50:54.657Z</time>
      </trkpt>
      <trkpt lat="48.808152" lon="10.026686">
        <ele>499.006032</ele>
        <time>2026-04-26T14:50:55.610Z</time>
      </trkpt>
      <trkpt lat="48.808169" lon="10.026788">
        <ele>499.352219</ele>
        <time>2026-04-26T14:50:57.504Z</time>
      </trkpt>
      <trkpt lat="48.808190" lon="10.026853">
        <ele>499.590434</ele>
        <time>2026-04-26T14:50:58.784Z</time>
      </trkpt>
      <trkpt lat="48.808302" lon="10.027055">
        <ele>500.459244</ele>
        <time>2026-04-26T14:51:03.525Z</time>
      </trkpt>
      <trkpt lat="48.808328" lon="10.027087">
        <ele>500.626451</ele>
        <time>2026-04-26T14:51:04.429Z</time>
      </trkpt>
      <trkpt lat="48.808347" lon="10.027114">
        <ele>500.756461</ele>
        <time>2026-04-26T14:51:05.162Z</time>
      </trkpt>
      <trkpt lat="48.808373" lon="10.027145">
        <ele>500.921616</ele>
        <time>2026-04-26T14:51:06.045Z</time>
      </trkpt>
      <trkpt lat="48.808607" lon="10.027546">
        <ele>502.521139</ele>
        <time>2026-04-26T14:51:15.698Z</time>
      </trkpt>
      <trkpt lat="48.808718" lon="10.027614">
        <ele>502.782690</ele>
        <time>2026-04-26T14:51:18.890Z</time>
      </trkpt>
      <trkpt lat="48.808996" lon="10.027443">
        <ele>503.438117</ele>
        <time>2026-04-26T14:51:26.647Z</time>
      </trkpt>
      <trkpt lat="48.809142" lon="10.027330">
        <ele>503.796206</ele>
        <time>2026-04-26T14:51:30.675Z</time>
      </trkpt>
      <trkpt lat="48.809364" lon="10.027285">
        <ele>504.285616</ele>
        <time>2026-04-26T14:51:36.053Z</time>
      </trkpt>
      <trkpt lat="48.809387" lon="10.027391">
        <ele>504.446225</ele>
        <time>2026-04-26T14:51:37.747Z</time>
      </trkpt>
      <trkpt lat="48.809459" lon="10.027408">
        <ele>504.605447</ele>
        <time>2026-04-26T14:51:39.444Z</time>
      </trkpt>
      <trkpt lat="48.809498" lon="10.027350">
        <ele>504.724734</ele>
        <time>2026-04-26T14:51:40.669Z</time>
      </trkpt>
      <trkpt lat="48.809498" lon="10.027268">
        <ele>504.842738</ele>
        <time>2026-04-26T14:51:41.887Z</time>
      </trkpt>
      <trkpt lat="48.809890" lon="10.027271">
        <ele>505.699335</ele>
        <time>2026-04-26T14:51:50.410Z</time>
      </trkpt>
      <trkpt lat="48.810480" lon="10.027368">
        <ele>506.093554</ele>
        <time>2026-04-26T14:52:02.708Z</time>
      </trkpt>
      <trkpt lat="48.810580" lon="10.027387">
        <ele>506.017811</ele>
        <time>2026-04-26T14:52:04.650Z</time>
      </trkpt>
      <trkpt lat="48.810718" lon="10.027414">
        <ele>505.913236</ele>
        <time>2026-04-26T14:52:07.345Z</time>
      </trkpt>
      <trkpt lat="48.811027" lon="10.027484">
        <ele>505.678431</ele>
        <time>2026-04-26T14:52:13.410Z</time>
      </trkpt>
      <trkpt lat="48.811246" lon="10.027529">
        <ele>505.512336</ele>
        <time>2026-04-26T14:52:17.725Z</time>
      </trkpt>
      <trkpt lat="48.811572" lon="10.027593">
        <ele>505.265285</ele>
        <time>2026-04-26T14:52:24.117Z</time>
      </trkpt>
      <trkpt lat="48.812264" lon="10.027732">
        <ele>504.538968</ele>
        <time>2026-04-26T14:52:37.687Z</time>
      </trkpt>
      <trkpt lat="48.812650" lon="10.027810">
        <ele>503.991933</ele>
        <time>2026-04-26T14:52:44.966Z</time>
      </trkpt>
      <trkpt lat="48.812717" lon="10.027824">
        <ele>503.896925</ele>
        <time>2026-04-26T14:52:46.213Z</time>
      </trkpt>
      <trkpt lat="48.813738" lon="10.028020">
        <ele>502.451203</ele>
        <time>2026-04-26T14:53:04.931Z</time>
      </trkpt>
      <trkpt lat="48.813883" lon="10.028048">
        <ele>502.221672</ele>
        <time>2026-04-26T14:53:07.613Z</time>
      </trkpt>
      <trkpt lat="48.815120" lon="10.028275">
        <ele>500.259671</ele>
        <time>2026-04-26T14:53:30.590Z</time>
      </trkpt>
      <trkpt lat="48.815433" lon="10.028368">
        <ele>499.757464</ele>
        <time>2026-04-26T14:53:36.455Z</time>
      </trkpt>
      <trkpt lat="48.815452" lon="10.028461">
        <ele>499.656500</ele>
        <time>2026-04-26T14:53:37.611Z</time>
      </trkpt>
      <trkpt lat="48.815535" lon="10.028528">
        <ele>499.428539</ele>
        <time>2026-04-26T14:53:39.267Z</time>
      </trkpt>
      <trkpt lat="48.815615" lon="10.028473">
        <ele>499.185252</ele>
        <time>2026-04-26T14:53:40.808Z</time>
      </trkpt>
      <trkpt lat="48.815639" lon="10.028390">
        <ele>499.019882</ele>
        <time>2026-04-26T14:53:41.833Z</time>
      </trkpt>
      <trkpt lat="48.816238" lon="10.028507">
        <ele>497.346733</ele>
        <time>2026-04-26T14:53:52.171Z</time>
      </trkpt>
      <trkpt lat="48.816737" lon="10.028614">
        <ele>495.950584</ele>
        <time>2026-04-26T14:54:00.382Z</time>
      </trkpt>
      <trkpt lat="48.816998" lon="10.028654">
        <ele>495.223833</ele>
        <time>2026-04-26T14:54:04.687Z</time>
      </trkpt>
      <trkpt lat="48.817111" lon="10.028648">
        <ele>494.910585</ele>
        <time>2026-04-26T14:54:06.534Z</time>
      </trkpt>
      <trkpt lat="48.817187" lon="10.028643">
        <ele>494.699836</ele>
        <time>2026-04-26T14:54:07.741Z</time>
      </trkpt>
      <trkpt lat="48.817208" lon="10.028760">
        <ele>494.392956</ele>
        <time>2026-04-26T14:54:09.028Z</time>
      </trkpt>
      <trkpt lat="48.817291" lon="10.028833">
        <ele>493.977647</ele>
        <time>2026-04-26T14:54:10.548Z</time>
      </trkpt>
      <trkpt lat="48.817371" lon="10.028806">
        <ele>493.622797</ele>
        <time>2026-04-26T14:54:11.829Z</time>
      </trkpt>
      <trkpt lat="48.817420" lon="10.028690">
        <ele>493.229859</ele>
        <time>2026-04-26T14:54:13.280Z</time>
      </trkpt>
      <trkpt lat="48.817496" lon="10.028721">
        <ele>492.889116</ele>
        <time>2026-04-26T14:54:14.511Z</time>
      </trkpt>
      <trkpt lat="48.817512" lon="10.028597">
        <ele>492.528852</ele>
        <time>2026-04-26T14:54:15.844Z</time>
      </trkpt>
      <trkpt lat="48.817543" lon="10.028617">
        <ele>492.383012</ele>
        <time>2026-04-26T14:54:16.377Z</time>
      </trkpt>
      <trkpt lat="48.817944" lon="10.028700">
        <ele>490.630630</ele>
        <time>2026-04-26T14:54:22.742Z</time>
      </trkpt>
      <trkpt lat="48.818151" lon="10.028735">
        <ele>489.728781</ele>
        <time>2026-04-26T14:54:25.950Z</time>
      </trkpt>
      <trkpt lat="48.818506" lon="10.028712">
        <ele>488.190233</ele>
        <time>2026-04-26T14:54:31.414Z</time>
      </trkpt>
      <trkpt lat="48.818721" lon="10.028644">
        <ele>487.239309</ele>
        <time>2026-04-26T14:54:34.711Z</time>
      </trkpt>
      <trkpt lat="48.818894" lon="10.028546">
        <ele>486.289494</ele>
        <time>2026-04-26T14:54:37.459Z</time>
      </trkpt>
      <trkpt lat="48.819198" lon="10.028263">
        <ele>484.169483</ele>
        <time>2026-04-26T14:54:42.756Z</time>
      </trkpt>
      <trkpt lat="48.819249" lon="10.028275">
        <ele>483.862636</ele>
        <time>2026-04-26T14:54:43.526Z</time>
      </trkpt>
      <trkpt lat="48.819288" lon="10.028362">
        <ele>483.450603</ele>
        <time>2026-04-26T14:54:44.553Z</time>
      </trkpt>
      <trkpt lat="48.819331" lon="10.028441">
        <ele>483.049339</ele>
        <time>2026-04-26T14:54:45.544Z</time>
      </trkpt>
      <trkpt lat="48.819464" lon="10.028542">
        <ele>482.165222</ele>
        <time>2026-04-26T14:54:47.734Z</time>
      </trkpt>
      <trkpt lat="48.819519" lon="10.028566">
        <ele>481.824980</ele>
        <time>2026-04-26T14:54:48.570Z</time>
      </trkpt>
      <trkpt lat="48.819593" lon="10.028545">
        <ele>481.377386</ele>
        <time>2026-04-26T14:54:49.680Z</time>
      </trkpt>
      <trkpt lat="48.819670" lon="10.028513">
        <ele>480.902740</ele>
        <time>2026-04-26T14:54:50.840Z</time>
      </trkpt>
      <trkpt lat="48.819747" lon="10.028407">
        <ele>480.284844</ele>
        <time>2026-04-26T14:54:52.354Z</time>
      </trkpt>
      <trkpt lat="48.819786" lon="10.028330">
        <ele>479.904535</ele>
        <time>2026-04-26T14:54:53.293Z</time>
      </trkpt>
      <trkpt lat="48.819832" lon="10.028114">
        <ele>479.015807</ele>
        <time>2026-04-26T14:54:55.459Z</time>
      </trkpt>
      <trkpt lat="48.819877" lon="10.028043">
        <ele>478.630007</ele>
        <time>2026-04-26T14:54:56.399Z</time>
      </trkpt>
      <trkpt lat="48.820340" lon="10.027764">
        <ele>475.775916</ele>
        <time>2026-04-26T14:55:03.576Z</time>
      </trkpt>
      <trkpt lat="48.820855" lon="10.027487">
        <ele>473.254961</ele>
        <time>2026-04-26T14:55:11.548Z</time>
      </trkpt>
      <trkpt lat="48.820913" lon="10.027492">
        <ele>472.986904</ele>
        <time>2026-04-26T14:55:12.411Z</time>
      </trkpt>
      <trkpt lat="48.820979" lon="10.027474">
        <ele>472.677492</ele>
        <time>2026-04-26T14:55:13.406Z</time>
      </trkpt>
      <trkpt lat="48.821053" lon="10.027380">
        <ele>472.232355</ele>
        <time>2026-04-26T14:55:14.848Z</time>
      </trkpt>
      <trkpt lat="48.821184" lon="10.027306">
        <ele>471.587434</ele>
        <time>2026-04-26T14:55:16.952Z</time>
      </trkpt>
      <trkpt lat="48.821426" lon="10.027175">
        <ele>470.401981</ele>
        <time>2026-04-26T14:55:20.888Z</time>
      </trkpt>
      <trkpt lat="48.821626" lon="10.027075">
        <ele>469.430409</ele>
        <time>2026-04-26T14:55:24.191Z</time>
      </trkpt>
      <trkpt lat="48.821809" lon="10.027068">
        <ele>468.585733</ele>
        <time>2026-04-26T14:55:27.243Z</time>
      </trkpt>
      <trkpt lat="48.822019" lon="10.027010">
        <ele>467.845510</ele>
        <time>2026-04-26T14:55:30.989Z</time>
      </trkpt>
      <trkpt lat="48.822146" lon="10.026925">
        <ele>467.836184</ele>
        <time>2026-04-26T14:55:33.521Z</time>
      </trkpt>
      <trkpt lat="48.822263" lon="10.026930">
        <ele>467.828318</ele>
        <time>2026-04-26T14:55:35.774Z</time>
      </trkpt>
      <trkpt lat="48.822257" lon="10.026827">
        <ele>467.823742</ele>
        <time>2026-04-26T14:55:37.104Z</time>
      </trkpt>
      <trkpt lat="48.822267" lon="10.026718">
        <ele>467.818873</ele>
        <time>2026-04-26T14:55:38.603Z</time>
      </trkpt>
      <trkpt lat="48.822376" lon="10.026509">
        <ele>467.807076</ele>
        <time>2026-04-26T14:55:42.295Z</time>
      </trkpt>
      <trkpt lat="48.822432" lon="10.026481">
        <ele>467.803114</ele>
        <time>2026-04-26T14:55:43.577Z</time>
      </trkpt>
      <trkpt lat="48.822497" lon="10.026452">
        <ele>467.798561</ele>
        <time>2026-04-26T14:55:45.056Z</time>
      </trkpt>
      <trkpt lat="48.822534" lon="10.026519">
        <ele>467.794692</ele>
        <time>2026-04-26T14:55:46.292Z</time>
      </trkpt>
      <trkpt lat="48.822722" lon="10.026666">
        <ele>467.780481</ele>
        <time>2026-04-26T14:55:50.885Z</time>
      </trkpt>
      <trkpt lat="48.822898" lon="10.026637">
        <ele>467.768584</ele>
        <time>2026-04-26T14:55:54.699Z</time>
      </trkpt>
      <trkpt lat="48.823824" lon="10.026219">
        <ele>468.615742</ele>
        <time>2026-04-26T14:56:16.468Z</time>
      </trkpt>
      <trkpt lat="48.824627" lon="10.026011">
        <ele>470.591717</ele>
        <time>2026-04-26T14:56:35.533Z</time>
      </trkpt>
      <trkpt lat="48.825655" lon="10.025786">
        <ele>473.403577</ele>
        <time>2026-04-26T14:57:01.673Z</time>
      </trkpt>
      <trkpt lat="48.826288" lon="10.025593">
        <ele>475.418798</ele>
        <time>2026-04-26T14:57:17.713Z</time>
      </trkpt>
      <trkpt lat="48.826775" lon="10.025576">
        <ele>476.939293</ele>
        <time>2026-04-26T14:57:29.443Z</time>
      </trkpt>
      <trkpt lat="48.827199" lon="10.025509">
        <ele>478.059442</ele>
        <time>2026-04-26T14:57:39.512Z</time>
      </trkpt>
      <trkpt lat="48.828053" lon="10.025336">
        <ele>479.746050</ele>
        <time>2026-04-26T14:57:59.402Z</time>
      </trkpt>
      <trkpt lat="48.828217" lon="10.025273">
        <ele>480.077206</ele>
        <time>2026-04-26T14:58:03.355Z</time>
      </trkpt>
      <trkpt lat="48.828779" lon="10.025188">
        <ele>481.182828</ele>
        <time>2026-04-26T14:58:16.648Z</time>
      </trkpt>
      <trkpt lat="48.829138" lon="10.025051">
        <ele>481.486102</ele>
        <time>2026-04-26T14:58:25.239Z</time>
      </trkpt>
      <trkpt lat="48.829476" lon="10.024964">
        <ele>481.741955</ele>
        <time>2026-04-26T14:58:33.064Z</time>
      </trkpt>
      <trkpt lat="48.829670" lon="10.024874">
        <ele>481.893343</ele>
        <time>2026-04-26T14:58:37.651Z</time>
      </trkpt>
      <trkpt lat="48.830984" lon="10.023884">
        <ele>482.089171</ele>
        <time>2026-04-26T14:59:08.446Z</time>
      </trkpt>
      <trkpt lat="48.831425" lon="10.023497">
        <ele>481.654162</ele>
        <time>2026-04-26T14:59:18.318Z</time>
      </trkpt>
      <trkpt lat="48.831541" lon="10.023305">
        <ele>481.507632</ele>
        <time>2026-04-26T14:59:21.574Z</time>
      </trkpt>
      <trkpt lat="48.831620" lon="10.023456">
        <ele>481.399183</ele>
        <time>2026-04-26T14:59:24.035Z</time>
      </trkpt>
      <trkpt lat="48.831769" lon="10.023415">
        <ele>481.269845</ele>
        <time>2026-04-26T14:59:26.819Z</time>
      </trkpt>
      <trkpt lat="48.832091" lon="10.023466">
        <ele>480.993601</ele>
        <time>2026-04-26T14:59:32.718Z</time>
      </trkpt>
      <trkpt lat="48.832210" lon="10.023505">
        <ele>480.890363</ele>
        <time>2026-04-26T14:59:34.934Z</time>
      </trkpt>
      <trkpt lat="48.832880" lon="10.023703">
        <ele>480.311523</ele>
        <time>2026-04-26T14:59:47.325Z</time>
      </trkpt>
      <trkpt lat="48.833314" lon="10.023866">
        <ele>479.932392</ele>
        <time>2026-04-26T14:59:55.754Z</time>
      </trkpt>
      <trkpt lat="48.833613" lon="10.023959">
        <ele>479.673568</ele>
        <time>2026-04-26T15:00:01.969Z</time>
      </trkpt>
      <trkpt lat="48.833849" lon="10.023981">
        <ele>479.611425</ele>
        <time>2026-04-26T15:00:07.155Z</time>
      </trkpt>
      <trkpt lat="48.834083" lon="10.023864">
        <ele>480.248009</ele>
        <time>2026-04-26T15:00:12.785Z</time>
      </trkpt>
      <trkpt lat="48.834150" lon="10.023777">
        <ele>480.475767</ele>
        <time>2026-04-26T15:00:14.836Z</time>
      </trkpt>
      <trkpt lat="48.834253" lon="10.023542">
        <ele>480.955996</ele>
        <time>2026-04-26T15:00:19.201Z</time>
      </trkpt>
      <trkpt lat="48.834354" lon="10.023207">
        <ele>481.582740</ele>
        <time>2026-04-26T15:00:25.015Z</time>
      </trkpt>
      <trkpt lat="48.834413" lon="10.022955">
        <ele>482.037684</ele>
        <time>2026-04-26T15:00:29.333Z</time>
      </trkpt>
      <trkpt lat="48.834526" lon="10.022606">
        <ele>482.699242</ele>
        <time>2026-04-26T15:00:35.794Z</time>
      </trkpt>
      <trkpt lat="48.834568" lon="10.022547">
        <ele>482.847060</ele>
        <time>2026-04-26T15:00:37.288Z</time>
      </trkpt>
      <trkpt lat="48.834678" lon="10.022391">
        <ele>483.235912</ele>
        <time>2026-04-26T15:00:41.175Z</time>
      </trkpt>
      <trkpt lat="48.834933" lon="10.022217">
        <ele>483.958267</ele>
        <time>2026-04-26T15:00:48.270Z</time>
      </trkpt>
      <trkpt lat="48.835105" lon="10.022135">
        <ele>484.325848</ele>
        <time>2026-04-26T15:00:52.697Z</time>
      </trkpt>
      <trkpt lat="48.835585" lon="10.022011">
        <ele>485.124487</ele>
        <time>2026-04-26T15:01:04.229Z</time>
      </trkpt>
      <trkpt lat="48.835683" lon="10.022042">
        <ele>485.288683</ele>
        <time>2026-04-26T15:01:06.552Z</time>
      </trkpt>
      <trkpt lat="48.835729" lon="10.022078">
        <ele>485.373559</ele>
        <time>2026-04-26T15:01:07.757Z</time>
      </trkpt>
      <trkpt lat="48.836334" lon="10.022680">
        <ele>486.559834</ele>
        <time>2026-04-26T15:01:24.342Z</time>
      </trkpt>
      <trkpt lat="48.836453" lon="10.022747">
        <ele>486.768001</ele>
        <time>2026-04-26T15:01:27.145Z</time>
      </trkpt>
      <trkpt lat="48.836622" lon="10.022805">
        <ele>487.052194</ele>
        <time>2026-04-26T15:01:30.801Z</time>
      </trkpt>
      <trkpt lat="48.836793" lon="10.022792">
        <ele>487.027104</ele>
        <time>2026-04-26T15:01:34.263Z</time>
      </trkpt>
      <trkpt lat="48.836993" lon="10.022688">
        <ele>486.907882</ele>
        <time>2026-04-26T15:01:38.510Z</time>
      </trkpt>
      <trkpt lat="48.837168" lon="10.022641">
        <ele>486.807655</ele>
        <time>2026-04-26T15:01:42.079Z</time>
      </trkpt>
      <trkpt lat="48.837447" lon="10.022710">
        <ele>486.648231</ele>
        <time>2026-04-26T15:01:47.644Z</time>
      </trkpt>
      <trkpt lat="48.837594" lon="10.022707">
        <ele>486.565318</ele>
        <time>2026-04-26T15:01:50.553Z</time>
      </trkpt>
      <trkpt lat="48.838070" lon="10.022639">
        <ele>486.295676</ele>
        <time>2026-04-26T15:01:59.880Z</time>
      </trkpt>
      <trkpt lat="48.838223" lon="10.022616">
        <ele>486.208964</ele>
        <time>2026-04-26T15:02:02.807Z</time>
      </trkpt>
      <trkpt lat="48.838261" lon="10.022790">
        <ele>486.140911</ele>
        <time>2026-04-26T15:02:05.032Z</time>
      </trkpt>
      <trkpt lat="48.838580" lon="10.022717">
        <ele>486.129166</ele>
        <time>2026-04-26T15:02:11.162Z</time>
      </trkpt>
      <trkpt lat="48.840318" lon="10.022482">
        <ele>486.581669</ele>
        <time>2026-04-26T15:02:49.227Z</time>
      </trkpt>
      <trkpt lat="48.840767" lon="10.022490">
        <ele>487.072750</ele>
        <time>2026-04-26T15:02:59.367Z</time>
      </trkpt>
      <trkpt lat="48.841550" lon="10.022646">
        <ele>487.936405</ele>
        <time>2026-04-26T15:03:17.181Z</time>
      </trkpt>
      <trkpt lat="48.841978" lon="10.022813">
        <ele>488.520552</ele>
        <time>2026-04-26T15:03:27.299Z</time>
      </trkpt>
      <trkpt lat="48.842083" lon="10.022833">
        <ele>488.807781</ele>
        <time>2026-04-26T15:03:29.741Z</time>
      </trkpt>
      <trkpt lat="48.842281" lon="10.022804">
        <ele>489.347696</ele>
        <time>2026-04-26T15:03:34.353Z</time>
      </trkpt>
      <trkpt lat="48.842413" lon="10.022820">
        <ele>489.707117</ele>
        <time>2026-04-26T15:03:37.439Z</time>
      </trkpt>
      <trkpt lat="48.842461" lon="10.022741">
        <ele>489.899183</ele>
        <time>2026-04-26T15:03:39.084Z</time>
      </trkpt>
      <trkpt lat="48.843730" lon="10.023062">
        <ele>493.449744</ele>
        <time>2026-04-26T15:04:10.433Z</time>
      </trkpt>
      <trkpt lat="48.844270" lon="10.023200">
        <ele>495.490858</ele>
        <time>2026-04-26T15:04:24.522Z</time>
      </trkpt>
      <trkpt lat="48.844749" lon="10.023242">
        <ele>497.279296</ele>
        <time>2026-04-26T15:04:36.754Z</time>
      </trkpt>
      <trkpt lat="48.845011" lon="10.023181">
        <ele>498.267296</ele>
        <time>2026-04-26T15:04:43.473Z</time>
      </trkpt>
      <trkpt lat="48.845992" lon="10.022676">
        <ele>500.905447</ele>
        <time>2026-04-26T15:05:08.799Z</time>
      </trkpt>
      <trkpt lat="48.846244" lon="10.022548">
        <ele>501.342947</ele>
        <time>2026-04-26T15:05:14.992Z</time>
      </trkpt>
      <trkpt lat="48.846410" lon="10.022505">
        <ele>501.620218</ele>
        <time>2026-04-26T15:05:18.896Z</time>
      </trkpt>
      <trkpt lat="48.846634" lon="10.022521">
        <ele>501.989454</ele>
        <time>2026-04-26T15:05:24.021Z</time>
      </trkpt>
      <trkpt lat="48.846854" lon="10.022593">
        <ele>502.360002</ele>
        <time>2026-04-26T15:05:29.130Z</time>
      </trkpt>
      <trkpt lat="48.849027" lon="10.023589">
        <ele>501.390623</ele>
        <time>2026-04-26T15:06:14.873Z</time>
      </trkpt>
      <trkpt lat="48.849376" lon="10.023740">
        <ele>500.307671</ele>
        <time>2026-04-26T15:06:21.067Z</time>
      </trkpt>
      <trkpt lat="48.849885" lon="10.023899">
        <ele>498.756845</ele>
        <time>2026-04-26T15:06:29.535Z</time>
      </trkpt>
      <trkpt lat="48.850118" lon="10.023937">
        <ele>498.057485</ele>
        <time>2026-04-26T15:06:33.215Z</time>
      </trkpt>
      <trkpt lat="48.850912" lon="10.023908">
        <ele>495.793990</ele>
        <time>2026-04-26T15:06:45.589Z</time>
      </trkpt>
      <trkpt lat="48.851828" lon="10.023844">
        <ele>493.440293</ele>
        <time>2026-04-26T15:07:00.438Z</time>
      </trkpt>
      <trkpt lat="48.852978" lon="10.023777">
        <ele>492.093614</ele>
        <time>2026-04-26T15:07:22.872Z</time>
      </trkpt>
      <trkpt lat="48.855485" lon="10.023788">
        <ele>494.212929</ele>
        <time>2026-04-26T15:08:19.769Z</time>
      </trkpt>
      <trkpt lat="48.855981" lon="10.023774">
        <ele>494.811773</ele>
        <time>2026-04-26T15:08:30.820Z</time>
      </trkpt>
      <trkpt lat="48.856386" lon="10.023620">
        <ele>495.552909</ele>
        <time>2026-04-26T15:08:40.375Z</time>
      </trkpt>
      <trkpt lat="48.857031" lon="10.023254">
        <ele>496.852907</ele>
        <time>2026-04-26T15:08:56.795Z</time>
      </trkpt>
      <trkpt lat="48.857684" lon="10.022893">
        <ele>498.164929</ele>
        <time>2026-04-26T15:09:13.417Z</time>
      </trkpt>
      <trkpt lat="48.857487" lon="10.020546">
        <ele>499.141507</ele>
        <time>2026-04-26T15:09:46.544Z</time>
      </trkpt>
      <trkpt lat="48.857459" lon="10.019382">
        <ele>499.580826</ele>
        <time>2026-04-26T15:10:03.754Z</time>
      </trkpt>
      <trkpt lat="48.857515" lon="10.018957">
        <ele>499.744822</ele>
        <time>2026-04-26T15:10:10.195Z</time>
      </trkpt>
      <trkpt lat="48.857612" lon="10.018544">
        <ele>499.910743</ele>
        <time>2026-04-26T15:10:16.700Z</time>
      </trkpt>
      <trkpt lat="48.857638" lon="10.018124">
        <ele>500.070355</ele>
        <time>2026-04-26T15:10:22.955Z</time>
      </trkpt>
      <trkpt lat="48.857634" lon="10.017870">
        <ele>500.166486</ele>
        <time>2026-04-26T15:10:26.679Z</time>
      </trkpt>
      <trkpt lat="48.857839" lon="10.017023">
        <ele>500.094684</ele>
        <time>2026-04-26T15:10:38.991Z</time>
      </trkpt>
      <trkpt lat="48.857842" lon="10.016687">
        <ele>499.884521</ele>
        <time>2026-04-26T15:10:42.940Z</time>
      </trkpt>
      <trkpt lat="48.857798" lon="10.016082">
        <ele>499.503834</ele>
        <time>2026-04-26T15:10:49.925Z</time>
      </trkpt>
      <trkpt lat="48.857777" lon="10.015534">
        <ele>499.160519</ele>
        <time>2026-04-26T15:10:56.509Z</time>
      </trkpt>
      <trkpt lat="48.857731" lon="10.014753">
        <ele>498.670108</ele>
        <time>2026-04-26T15:11:06.645Z</time>
      </trkpt>
      <trkpt lat="48.857767" lon="10.014506">
        <ele>498.577133</ele>
        <time>2026-04-26T15:11:10.179Z</time>
      </trkpt>
      <trkpt lat="48.857896" lon="10.013950">
        <ele>498.392757</ele>
        <time>2026-04-26T15:11:18.756Z</time>
      </trkpt>
      <trkpt lat="48.857908" lon="10.013600">
        <ele>498.283151</ele>
        <time>2026-04-26T15:11:23.798Z</time>
      </trkpt>
      <trkpt lat="48.857668" lon="10.012285">
        <ele>497.856373</ele>
        <time>2026-04-26T15:11:42.503Z</time>
      </trkpt>
      <trkpt lat="48.858648" lon="10.011840">
        <ele>494.734419</ele>
        <time>2026-04-26T15:11:59.650Z</time>
      </trkpt>
      <trkpt lat="48.858834" lon="10.011722">
        <ele>494.033395</ele>
        <time>2026-04-26T15:12:02.754Z</time>
      </trkpt>
      <trkpt lat="48.859561" lon="10.011080">
        <ele>491.011283</ele>
        <time>2026-04-26T15:12:15.570Z</time>
      </trkpt>
      <trkpt lat="48.860029" lon="10.010770">
        <ele>488.824995</ele>
        <time>2026-04-26T15:12:23.287Z</time>
      </trkpt>
      <trkpt lat="48.860834" lon="10.010350">
        <ele>485.180094</ele>
        <time>2026-04-26T15:12:36.497Z</time>
      </trkpt>
      <trkpt lat="48.860914" lon="10.010391">
        <ele>484.818539</ele>
        <time>2026-04-26T15:12:37.827Z</time>
      </trkpt>
      <trkpt lat="48.860972" lon="10.010470">
        <ele>484.485015</ele>
        <time>2026-04-26T15:12:39.060Z</time>
      </trkpt>
      <trkpt lat="48.862239" lon="10.012201">
        <ele>479.014602</ele>
        <time>2026-04-26T15:13:06.794Z</time>
      </trkpt>
      <trkpt lat="48.862578" lon="10.012626">
        <ele>478.092613</ele>
        <time>2026-04-26T15:13:14.229Z</time>
      </trkpt>
      <trkpt lat="48.862733" lon="10.012863">
        <ele>477.919045</ele>
        <time>2026-04-26T15:13:18.079Z</time>
      </trkpt>
      <trkpt lat="48.862955" lon="10.013458">
        <ele>477.563778</ele>
        <time>2026-04-26T15:13:26.231Z</time>
      </trkpt>
      <trkpt lat="48.863010" lon="10.013539">
        <ele>477.503320</ele>
        <time>2026-04-26T15:13:27.683Z</time>
      </trkpt>
      <trkpt lat="48.864148" lon="10.014379">
        <ele>477.596230</ele>
        <time>2026-04-26T15:13:55.448Z</time>
      </trkpt>
      <trkpt lat="48.864545" lon="10.014584">
        <ele>478.398289</ele>
        <time>2026-04-26T15:14:05.273Z</time>
      </trkpt>
      <trkpt lat="48.864759" lon="10.014612">
        <ele>478.809173</ele>
        <time>2026-04-26T15:14:10.345Z</time>
      </trkpt>
      <trkpt lat="48.865128" lon="10.014595">
        <ele>479.515373</ele>
        <time>2026-04-26T15:14:19.159Z</time>
      </trkpt>
      <trkpt lat="48.865607" lon="10.014678">
        <ele>480.431556</ele>
        <time>2026-04-26T15:14:30.703Z</time>
      </trkpt>
      <trkpt lat="48.866040" lon="10.014676">
        <ele>481.230963</ele>
        <time>2026-04-26T15:14:40.949Z</time>
      </trkpt>
      <trkpt lat="48.866842" lon="10.014646">
        <ele>482.712062</ele>
        <time>2026-04-26T15:14:59.592Z</time>
      </trkpt>
      <trkpt lat="48.867265" lon="10.014558">
        <ele>483.500283</ele>
        <time>2026-04-26T15:15:09.378Z</time>
      </trkpt>
      <trkpt lat="48.867546" lon="10.014457">
        <ele>483.589908</ele>
        <time>2026-04-26T15:15:15.918Z</time>
      </trkpt>
      <trkpt lat="48.867803" lon="10.014492">
        <ele>483.595292</ele>
        <time>2026-04-26T15:15:21.683Z</time>
      </trkpt>
      <trkpt lat="48.867878" lon="10.014465">
        <ele>483.596900</ele>
        <time>2026-04-26T15:15:23.406Z</time>
      </trkpt>
      <trkpt lat="48.867899" lon="10.014052">
        <ele>483.602585</ele>
        <time>2026-04-26T15:15:29.579Z</time>
      </trkpt>
      <trkpt lat="48.868238" lon="10.013040">
        <ele>483.618171</ele>
        <time>2026-04-26T15:15:45.434Z</time>
      </trkpt>
      <trkpt lat="48.868371" lon="10.012800">
        <ele>483.613665</ele>
        <time>2026-04-26T15:15:49.519Z</time>
      </trkpt>
      <trkpt lat="48.868706" lon="10.012351">
        <ele>482.887368</ele>
        <time>2026-04-26T15:15:58.020Z</time>
      </trkpt>
      <trkpt lat="48.868829" lon="10.012070">
        <ele>482.526300</ele>
        <time>2026-04-26T15:16:02.143Z</time>
      </trkpt>
      <trkpt lat="48.868933" lon="10.011748">
        <ele>482.142563</ele>
        <time>2026-04-26T15:16:06.486Z</time>
      </trkpt>
      <trkpt lat="48.869118" lon="10.010815">
        <ele>481.100145</ele>
        <time>2026-04-26T15:16:18.280Z</time>
      </trkpt>
      <trkpt lat="48.868902" lon="10.009521">
        <ele>480.197240</ele>
        <time>2026-04-26T15:16:35.732Z</time>
      </trkpt>
      <trkpt lat="48.871015" lon="10.008553">
        <ele>477.556077</ele>
        <time>2026-04-26T15:17:20.432Z</time>
      </trkpt>
      <trkpt lat="48.871425" lon="10.008384">
        <ele>476.854828</ele>
        <time>2026-04-26T15:17:27.574Z</time>
      </trkpt>
      <trkpt lat="48.871542" lon="10.008375">
        <ele>476.661441</ele>
        <time>2026-04-26T15:17:29.466Z</time>
      </trkpt>
      <trkpt lat="48.872040" lon="10.008103">
        <ele>475.379825</ele>
        <time>2026-04-26T15:17:37.760Z</time>
      </trkpt>
      <trkpt lat="48.872734" lon="10.008199">
        <ele>473.315358</ele>
        <time>2026-04-26T15:17:48.806Z</time>
      </trkpt>
      <trkpt lat="48.872987" lon="10.008113">
        <ele>472.547341</ele>
        <time>2026-04-26T15:17:53.157Z</time>
      </trkpt>
      <trkpt lat="48.873122" lon="10.007987">
        <ele>472.078057</ele>
        <time>2026-04-26T15:17:55.893Z</time>
      </trkpt>
      <trkpt lat="48.873684" lon="10.006992">
        <ele>469.190223</ele>
        <time>2026-04-26T15:18:11.669Z</time>
      </trkpt>
      <trkpt lat="48.874461" lon="10.006401">
        <ele>466.026746</ele>
        <time>2026-04-26T15:18:26.270Z</time>
      </trkpt>
      <trkpt lat="48.874612" lon="10.006350">
        <ele>465.463526</ele>
        <time>2026-04-26T15:18:28.608Z</time>
      </trkpt>
      <trkpt lat="48.875254" lon="10.006336">
        <ele>460.474111</ele>
        <time>2026-04-26T15:18:37.739Z</time>
      </trkpt>
      <trkpt lat="48.875626" lon="10.006255">
        <ele>456.310939</ele>
        <time>2026-04-26T15:18:42.838Z</time>
      </trkpt>
      <trkpt lat="48.875744" lon="10.006288">
        <ele>454.981771</ele>
        <time>2026-04-26T15:18:44.435Z</time>
      </trkpt>
      <trkpt lat="48.876157" lon="10.006549">
        <ele>450.026969</ele>
        <time>2026-04-26T15:18:50.332Z</time>
      </trkpt>
      <trkpt lat="48.876256" lon="10.006544">
        <ele>448.929612</ele>
        <time>2026-04-26T15:18:51.636Z</time>
      </trkpt>
      <trkpt lat="48.876560" lon="10.006529">
        <ele>445.560037</ele>
        <time>2026-04-26T15:18:55.612Z</time>
      </trkpt>
      <trkpt lat="48.876702" lon="10.006411">
        <ele>443.624437</ele>
        <time>2026-04-26T15:18:57.717Z</time>
      </trkpt>
      <trkpt lat="48.876856" lon="10.006356">
        <ele>441.529247</ele>
        <time>2026-04-26T15:18:59.790Z</time>
      </trkpt>
      <trkpt lat="48.877079" lon="10.006433">
        <ele>438.500484</ele>
        <time>2026-04-26T15:19:02.764Z</time>
      </trkpt>
      <trkpt lat="48.877193" lon="10.006531">
        <ele>436.765983</ele>
        <time>2026-04-26T15:19:04.479Z</time>
      </trkpt>
      <trkpt lat="48.877370" lon="10.006775">
        <ele>433.601631</ele>
        <time>2026-04-26T15:19:07.599Z</time>
      </trkpt>
      <trkpt lat="48.877471" lon="10.007065">
        <ele>430.743204</ele>
        <time>2026-04-26T15:19:10.430Z</time>
      </trkpt>
      <trkpt lat="48.877567" lon="10.007614">
        <ele>425.794917</ele>
        <time>2026-04-26T15:19:15.344Z</time>
      </trkpt>
      <trkpt lat="48.877711" lon="10.007787">
        <ele>423.364198</ele>
        <time>2026-04-26T15:19:17.784Z</time>
      </trkpt>
      <trkpt lat="48.878237" lon="10.008108">
        <ele>416.898822</ele>
        <time>2026-04-26T15:19:25.323Z</time>
      </trkpt>
      <trkpt lat="48.878424" lon="10.008138">
        <ele>414.946667</ele>
        <time>2026-04-26T15:19:27.837Z</time>
      </trkpt>
      <trkpt lat="48.878616" lon="10.008059">
        <ele>412.881690</ele>
        <time>2026-04-26T15:19:30.497Z</time>
      </trkpt>
      <trkpt lat="48.878840" lon="10.007699">
        <ele>409.497996</ele>
        <time>2026-04-26T15:19:34.890Z</time>
      </trkpt>
      <trkpt lat="48.879400" lon="10.007551">
        <ele>403.597077</ele>
        <time>2026-04-26T15:19:42.630Z</time>
      </trkpt>
      <trkpt lat="48.879483" lon="10.007496">
        <ele>402.657128</ele>
        <time>2026-04-26T15:19:43.891Z</time>
      </trkpt>
      <trkpt lat="48.879568" lon="10.007379">
        <ele>401.714183</ele>
        <time>2026-04-26T15:19:45.500Z</time>
      </trkpt>
      <trkpt lat="48.879673" lon="10.007196">
        <ele>400.821750</ele>
        <time>2026-04-26T15:19:47.762Z</time>
      </trkpt>
      <trkpt lat="48.879736" lon="10.007148">
        <ele>400.428010</ele>
        <time>2026-04-26T15:19:48.757Z</time>
      </trkpt>
      <trkpt lat="48.879796" lon="10.007145">
        <ele>400.092569</ele>
        <time>2026-04-26T15:19:49.626Z</time>
      </trkpt>
      <trkpt lat="48.880014" lon="10.007333">
        <ele>398.692193</ele>
        <time>2026-04-26T15:19:53.232Z</time>
      </trkpt>
      <trkpt lat="48.880353" lon="10.006808">
        <ele>395.988521</ele>
        <time>2026-04-26T15:20:00.447Z</time>
      </trkpt>
      <trkpt lat="48.880843" lon="10.006309">
        <ele>392.693280</ele>
        <time>2026-04-26T15:20:09.627Z</time>
      </trkpt>
      <trkpt lat="48.881145" lon="10.006186">
        <ele>391.468937</ele>
        <time>2026-04-26T15:20:14.767Z</time>
      </trkpt>
      <trkpt lat="48.881530" lon="10.005971">
        <ele>390.367813</ele>
        <time>2026-04-26T15:20:21.530Z</time>
      </trkpt>
      <trkpt lat="48.881813" lon="10.005788">
        <ele>389.542188</ele>
        <time>2026-04-26T15:20:26.695Z</time>
      </trkpt>
      <trkpt lat="48.882111" lon="10.005546">
        <ele>388.635196</ele>
        <time>2026-04-26T15:20:32.435Z</time>
      </trkpt>
      <trkpt lat="48.882567" lon="10.005067">
        <ele>387.147264</ele>
        <time>2026-04-26T15:20:42.084Z</time>
      </trkpt>
      <trkpt lat="48.882833" lon="10.004850">
        <ele>386.391601</ele>
        <time>2026-04-26T15:20:47.357Z</time>
      </trkpt>
      <trkpt lat="48.883336" lon="10.004638">
        <ele>385.087819</ele>
        <time>2026-04-26T15:20:56.415Z</time>
      </trkpt>
      <trkpt lat="48.884336" lon="10.004383">
        <ele>382.573070</ele>
        <time>2026-04-26T15:21:13.277Z</time>
      </trkpt>
      <trkpt lat="48.884493" lon="10.004302">
        <ele>382.257491</ele>
        <time>2026-04-26T15:21:16.011Z</time>
      </trkpt>
      <trkpt lat="48.885142" lon="10.003785">
        <ele>380.862893</ele>
        <time>2026-04-26T15:21:28.508Z</time>
      </trkpt>
      <trkpt lat="48.885341" lon="10.003662">
        <ele>380.454006</ele>
        <time>2026-04-26T15:21:32.529Z</time>
      </trkpt>
      <trkpt lat="48.885548" lon="10.003613">
        <ele>380.055238</ele>
        <time>2026-04-26T15:21:36.580Z</time>
      </trkpt>
      <trkpt lat="48.885553" lon="10.003529">
        <ele>379.949667</ele>
        <time>2026-04-26T15:21:37.650Z</time>
      </trkpt>
      <trkpt lat="48.885558" lon="10.003413">
        <ele>379.804162</ele>
        <time>2026-04-26T15:21:39.097Z</time>
      </trkpt>
      <trkpt lat="48.885760" lon="10.003429">
        <ele>379.419135</ele>
        <time>2026-04-26T15:21:43.028Z</time>
      </trkpt>
      <trkpt lat="48.885942" lon="10.003506">
        <ele>379.065939</ele>
        <time>2026-04-26T15:21:46.658Z</time>
      </trkpt>
      <trkpt lat="48.886149" lon="10.003642">
        <ele>378.655345</ele>
        <time>2026-04-26T15:21:50.993Z</time>
      </trkpt>
      <trkpt lat="48.886297" lon="10.003789">
        <ele>378.333469</ele>
        <time>2026-04-26T15:21:54.370Z</time>
      </trkpt>
      <trkpt lat="48.886819" lon="10.004598">
        <ele>376.976373</ele>
        <time>2026-04-26T15:22:07.778Z</time>
      </trkpt>
      <trkpt lat="48.887231" lon="10.005229">
        <ele>375.917008</ele>
        <time>2026-04-26T15:22:17.604Z</time>
      </trkpt>
      <trkpt lat="48.887675" lon="10.006011">
        <ele>375.007967</ele>
        <time>2026-04-26T15:22:29.206Z</time>
      </trkpt>
      <trkpt lat="48.887796" lon="10.006291">
        <ele>374.713172</ele>
        <time>2026-04-26T15:22:33.167Z</time>
      </trkpt>
      <trkpt lat="48.888016" lon="10.006995">
        <ele>374.027376</ele>
        <time>2026-04-26T15:22:43.186Z</time>
      </trkpt>
      <trkpt lat="48.888249" lon="10.007569">
        <ele>373.529593</ele>
        <time>2026-04-26T15:22:52.449Z</time>
      </trkpt>
      <trkpt lat="48.888385" lon="10.007798">
        <ele>373.543020</ele>
        <time>2026-04-26T15:22:56.839Z</time>
      </trkpt>
      <trkpt lat="48.888529" lon="10.007950">
        <ele>373.554619</ele>
        <time>2026-04-26T15:23:00.647Z</time>
      </trkpt>
      <trkpt lat="48.888688" lon="10.008080">
        <ele>373.566565</ele>
        <time>2026-04-26T15:23:04.574Z</time>
      </trkpt>
      <trkpt lat="48.888881" lon="10.008166">
        <ele>373.579873</ele>
        <time>2026-04-26T15:23:08.959Z</time>
      </trkpt>
      <trkpt lat="48.889224" lon="10.008176">
        <ele>373.602575</ele>
        <time>2026-04-26T15:23:16.366Z</time>
      </trkpt>
      <trkpt lat="48.889471" lon="10.008092">
        <ele>373.619323</ele>
        <time>2026-04-26T15:23:21.731Z</time>
      </trkpt>
      <trkpt lat="48.890087" lon="10.007772">
        <ele>373.615872</ele>
        <time>2026-04-26T15:23:35.266Z</time>
      </trkpt>
      <trkpt lat="48.890131" lon="10.007575">
        <ele>373.601901</ele>
        <time>2026-04-26T15:23:38.194Z</time>
      </trkpt>
      <trkpt lat="48.890167" lon="10.007317">
        <ele>373.584190</ele>
        <time>2026-04-26T15:23:44.186Z</time>
      </trkpt>
      <trkpt lat="48.890199" lon="10.007138">
        <ele>373.571734</ele>
        <time>2026-04-26T15:23:46.690Z</time>
      </trkpt>
      <trkpt lat="48.890208" lon="10.006883">
        <ele>373.554586</ele>
        <time>2026-04-26T15:23:50.149Z</time>
      </trkpt>
      <trkpt lat="48.890187" lon="10.006669">
        <ele>373.540056</ele>
        <time>2026-04-26T15:23:53.102Z</time>
      </trkpt>
      <trkpt lat="48.890269" lon="10.006567">
        <ele>373.529238</ele>
        <time>2026-04-26T15:23:55.308Z</time>
      </trkpt>
      <trkpt lat="48.890412" lon="10.006483">
        <ele>373.513582</ele>
        <time>2026-04-26T15:23:58.521Z</time>
      </trkpt>
      <trkpt lat="48.890583" lon="10.006441">
        <ele>373.495891</ele>
        <time>2026-04-26T15:24:02.155Z</time>
      </trkpt>
      <trkpt lat="48.890669" lon="10.006452">
        <ele>373.487077</ele>
        <time>2026-04-26T15:24:03.991Z</time>
      </trkpt>
      <trkpt lat="48.890899" lon="10.006456">
        <ele>373.463586</ele>
        <time>2026-04-26T15:24:08.936Z</time>
      </trkpt>
      <trkpt lat="48.891064" lon="10.006413">
        <ele>373.454576</ele>
        <time>2026-04-26T15:24:12.496Z</time>
      </trkpt>
      <trkpt lat="48.891125" lon="10.006353">
        <ele>373.451467</ele>
        <time>2026-04-26T15:24:14.036Z</time>
      </trkpt>
      <trkpt lat="48.891506" lon="10.005670">
        <ele>373.426260</ele>
        <time>2026-04-26T15:24:26.449Z</time>
      </trkpt>
      <trkpt lat="48.891814" lon="10.004912">
        <ele>373.401183</ele>
        <time>2026-04-26T15:24:38.697Z</time>
      </trkpt>
      <trkpt lat="48.892105" lon="10.004108">
        <ele>373.426678</ele>
        <time>2026-04-26T15:24:51.222Z</time>
      </trkpt>
      <trkpt lat="48.892496" lon="10.003523">
        <ele>373.552518</ele>
        <time>2026-04-26T15:25:02.918Z</time>
      </trkpt>
      <trkpt lat="48.892509" lon="10.003266">
        <ele>373.591401</ele>
        <time>2026-04-26T15:25:06.618Z</time>
      </trkpt>
      <trkpt lat="48.892554" lon="10.003045">
        <ele>373.626301</ele>
        <time>2026-04-26T15:25:09.853Z</time>
      </trkpt>
      <trkpt lat="48.892791" lon="10.002546">
        <ele>373.719162</ele>
        <time>2026-04-26T15:25:18.554Z</time>
      </trkpt>
      <trkpt lat="48.893018" lon="10.002350">
        <ele>373.779052</ele>
        <time>2026-04-26T15:25:24.262Z</time>
      </trkpt>
      <trkpt lat="48.893286" lon="10.002215">
        <ele>373.813999</ele>
        <time>2026-04-26T15:25:30.480Z</time>
      </trkpt>
      <trkpt lat="48.893420" lon="10.002189">
        <ele>373.825621</ele>
        <time>2026-04-26T15:25:33.490Z</time>
      </trkpt>
      <trkpt lat="48.894666" lon="10.002117">
        <ele>373.932896</ele>
        <time>2026-04-26T15:26:00.590Z</time>
      </trkpt>
      <trkpt lat="48.894782" lon="10.002081">
        <ele>373.943082</ele>
        <time>2026-04-26T15:26:02.919Z</time>
      </trkpt>
      <trkpt lat="48.894827" lon="10.002067">
        <ele>373.947033</ele>
        <time>2026-04-26T15:26:03.821Z</time>
      </trkpt>
      <trkpt lat="48.895048" lon="10.001850">
        <ele>373.592907</ele>
        <time>2026-04-26T15:26:08.795Z</time>
      </trkpt>
      <trkpt lat="48.895142" lon="10.001678">
        <ele>373.352242</ele>
        <time>2026-04-26T15:26:11.493Z</time>
      </trkpt>
      <trkpt lat="48.895233" lon="10.001370">
        <ele>372.988908</ele>
        <time>2026-04-26T15:26:15.499Z</time>
      </trkpt>
      <trkpt lat="48.895265" lon="10.001173">
        <ele>372.770564</ele>
        <time>2026-04-26T15:26:17.879Z</time>
      </trkpt>
      <trkpt lat="48.895269" lon="10.000906">
        <ele>372.483199</ele>
        <time>2026-04-26T15:26:20.929Z</time>
      </trkpt>
      <trkpt lat="48.895241" lon="10.000407">
        <ele>371.944327</ele>
        <time>2026-04-26T15:26:26.544Z</time>
      </trkpt>
      <trkpt lat="48.895228" lon="10.000096">
        <ele>371.609018</ele>
        <time>2026-04-26T15:26:30.071Z</time>
      </trkpt>
      <trkpt lat="48.895245" lon="9.999498">
        <ele>370.999600</ele>
        <time>2026-04-26T15:26:36.968Z</time>
      </trkpt>
      <trkpt lat="48.895291" lon="9.999215">
        <ele>370.943706</ele>
        <time>2026-04-26T15:26:40.508Z</time>
      </trkpt>
      <trkpt lat="48.895369" lon="9.998848">
        <ele>370.869755</ele>
        <time>2026-04-26T15:26:45.488Z</time>
      </trkpt>
      <trkpt lat="48.895458" lon="9.998485">
        <ele>370.795474</ele>
        <time>2026-04-26T15:26:50.688Z</time>
      </trkpt>
      <trkpt lat="48.895486" lon="9.998363">
        <ele>370.770698</ele>
        <time>2026-04-26T15:26:52.449Z</time>
      </trkpt>
      <trkpt lat="48.895302" lon="9.998084">
        <ele>370.694929</ele>
        <time>2026-04-26T15:26:57.909Z</time>
      </trkpt>
      <trkpt lat="48.895075" lon="9.997604">
        <ele>370.581560</ele>
        <time>2026-04-26T15:27:06.371Z</time>
      </trkpt>
      <trkpt lat="48.894916" lon="9.996998">
        <ele>370.470955</ele>
        <time>2026-04-26T15:27:15.900Z</time>
      </trkpt>
      <trkpt lat="48.894859" lon="9.996675">
        <ele>370.442445</ele>
        <time>2026-04-26T15:27:20.739Z</time>
      </trkpt>
      <trkpt lat="48.894826" lon="9.996351">
        <ele>370.414496</ele>
        <time>2026-04-26T15:27:25.468Z</time>
      </trkpt>
      <trkpt lat="48.894819" lon="9.995719">
        <ele>370.360612</ele>
        <time>2026-04-26T15:27:34.355Z</time>
      </trkpt>
      <trkpt lat="48.894883" lon="9.994920">
        <ele>370.291996</ele>
        <time>2026-04-26T15:27:45.114Z</time>
      </trkpt>
      <trkpt lat="48.895046" lon="9.993961">
        <ele>370.010712</ele>
        <time>2026-04-26T15:27:57.729Z</time>
      </trkpt>
      <trkpt lat="48.895165" lon="9.993605">
        <ele>369.816276</ele>
        <time>2026-04-26T15:28:02.771Z</time>
      </trkpt>
      <trkpt lat="48.895285" lon="9.993339">
        <ele>369.659216</ele>
        <time>2026-04-26T15:28:06.893Z</time>
      </trkpt>
      <trkpt lat="48.895425" lon="9.993115">
        <ele>369.508746</ele>
        <time>2026-04-26T15:28:10.878Z</time>
      </trkpt>
      <trkpt lat="48.895601" lon="9.992905">
        <ele>369.343097</ele>
        <time>2026-04-26T15:28:15.320Z</time>
      </trkpt>
      <trkpt lat="48.896123" lon="9.992451">
        <ele>368.902346</ele>
        <time>2026-04-26T15:28:27.443Z</time>
      </trkpt>
      <trkpt lat="48.896519" lon="9.992178">
        <ele>368.654976</ele>
        <time>2026-04-26T15:28:36.279Z</time>
      </trkpt>
      <trkpt lat="48.897229" lon="9.991825">
        <ele>368.229979</ele>
        <time>2026-04-26T15:28:51.271Z</time>
      </trkpt>
      <trkpt lat="48.897627" lon="9.991684">
        <ele>367.997471</ele>
        <time>2026-04-26T15:28:59.416Z</time>
      </trkpt>
      <trkpt lat="48.897887" lon="9.991610">
        <ele>367.877200</ele>
        <time>2026-04-26T15:29:04.669Z</time>
      </trkpt>
      <trkpt lat="48.898614" lon="9.991484">
        <ele>367.728341</ele>
        <time>2026-04-26T15:29:19.453Z</time>
      </trkpt>
      <trkpt lat="48.898902" lon="9.991470">
        <ele>367.669720</ele>
        <time>2026-04-26T15:29:25.349Z</time>
      </trkpt>
      <trkpt lat="48.899340" lon="9.991515">
        <ele>367.580409</ele>
        <time>2026-04-26T15:29:34.469Z</time>
      </trkpt>
      <trkpt lat="48.899756" lon="9.991622">
        <ele>367.727613</ele>
        <time>2026-04-26T15:29:43.578Z</time>
      </trkpt>
      <trkpt lat="48.900342" lon="9.991848">
        <ele>368.459444</ele>
        <time>2026-04-26T15:29:57.148Z</time>
      </trkpt>
      <trkpt lat="48.901408" lon="9.992443">
        <ele>369.807565</ele>
        <time>2026-04-26T15:30:23.405Z</time>
      </trkpt>
      <trkpt lat="48.901818" lon="9.992648">
        <ele>370.222484</ele>
        <time>2026-04-26T15:30:33.394Z</time>
      </trkpt>
      <trkpt lat="48.902163" lon="9.992779">
        <ele>370.564343</ele>
        <time>2026-04-26T15:30:41.472Z</time>
      </trkpt>
      <trkpt lat="48.902543" lon="9.992836">
        <ele>370.931447</ele>
        <time>2026-04-26T15:30:49.991Z</time>
      </trkpt>
      <trkpt lat="48.902814" lon="9.992821">
        <ele>371.192159</ele>
        <time>2026-04-26T15:30:55.877Z</time>
      </trkpt>
      <trkpt lat="48.903130" lon="9.992713">
        <ele>371.393408</ele>
        <time>2026-04-26T15:31:02.740Z</time>
      </trkpt>
      <trkpt lat="48.903433" lon="9.992508">
        <ele>371.202262</ele>
        <time>2026-04-26T15:31:09.710Z</time>
      </trkpt>
      <trkpt lat="48.903612" lon="9.992330">
        <ele>371.078998</ele>
        <time>2026-04-26T15:31:14.184Z</time>
      </trkpt>
      <trkpt lat="48.903883" lon="9.991950">
        <ele>370.866559</ele>
        <time>2026-04-26T15:31:21.825Z</time>
      </trkpt>
      <trkpt lat="48.904070" lon="9.991541">
        <ele>370.677793</ele>
        <time>2026-04-26T15:31:28.347Z</time>
      </trkpt>
      <trkpt lat="48.904288" lon="9.990885">
        <ele>370.399286</ele>
        <time>2026-04-26T15:31:37.495Z</time>
      </trkpt>
      <trkpt lat="48.904379" lon="9.990507">
        <ele>370.040076</ele>
        <time>2026-04-26T15:31:42.263Z</time>
      </trkpt>
      <trkpt lat="48.904487" lon="9.989875">
        <ele>369.454372</ele>
        <time>2026-04-26T15:31:49.778Z</time>
      </trkpt>
      <trkpt lat="48.904511" lon="9.989570">
        <ele>369.178855</ele>
        <time>2026-04-26T15:31:53.267Z</time>
      </trkpt>
      <trkpt lat="48.904526" lon="9.988695">
        <ele>368.393774</ele>
        <time>2026-04-26T15:32:03.353Z</time>
      </trkpt>
      <trkpt lat="48.904593" lon="9.988687">
        <ele>368.302069</ele>
        <time>2026-04-26T15:32:04.626Z</time>
      </trkpt>
      <trkpt lat="48.904652" lon="9.988676">
        <ele>368.220959</ele>
        <time>2026-04-26T15:32:05.766Z</time>
      </trkpt>
      <trkpt lat="48.904682" lon="9.988436">
        <ele>368.001839</ele>
        <time>2026-04-26T15:32:08.958Z</time>
      </trkpt>
      <trkpt lat="48.904786" lon="9.988282">
        <ele>368.161724</ele>
        <time>2026-04-26T15:32:12.023Z</time>
      </trkpt>
      <trkpt lat="48.904954" lon="9.988216">
        <ele>368.531060</ele>
        <time>2026-04-26T15:32:15.885Z</time>
      </trkpt>
      <trkpt lat="48.905244" lon="9.988276">
        <ele>369.154039</ele>
        <time>2026-04-26T15:32:22.730Z</time>
      </trkpt>
      <trkpt lat="48.905482" lon="9.988602">
        <ele>369.835726</ele>
        <time>2026-04-26T15:32:30.622Z</time>
      </trkpt>
      <trkpt lat="48.905713" lon="9.989078">
        <ele>370.663566</ele>
        <time>2026-04-26T15:32:40.611Z</time>
      </trkpt>
      <trkpt lat="48.905842" lon="9.989578">
        <ele>371.415092</ele>
        <time>2026-04-26T15:32:49.089Z</time>
      </trkpt>
      <trkpt lat="48.905960" lon="9.990318">
        <ele>372.020255</ele>
        <time>2026-04-26T15:33:00.694Z</time>
      </trkpt>
      <trkpt lat="48.906079" lon="9.990649">
        <ele>372.205111</ele>
        <time>2026-04-26T15:33:06.252Z</time>
      </trkpt>
      <trkpt lat="48.906191" lon="9.990827">
        <ele>372.325846</ele>
        <time>2026-04-26T15:33:09.769Z</time>
      </trkpt>
      <trkpt lat="48.906530" lon="9.991265">
        <ele>372.657382</ele>
        <time>2026-04-26T15:33:18.788Z</time>
      </trkpt>
      <trkpt lat="48.906656" lon="9.991479">
        <ele>372.798152</ele>
        <time>2026-04-26T15:33:22.436Z</time>
      </trkpt>
      <trkpt lat="48.907033" lon="9.992479">
        <ele>374.610494</ele>
        <time>2026-04-26T15:33:38.668Z</time>
      </trkpt>
      <trkpt lat="48.907604" lon="9.993551">
        <ele>378.660209</ele>
        <time>2026-04-26T15:34:02.777Z</time>
      </trkpt>
      <trkpt lat="48.907835" lon="9.993745">
        <ele>379.838417</ele>
        <time>2026-04-26T15:34:11.210Z</time>
      </trkpt>
      <trkpt lat="48.908107" lon="9.993685">
        <ele>381.065689</ele>
        <time>2026-04-26T15:34:19.831Z</time>
      </trkpt>
      <trkpt lat="48.908361" lon="9.993422">
        <ele>381.578473</ele>
        <time>2026-04-26T15:34:28.940Z</time>
      </trkpt>
      <trkpt lat="48.908660" lon="9.993184">
        <ele>382.084115</ele>
        <time>2026-04-26T15:34:38.239Z</time>
      </trkpt>
      <trkpt lat="48.908811" lon="9.993129">
        <ele>382.316772</ele>
        <time>2026-04-26T15:34:42.215Z</time>
      </trkpt>
      <trkpt lat="48.909230" lon="9.993199">
        <ele>382.948389</ele>
        <time>2026-04-26T15:34:56.543Z</time>
      </trkpt>
      <trkpt lat="48.909274" lon="9.993278">
        <ele>383.050370</ele>
        <time>2026-04-26T15:34:58.778Z</time>
      </trkpt>
      <trkpt lat="48.909269" lon="9.993383">
        <ele>383.154050</ele>
        <time>2026-04-26T15:35:00.965Z</time>
      </trkpt>
      <trkpt lat="48.909216" lon="9.993466">
        <ele>383.268019</ele>
        <time>2026-04-26T15:35:03.332Z</time>
      </trkpt>
      <trkpt lat="48.909130" lon="9.993469">
        <ele>383.396918</ele>
        <time>2026-04-26T15:35:05.917Z</time>
      </trkpt>
      <trkpt lat="48.908982" lon="9.993391">
        <ele>383.631614</ele>
        <time>2026-04-26T15:35:10.368Z</time>
      </trkpt>
      <trkpt lat="48.908899" lon="9.993401">
        <ele>383.756373</ele>
        <time>2026-04-26T15:35:12.649Z</time>
      </trkpt>
      <trkpt lat="48.908807" lon="9.993463">
        <ele>383.681599</ele>
        <time>2026-04-26T15:35:15.409Z</time>
      </trkpt>
      <trkpt lat="48.908718" lon="9.993728">
        <ele>382.994513</ele>
        <time>2026-04-26T15:35:20.621Z</time>
      </trkpt>
      <trkpt lat="48.908647" lon="9.994217">
        <ele>381.838279</ele>
        <time>2026-04-26T15:35:29.453Z</time>
      </trkpt>
      <trkpt lat="48.908644" lon="9.994472">
        <ele>381.249435</ele>
        <time>2026-04-26T15:35:34.071Z</time>
      </trkpt>
      <trkpt lat="48.908675" lon="9.994776">
        <ele>380.539155</ele>
        <time>2026-04-26T15:35:39.741Z</time>
      </trkpt>
      <trkpt lat="48.908802" lon="9.995080">
        <ele>379.707491</ele>
        <time>2026-04-26T15:35:46.457Z</time>
      </trkpt>
      <trkpt lat="48.909407" lon="9.996082">
        <ele>377.122709</ele>
        <time>2026-04-26T15:36:15.211Z</time>
      </trkpt>
      <trkpt lat="48.909475" lon="9.996407">
        <ele>376.794057</ele>
        <time>2026-04-26T15:36:22.972Z</time>
      </trkpt>
      <trkpt lat="48.909461" lon="9.997344">
        <ele>375.890940</ele>
        <time>2026-04-26T15:36:43.939Z</time>
      </trkpt>
      <trkpt lat="48.909391" lon="9.998128">
        <ele>375.128546</ele>
        <time>2026-04-26T15:37:00.337Z</time>
      </trkpt>
      <trkpt lat="48.909297" lon="9.998456">
        <ele>374.865594</ele>
        <time>2026-04-26T15:37:07.593Z</time>
      </trkpt>
      <trkpt lat="48.909075" lon="9.998927">
        <ele>374.760936</ele>
        <time>2026-04-26T15:37:19.669Z</time>
      </trkpt>
      <trkpt lat="48.908591" lon="9.999618">
        <ele>374.578587</ele>
        <time>2026-04-26T15:37:42.371Z</time>
      </trkpt>
      <trkpt lat="48.908137" lon="10.000136">
        <ele>374.422680</ele>
        <time>2026-04-26T15:38:01.699Z</time>
      </trkpt>
      <trkpt lat="48.908059" lon="10.000463">
        <ele>374.583170</ele>
        <time>2026-04-26T15:38:09.392Z</time>
      </trkpt>
      <trkpt lat="48.908076" lon="10.001398">
        <ele>375.652896</ele>
        <time>2026-04-26T15:38:29.971Z</time>
      </trkpt>
      <trkpt lat="48.908393" lon="10.002570">
        <ele>377.102312</ele>
        <time>2026-04-26T15:38:57.923Z</time>
      </trkpt>
      <trkpt lat="48.908463" lon="10.003028">
        <ele>377.554227</ele>
        <time>2026-04-26T15:39:08.432Z</time>
      </trkpt>
      <trkpt lat="48.908617" lon="10.005009">
        <ele>378.204896</ele>
        <time>2026-04-26T15:39:53.483Z</time>
      </trkpt>
      <trkpt lat="48.908698" lon="10.005565">
        <ele>378.390654</ele>
        <time>2026-04-26T15:40:06.419Z</time>
      </trkpt>
      <trkpt lat="48.908940" lon="10.006429">
        <ele>378.089546</ele>
        <time>2026-04-26T15:40:27.807Z</time>
      </trkpt>
      <trkpt lat="48.909028" lon="10.006917">
        <ele>377.902068</ele>
        <time>2026-04-26T15:40:39.285Z</time>
      </trkpt>
      <trkpt lat="48.909105" lon="10.007795">
        <ele>377.573899</ele>
        <time>2026-04-26T15:40:59.288Z</time>
      </trkpt>
      <trkpt lat="48.909256" lon="10.008664">
        <ele>377.406655</ele>
        <time>2026-04-26T15:41:19.251Z</time>
      </trkpt>
      <trkpt lat="48.909292" lon="10.009107">
        <ele>377.414970</ele>
        <time>2026-04-26T15:41:29.174Z</time>
      </trkpt>
      <trkpt lat="48.909299" lon="10.010445">
        <ele>377.439892</ele>
        <time>2026-04-26T15:41:59.609Z</time>
      </trkpt>
      <trkpt lat="48.909350" lon="10.010775">
        <ele>377.446206</ele>
        <time>2026-04-26T15:42:07.146Z</time>
      </trkpt>
      <trkpt lat="48.909504" lon="10.010987">
        <ele>377.534824</ele>
        <time>2026-04-26T15:42:14.143Z</time>
      </trkpt>
      <trkpt lat="48.909661" lon="10.011011">
        <ele>377.693489</ele>
        <time>2026-04-26T15:42:19.447Z</time>
      </trkpt>
      <trkpt lat="48.910172" lon="10.010927">
        <ele>378.210313</ele>
        <time>2026-04-26T15:42:36.788Z</time>
      </trkpt>
      <trkpt lat="48.910667" lon="10.011022">
        <ele>378.712002</ele>
        <time>2026-04-26T15:42:53.683Z</time>
      </trkpt>
      <trkpt lat="48.911317" lon="10.011335">
        <ele>379.365644</ele>
        <time>2026-04-26T15:43:17.099Z</time>
      </trkpt>
      <trkpt lat="48.911687" lon="10.011557">
        <ele>379.673916</ele>
        <time>2026-04-26T15:43:30.868Z</time>
      </trkpt>
      <trkpt lat="48.912557" lon="10.012333">
        <ele>380.455560</ele>
        <time>2026-04-26T15:44:05.566Z</time>
      </trkpt>
      <trkpt lat="48.913033" lon="10.012591">
        <ele>381.358036</ele>
        <time>2026-04-26T15:44:22.499Z</time>
      </trkpt>
      <trkpt lat="48.913375" lon="10.012607">
        <ele>382.318688</ele>
        <time>2026-04-26T15:44:34.007Z</time>
      </trkpt>
      <trkpt lat="48.913789" lon="10.012553">
        <ele>383.485297</ele>
        <time>2026-04-26T15:44:48.123Z</time>
      </trkpt>
      <trkpt lat="48.914563" lon="10.012371">
        <ele>385.684172</ele>
        <time>2026-04-26T15:45:14.598Z</time>
      </trkpt>
      <trkpt lat="48.915174" lon="10.012322">
        <ele>385.950752</ele>
        <time>2026-04-26T15:45:35.184Z</time>
      </trkpt>
      <trkpt lat="48.915493" lon="10.012383">
        <ele>386.082710</ele>
        <time>2026-04-26T15:45:46.300Z</time>
      </trkpt>
      <trkpt lat="48.916153" lon="10.012702">
        <ele>386.366931</ele>
        <time>2026-04-26T15:46:08.673Z</time>
      </trkpt>
      <trkpt lat="48.917283" lon="10.013074">
        <ele>387.260892</ele>
        <time>2026-04-26T15:46:48.569Z</time>
      </trkpt>
      <trkpt lat="48.917563" lon="10.012910">
        <ele>387.512851</ele>
        <time>2026-04-26T15:46:55.736Z</time>
      </trkpt>
      <trkpt lat="48.917955" lon="10.012682">
        <ele>387.865278</ele>
        <time>2026-04-26T15:47:05.711Z</time>
      </trkpt>
      <trkpt lat="48.918117" lon="10.012596">
        <ele>388.010307</ele>
        <time>2026-04-26T15:47:09.864Z</time>
      </trkpt>
      <trkpt lat="48.918291" lon="10.012592">
        <ele>388.158805</ele>
        <time>2026-04-26T15:47:14.058Z</time>
      </trkpt>
      <trkpt lat="48.918673" lon="10.012835">
        <ele>388.512117</ele>
        <time>2026-04-26T15:47:23.947Z</time>
      </trkpt>
      <trkpt lat="48.919948" lon="10.013782">
        <ele>390.021178</ele>
        <time>2026-04-26T15:47:55.032Z</time>
      </trkpt>
      <trkpt lat="48.920285" lon="10.013935">
        <ele>390.699163</ele>
        <time>2026-04-26T15:48:03.623Z</time>
      </trkpt>
      <trkpt lat="48.920509" lon="10.013965">
        <ele>391.132674</ele>
        <time>2026-04-26T15:48:09.199Z</time>
      </trkpt>
      <trkpt lat="48.920661" lon="10.013946">
        <ele>391.426696</ele>
        <time>2026-04-26T15:48:12.979Z</time>
      </trkpt>
      <trkpt lat="48.920881" lon="10.013747">
        <ele>391.920089</ele>
        <time>2026-04-26T15:48:19.317Z</time>
      </trkpt>
      <trkpt lat="48.921032" lon="10.013472">
        <ele>392.374077</ele>
        <time>2026-04-26T15:48:25.142Z</time>
      </trkpt>
      <trkpt lat="48.921160" lon="10.013161">
        <ele>392.838952</ele>
        <time>2026-04-26T15:48:30.950Z</time>
      </trkpt>
      <trkpt lat="48.921177" lon="10.012993">
        <ele>392.962917</ele>
        <time>2026-04-26T15:48:33.605Z</time>
      </trkpt>
      <trkpt lat="48.921276" lon="10.012899">
        <ele>392.984167</ele>
        <time>2026-04-26T15:48:37.546Z</time>
      </trkpt>
      <trkpt lat="48.921746" lon="10.012289">
        <ele>393.096659</ele>
        <time>2026-04-26T15:48:58.589Z</time>
      </trkpt>
      <trkpt lat="48.922527" lon="10.011874">
        <ele>393.247308</ele>
        <time>2026-04-26T15:49:27.199Z</time>
      </trkpt>
      <trkpt lat="48.923661" lon="10.012030">
        <ele>391.237372</ele>
        <time>2026-04-26T15:50:04.141Z</time>
      </trkpt>
      <trkpt lat="48.923873" lon="10.012258">
        <ele>390.681272</ele>
        <time>2026-04-26T15:50:11.821Z</time>
      </trkpt>
      <trkpt lat="48.924640" lon="10.013642">
        <ele>388.573685</ele>
        <time>2026-04-26T15:50:47.087Z</time>
      </trkpt>
      <trkpt lat="48.925184" lon="10.015003">
        <ele>387.094753</ele>
        <time>2026-04-26T15:51:22.296Z</time>
      </trkpt>
      <trkpt lat="48.925405" lon="10.015357">
        <ele>387.110562</ele>
        <time>2026-04-26T15:51:33.244Z</time>
      </trkpt>
      <trkpt lat="48.925688" lon="10.015491">
        <ele>387.493464</ele>
        <time>2026-04-26T15:51:43.320Z</time>
      </trkpt>
      <trkpt lat="48.926611" lon="10.015310">
        <ele>388.695777</ele>
        <time>2026-04-26T15:52:14.657Z</time>
      </trkpt>
      <trkpt lat="48.926711" lon="10.015248">
        <ele>388.835278</ele>
        <time>2026-04-26T15:52:18.307Z</time>
      </trkpt>
      <trkpt lat="48.927793" lon="10.014583">
        <ele>390.174737</ele>
        <time>2026-04-26T15:52:57.513Z</time>
      </trkpt>
      <trkpt lat="48.928082" lon="10.014541">
        <ele>390.494144</ele>
        <time>2026-04-26T15:53:07.315Z</time>
      </trkpt>
      <trkpt lat="48.928472" lon="10.014608">
        <ele>390.925950</ele>
        <time>2026-04-26T15:53:20.684Z</time>
      </trkpt>
      <trkpt lat="48.928901" lon="10.014767">
        <ele>391.312894</ele>
        <time>2026-04-26T15:53:35.959Z</time>
      </trkpt>
      <trkpt lat="48.929409" lon="10.015022">
        <ele>391.640137</ele>
        <time>2026-04-26T15:53:53.183Z</time>
      </trkpt>
      <trkpt lat="48.929589" lon="10.015167">
        <ele>391.764727</ele>
        <time>2026-04-26T15:53:59.534Z</time>
      </trkpt>
      <trkpt lat="48.929924" lon="10.015523">
        <ele>392.014676</ele>
        <time>2026-04-26T15:54:13.587Z</time>
      </trkpt>
      <trkpt lat="48.930196" lon="10.015633">
        <ele>392.186851</ele>
        <time>2026-04-26T15:54:23.020Z</time>
      </trkpt>
      <trkpt lat="48.930334" lon="10.015581">
        <ele>392.273824</ele>
        <time>2026-04-26T15:54:27.896Z</time>
      </trkpt>
      <trkpt lat="48.930394" lon="10.015479">
        <ele>392.850719</ele>
        <time>2026-04-26T15:54:30.261Z</time>
      </trkpt>
      <trkpt lat="48.930430" lon="10.015261">
        <ele>394.137843</ele>
        <time>2026-04-26T15:54:34.395Z</time>
      </trkpt>
      <trkpt lat="48.930448" lon="10.014836">
        <ele>396.576493</ele>
        <time>2026-04-26T15:54:43.135Z</time>
      </trkpt>
      <trkpt lat="48.930623" lon="10.014292">
        <ele>400.044878</ele>
        <time>2026-04-26T15:54:57.492Z</time>
      </trkpt>
      <trkpt lat="48.930646" lon="10.013507">
        <ele>404.544327</ele>
        <time>2026-04-26T15:55:18.661Z</time>
      </trkpt>
      <trkpt lat="48.930779" lon="10.012347">
        <ele>409.724564</ele>
        <time>2026-04-26T15:55:46.598Z</time>
      </trkpt>
      <trkpt lat="48.930872" lon="10.009725">
        <ele>416.353260</ele>
        <time>2026-04-26T15:56:28.241Z</time>
      </trkpt>
      <trkpt lat="48.930872" lon="10.008856">
        <ele>416.513277</ele>
        <time>2026-04-26T15:56:40.473Z</time>
      </trkpt>
      <trkpt lat="48.930814" lon="10.008100">
        <ele>416.653433</ele>
        <time>2026-04-26T15:56:50.543Z</time>
      </trkpt>
      <trkpt lat="48.930741" lon="10.007755">
        <ele>416.720174</ele>
        <time>2026-04-26T15:56:55.092Z</time>
      </trkpt>
      <trkpt lat="48.930483" lon="10.006889">
        <ele>416.585899</ele>
        <time>2026-04-26T15:57:07.101Z</time>
      </trkpt>
      <trkpt lat="48.930459" lon="10.006637">
        <ele>416.515849</ele>
        <time>2026-04-26T15:57:10.319Z</time>
      </trkpt>
      <trkpt lat="48.930479" lon="10.006476">
        <ele>416.470773</ele>
        <time>2026-04-26T15:57:12.376Z</time>
      </trkpt>
      <trkpt lat="48.930543" lon="10.006327">
        <ele>416.421799</ele>
        <time>2026-04-26T15:57:14.643Z</time>
      </trkpt>
      <trkpt lat="48.930880" lon="10.006060">
        <ele>416.262711</ele>
        <time>2026-04-26T15:57:22.194Z</time>
      </trkpt>
      <trkpt lat="48.930965" lon="10.005864">
        <ele>416.198103</ele>
        <time>2026-04-26T15:57:25.339Z</time>
      </trkpt>
      <trkpt lat="48.931008" lon="10.005669">
        <ele>416.141518</ele>
        <time>2026-04-26T15:57:28.146Z</time>
      </trkpt>
      <trkpt lat="48.931067" lon="10.005109">
        <ele>416.223724</ele>
        <time>2026-04-26T15:57:36.189Z</time>
      </trkpt>
      <trkpt lat="48.931128" lon="10.004158">
        <ele>417.883981</ele>
        <time>2026-04-26T15:57:50.765Z</time>
      </trkpt>
      <trkpt lat="48.931099" lon="10.003733">
        <ele>418.626407</ele>
        <time>2026-04-26T15:57:57.543Z</time>
      </trkpt>
      <trkpt lat="48.931062" lon="10.003587">
        <ele>418.898308</ele>
        <time>2026-04-26T15:58:00.059Z</time>
      </trkpt>
      <trkpt lat="48.930900" lon="10.003148">
        <ele>419.773185</ele>
        <time>2026-04-26T15:58:08.256Z</time>
      </trkpt>
      <trkpt lat="48.930449" lon="10.001492">
        <ele>424.338235</ele>
        <time>2026-04-26T15:58:38.551Z</time>
      </trkpt>
      <trkpt lat="48.930399" lon="10.001204">
        <ele>425.211089</ele>
        <time>2026-04-26T15:58:43.645Z</time>
      </trkpt>
      <trkpt lat="48.930389" lon="10.000544">
        <ele>427.145508</ele>
        <time>2026-04-26T15:58:55.013Z</time>
      </trkpt>
      <trkpt lat="48.930479" lon="9.999892">
        <ele>429.099997</ele>
        <time>2026-04-26T15:59:06.568Z</time>
      </trkpt>
      <trkpt lat="48.930493" lon="9.999557">
        <ele>430.091148</ele>
        <time>2026-04-26T15:59:12.413Z</time>
      </trkpt>
      <trkpt lat="48.930489" lon="9.999222">
        <ele>431.080464</ele>
        <time>2026-04-26T15:59:18.227Z</time>
      </trkpt>
      <trkpt lat="48.930460" lon="9.998951">
        <ele>431.891189</ele>
        <time>2026-04-26T15:59:22.980Z</time>
      </trkpt>
      <trkpt lat="48.930394" lon="9.998644">
        <ele>432.844966</ele>
        <time>2026-04-26T15:59:28.553Z</time>
      </trkpt>
      <trkpt lat="48.929664" lon="9.996462">
        <ele>439.158207</ele>
        <time>2026-04-26T16:00:09.794Z</time>
      </trkpt>
      <trkpt lat="48.929559" lon="9.995984">
        <ele>440.219231</ele>
        <time>2026-04-26T16:00:17.827Z</time>
      </trkpt>
      <trkpt lat="48.929482" lon="9.995488">
        <ele>441.292147</ele>
        <time>2026-04-26T16:00:25.850Z</time>
      </trkpt>
      <trkpt lat="48.929453" lon="9.995019">
        <ele>442.283834</ele>
        <time>2026-04-26T16:00:33.166Z</time>
      </trkpt>
      <trkpt lat="48.929461" lon="9.994283">
        <ele>443.480112</ele>
        <time>2026-04-26T16:00:44.523Z</time>
      </trkpt>
      <trkpt lat="48.929442" lon="9.994177">
        <ele>443.642687</ele>
        <time>2026-04-26T16:00:46.227Z</time>
      </trkpt>
      <trkpt lat="48.929441" lon="9.994068">
        <ele>443.803983</ele>
        <time>2026-04-26T16:00:47.919Z</time>
      </trkpt>
      <trkpt lat="48.929335" lon="9.993534">
        <ele>444.629391</ele>
        <time>2026-04-26T16:00:56.567Z</time>
      </trkpt>
      <trkpt lat="48.929028" lon="9.992327">
        <ele>446.544498</ele>
        <time>2026-04-26T16:01:16.612Z</time>
      </trkpt>
      <trkpt lat="48.929192" lon="9.992156">
        <ele>446.869588</ele>
        <time>2026-04-26T16:01:21.304Z</time>
      </trkpt>
      <trkpt lat="48.929051" lon="9.991846">
        <ele>447.197195</ele>
        <time>2026-04-26T16:01:27.304Z</time>
      </trkpt>
      <trkpt lat="48.928829" lon="9.991511">
        <ele>447.610630</ele>
        <time>2026-04-26T16:01:34.857Z</time>
      </trkpt>
      <trkpt lat="48.928606" lon="9.991360">
        <ele>447.933421</ele>
        <time>2026-04-26T16:01:40.637Z</time>
      </trkpt>
      <trkpt lat="48.928455" lon="9.991304">
        <ele>448.138965</ele>
        <time>2026-04-26T16:01:44.290Z</time>
      </trkpt>
      <trkpt lat="48.927829" lon="9.991213">
        <ele>448.970635</ele>
        <time>2026-04-26T16:01:58.679Z</time>
      </trkpt>
      <trkpt lat="48.927766" lon="9.990082">
        <ele>449.312202</ele>
        <time>2026-04-26T16:02:24.500Z</time>
      </trkpt>
      <trkpt lat="48.927808" lon="9.988941">
        <ele>449.580184</ele>
        <time>2026-04-26T16:02:50.473Z</time>
      </trkpt>
      <trkpt lat="48.927881" lon="9.988372">
        <ele>449.717020</ele>
        <time>2026-04-26T16:03:03.506Z</time>
      </trkpt>
      <trkpt lat="48.927881" lon="9.988185">
        <ele>449.908438</ele>
        <time>2026-04-26T16:03:07.662Z</time>
      </trkpt>
      <trkpt lat="48.927838" lon="9.987988">
        <ele>450.120928</ele>
        <time>2026-04-26T16:03:12.282Z</time>
      </trkpt>
      <trkpt lat="48.927637" lon="9.987558">
        <ele>450.661121</ele>
        <time>2026-04-26T16:03:23.953Z</time>
      </trkpt>
      <trkpt lat="48.927595" lon="9.987158">
        <ele>451.075768</ele>
        <time>2026-04-26T16:03:32.881Z</time>
      </trkpt>
      <trkpt lat="48.927587" lon="9.986744">
        <ele>451.499733</ele>
        <time>2026-04-26T16:03:42.006Z</time>
      </trkpt>
      <trkpt lat="48.927484" lon="9.985879">
        <ele>452.399597</ele>
        <time>2026-04-26T16:04:01.468Z</time>
      </trkpt>
      <trkpt lat="48.927585" lon="9.985013">
        <ele>453.451308</ele>
        <time>2026-04-26T16:04:20.920Z</time>
      </trkpt>
      <trkpt lat="48.927500" lon="9.984105">
        <ele>454.571961</ele>
        <time>2026-04-26T16:04:41.214Z</time>
      </trkpt>
      <trkpt lat="48.927627" lon="9.983078">
        <ele>455.848843</ele>
        <time>2026-04-26T16:05:04.237Z</time>
      </trkpt>
      <trkpt lat="48.927522" lon="9.982046">
        <ele>458.210069</ele>
        <time>2026-04-26T16:05:27.223Z</time>
      </trkpt>
      <trkpt lat="48.927542" lon="9.981542">
        <ele>459.357664</ele>
        <time>2026-04-26T16:05:38.445Z</time>
      </trkpt>
      <trkpt lat="48.927506" lon="9.980759">
        <ele>461.141643</ele>
        <time>2026-04-26T16:05:56.305Z</time>
      </trkpt>
      <trkpt lat="48.927570" lon="9.980588">
        <ele>461.588934</ele>
        <time>2026-04-26T16:06:00.828Z</time>
      </trkpt>
      <trkpt lat="48.927883" lon="9.980254">
        <ele>462.764238</ele>
        <time>2026-04-26T16:06:14.074Z</time>
      </trkpt>
      <trkpt lat="48.928059" lon="9.979960">
        <ele>463.507282</ele>
        <time>2026-04-26T16:06:23.073Z</time>
      </trkpt>
      <trkpt lat="48.928184" lon="9.979619">
        <ele>464.236773</ele>
        <time>2026-04-26T16:06:31.837Z</time>
      </trkpt>
      <trkpt lat="48.928290" lon="9.979005">
        <ele>465.422763</ele>
        <time>2026-04-26T16:06:45.894Z</time>
      </trkpt>
      <trkpt lat="48.928291" lon="9.978577">
        <ele>466.222340</ele>
        <time>2026-04-26T16:06:55.315Z</time>
      </trkpt>
      <trkpt lat="48.928366" lon="9.978175">
        <ele>467.003032</ele>
        <time>2026-04-26T16:07:04.644Z</time>
      </trkpt>
      <trkpt lat="48.928163" lon="9.978125">
        <ele>467.358760</ele>
        <time>2026-04-26T16:07:11.788Z</time>
      </trkpt>
      <trkpt lat="48.928079" lon="9.977272">
        <ele>468.019441</ele>
        <time>2026-04-26T16:07:31.410Z</time>
      </trkpt>
      <trkpt lat="48.927971" lon="9.976887">
        <ele>468.340100</ele>
        <time>2026-04-26T16:07:40.918Z</time>
      </trkpt>
      <trkpt lat="48.927716" lon="9.976430">
        <ele>468.799365</ele>
        <time>2026-04-26T16:07:54.230Z</time>
      </trkpt>
      <trkpt lat="48.927569" lon="9.976263">
        <ele>469.013223</ele>
        <time>2026-04-26T16:07:58.684Z</time>
      </trkpt>
      <trkpt lat="48.927526" lon="9.976169">
        <ele>469.100960</ele>
        <time>2026-04-26T16:08:00.561Z</time>
      </trkpt>
      <trkpt lat="48.927382" lon="9.975344">
        <ele>470.254083</ele>
        <time>2026-04-26T16:08:14.597Z</time>
      </trkpt>
      <trkpt lat="48.927235" lon="9.974818">
        <ele>471.168982</ele>
        <time>2026-04-26T16:08:24.074Z</time>
      </trkpt>
      <trkpt lat="48.926871" lon="9.974719">
        <ele>472.069778</ele>
        <time>2026-04-26T16:08:36.541Z</time>
      </trkpt>
      <trkpt lat="48.926603" lon="9.974870">
        <ele>472.765958</ele>
        <time>2026-04-26T16:08:46.106Z</time>
      </trkpt>
      <trkpt lat="48.926547" lon="9.975148">
        <ele>473.231367</ele>
        <time>2026-04-26T16:08:52.542Z</time>
      </trkpt>
      <trkpt lat="48.926335" lon="9.975105">
        <ele>473.668315</ele>
        <time>2026-04-26T16:08:59.751Z</time>
      </trkpt>
      <trkpt lat="48.926156" lon="9.974959">
        <ele>473.601576</ele>
        <time>2026-04-26T16:09:06.731Z</time>
      </trkpt>
      <trkpt lat="48.926335" lon="9.975105">
        <ele>473.534837</ele>
        <time>2026-04-26T16:09:13.759Z</time>
      </trkpt>
      <trkpt lat="48.926547" lon="9.975148">
        <ele>473.464552</ele>
        <time>2026-04-26T16:09:21.121Z</time>
      </trkpt>
      <trkpt lat="48.926603" lon="9.974870">
        <ele>473.401769</ele>
        <time>2026-04-26T16:09:27.582Z</time>
      </trkpt>
      <trkpt lat="48.926871" lon="9.974719">
        <ele>473.307856</ele>
        <time>2026-04-26T16:09:37.069Z</time>
      </trkpt>
      <trkpt lat="48.927235" lon="9.974818">
        <ele>473.186341</ele>
        <time>2026-04-26T16:09:49.524Z</time>
      </trkpt>
      <trkpt lat="48.927203" lon="9.974693">
        <ele>473.157375</ele>
        <time>2026-04-26T16:09:51.412Z</time>
      </trkpt>
      <trkpt lat="48.927731" lon="9.974845">
        <ele>473.096450</ele>
        <time>2026-04-26T16:10:09.980Z</time>
      </trkpt>
      <trkpt lat="48.927930" lon="9.974876">
        <ele>473.102149</ele>
        <time>2026-04-26T16:10:16.909Z</time>
      </trkpt>
      <trkpt lat="48.928302" lon="9.974862">
        <ele>473.112748</ele>
        <time>2026-04-26T16:10:29.664Z</time>
      </trkpt>
      <trkpt lat="48.929198" lon="9.974592">
        <ele>473.110351</ele>
        <time>2026-04-26T16:11:01.033Z</time>
      </trkpt>
      <trkpt lat="48.929795" lon="9.974277">
        <ele>471.465372</ele>
        <time>2026-04-26T16:11:17.605Z</time>
      </trkpt>
      <trkpt lat="48.929934" lon="9.974135">
        <ele>471.029547</ele>
        <time>2026-04-26T16:11:20.520Z</time>
      </trkpt>
      <trkpt lat="48.930074" lon="9.974064">
        <ele>470.645370</ele>
        <time>2026-04-26T16:11:23.000Z</time>
      </trkpt>
      <trkpt lat="48.930184" lon="9.974081">
        <ele>470.357521</ele>
        <time>2026-04-26T16:11:24.807Z</time>
      </trkpt>
      <trkpt lat="48.930625" lon="9.974318">
        <ele>469.139953</ele>
        <time>2026-04-26T16:11:32.203Z</time>
      </trkpt>
      <trkpt lat="48.930716" lon="9.974343">
        <ele>468.899214</ele>
        <time>2026-04-26T16:11:33.625Z</time>
      </trkpt>
      <trkpt lat="48.930868" lon="9.974325">
        <ele>468.502298</ele>
        <time>2026-04-26T16:11:35.912Z</time>
      </trkpt>
      <trkpt lat="48.931360" lon="9.973993">
        <ele>465.732633</ele>
        <time>2026-04-26T16:11:43.943Z</time>
      </trkpt>
      <trkpt lat="48.931537" lon="9.973841">
        <ele>464.669033</ele>
        <time>2026-04-26T16:11:46.947Z</time>
      </trkpt>
      <trkpt lat="48.931809" lon="9.973649">
        <ele>463.099879</ele>
        <time>2026-04-26T16:11:51.368Z</time>
      </trkpt>
      <trkpt lat="48.931790" lon="9.973496">
        <ele>462.564512</ele>
        <time>2026-04-26T16:11:52.874Z</time>
      </trkpt>
      <trkpt lat="48.931732" lon="9.973142">
        <ele>461.310093</ele>
        <time>2026-04-26T16:11:56.369Z</time>
      </trkpt>
      <trkpt lat="48.931649" lon="9.972847">
        <ele>460.206705</ele>
        <time>2026-04-26T16:11:59.445Z</time>
      </trkpt>
      <trkpt lat="48.931360" lon="9.972216">
        <ele>458.216174</ele>
        <time>2026-04-26T16:12:07.184Z</time>
      </trkpt>
      <trkpt lat="48.931276" lon="9.972034">
        <ele>457.789347</ele>
        <time>2026-04-26T16:12:09.729Z</time>
      </trkpt>
      <trkpt lat="48.931221" lon="9.971817">
        <ele>457.343013</ele>
        <time>2026-04-26T16:12:12.380Z</time>
      </trkpt>
      <trkpt lat="48.931272" lon="9.971575">
        <ele>456.855311</ele>
        <time>2026-04-26T16:12:15.293Z</time>
      </trkpt>
      <trkpt lat="48.931452" lon="9.971342">
        <ele>456.165123</ele>
        <time>2026-04-26T16:12:19.403Z</time>
      </trkpt>
      <trkpt lat="48.931849" lon="9.970820">
        <ele>454.632757</ele>
        <time>2026-04-26T16:12:28.419Z</time>
      </trkpt>
      <trkpt lat="48.932230" lon="9.971190">
        <ele>453.375590</ele>
        <time>2026-04-26T16:12:36.619Z</time>
      </trkpt>
      <trkpt lat="48.932621" lon="9.971502">
        <ele>452.256548</ele>
        <time>2026-04-26T16:12:44.369Z</time>
      </trkpt>
      <trkpt lat="48.932899" lon="9.971770">
        <ele>451.422434</ele>
        <time>2026-04-26T16:12:49.841Z</time>
      </trkpt>
      <trkpt lat="48.933476" lon="9.972045">
        <ele>449.889824</ele>
        <time>2026-04-26T16:13:00.246Z</time>
      </trkpt>
      <trkpt lat="48.933666" lon="9.972300">
        <ele>449.247745</ele>
        <time>2026-04-26T16:13:04.917Z</time>
      </trkpt>
      <trkpt lat="48.933803" lon="9.972726">
        <ele>449.570823</ele>
        <time>2026-04-26T16:13:11.096Z</time>
      </trkpt>
      <trkpt lat="48.934010" lon="9.974096">
        <ele>450.606737</ele>
        <time>2026-04-26T16:13:32.449Z</time>
      </trkpt>
      <trkpt lat="48.934500" lon="9.975440">
        <ele>452.722628</ele>
        <time>2026-04-26T16:13:57.871Z</time>
      </trkpt>
      <trkpt lat="48.934662" lon="9.975777">
        <ele>453.644780</ele>
        <time>2026-04-26T16:14:05.417Z</time>
      </trkpt>
      <trkpt lat="48.934820" lon="9.976067">
        <ele>454.476762</ele>
        <time>2026-04-26T16:14:12.116Z</time>
      </trkpt>
      <trkpt lat="48.935208" lon="9.976545">
        <ele>456.154647</ele>
        <time>2026-04-26T16:14:25.006Z</time>
      </trkpt>
      <trkpt lat="48.935396" lon="9.976703">
        <ele>456.876530</ele>
        <time>2026-04-26T16:14:30.297Z</time>
      </trkpt>
      <trkpt lat="48.935511" lon="9.976749">
        <ele>457.276229</ele>
        <time>2026-04-26T16:14:33.147Z</time>
      </trkpt>
      <trkpt lat="48.935730" lon="9.976755">
        <ele>456.858094</ele>
        <time>2026-04-26T16:14:38.284Z</time>
      </trkpt>
      <trkpt lat="48.935909" lon="9.976845">
        <ele>456.474761</ele>
        <time>2026-04-26T16:14:42.512Z</time>
      </trkpt>
      <trkpt lat="48.936407" lon="9.977236">
        <ele>455.335335</ele>
        <time>2026-04-26T16:14:53.108Z</time>
      </trkpt>
      <trkpt lat="48.936751" lon="9.977446">
        <ele>454.581671</ele>
        <time>2026-04-26T16:14:59.299Z</time>
      </trkpt>
      <trkpt lat="48.937417" lon="9.977676">
        <ele>452.562436</ele>
        <time>2026-04-26T16:15:10.225Z</time>
      </trkpt>
      <trkpt lat="48.937564" lon="9.977792">
        <ele>451.746258</ele>
        <time>2026-04-26T16:15:12.827Z</time>
      </trkpt>
      <trkpt lat="48.937889" lon="9.978205">
        <ele>449.659427</ele>
        <time>2026-04-26T16:15:19.446Z</time>
      </trkpt>
      <trkpt lat="48.938111" lon="9.978584">
        <ele>448.015189</ele>
        <time>2026-04-26T16:15:24.640Z</time>
      </trkpt>
      <trkpt lat="48.938330" lon="9.979041">
        <ele>446.183517</ele>
        <time>2026-04-26T16:15:30.484Z</time>
      </trkpt>
      <trkpt lat="48.938540" lon="9.979578">
        <ele>444.578429</ele>
        <time>2026-04-26T16:15:37.095Z</time>
      </trkpt>
      <trkpt lat="48.938759" lon="9.979990">
        <ele>444.040349</ele>
        <time>2026-04-26T16:15:42.876Z</time>
      </trkpt>
      <trkpt lat="48.938821" lon="9.980154">
        <ele>443.848243</ele>
        <time>2026-04-26T16:15:44.976Z</time>
      </trkpt>
      <trkpt lat="48.939227" lon="9.981720">
        <ele>442.139024</ele>
        <time>2026-04-26T16:16:07.716Z</time>
      </trkpt>
      <trkpt lat="48.939371" lon="9.982049">
        <ele>442.275238</ele>
        <time>2026-04-26T16:16:13.922Z</time>
      </trkpt>
      <trkpt lat="48.939869" lon="9.981431">
        <ele>443.400846</ele>
        <time>2026-04-26T16:16:29.447Z</time>
      </trkpt>
      <trkpt lat="48.939997" lon="9.981215">
        <ele>443.735621</ele>
        <time>2026-04-26T16:16:34.118Z</time>
      </trkpt>
      <trkpt lat="48.940251" lon="9.980794">
        <ele>444.393449</ele>
        <time>2026-04-26T16:16:43.300Z</time>
      </trkpt>
      <trkpt lat="48.940437" lon="9.980397">
        <ele>444.954611</ele>
        <time>2026-04-26T16:16:51.023Z</time>
      </trkpt>
      <trkpt lat="48.940555" lon="9.979717">
        <ele>445.183087</ele>
        <time>2026-04-26T16:17:01.819Z</time>
      </trkpt>
      <trkpt lat="48.940673" lon="9.979379">
        <ele>445.212996</ele>
        <time>2026-04-26T16:17:07.540Z</time>
      </trkpt>
      <trkpt lat="48.940863" lon="9.978879">
        <ele>445.258131</ele>
        <time>2026-04-26T16:17:16.107Z</time>
      </trkpt>
      <trkpt lat="48.941497" lon="9.977566">
        <ele>444.875251</ele>
        <time>2026-04-26T16:17:38.404Z</time>
      </trkpt>
      <trkpt lat="48.941562" lon="9.977403">
        <ele>444.642753</ele>
        <time>2026-04-26T16:17:40.708Z</time>
      </trkpt>
      <trkpt lat="48.941762" lon="9.976695">
        <ele>443.703075</ele>
        <time>2026-04-26T16:17:49.671Z</time>
      </trkpt>
      <trkpt lat="48.941966" lon="9.976341">
        <ele>443.128890</ele>
        <time>2026-04-26T16:17:55.075Z</time>
      </trkpt>
      <trkpt lat="48.942157" lon="9.976148">
        <ele>442.703359</ele>
        <time>2026-04-26T16:17:59.101Z</time>
      </trkpt>
      <trkpt lat="48.942579" lon="9.976009">
        <ele>442.088710</ele>
        <time>2026-04-26T16:18:07.029Z</time>
      </trkpt>
      <trkpt lat="48.942633" lon="9.975876">
        <ele>442.210288</ele>
        <time>2026-04-26T16:18:09.087Z</time>
      </trkpt>
      <trkpt lat="48.942615" lon="9.975701">
        <ele>442.348017</ele>
        <time>2026-04-26T16:18:11.472Z</time>
      </trkpt>
      <trkpt lat="48.942491" lon="9.975202">
        <ele>442.762856</ele>
        <time>2026-04-26T16:18:19.399Z</time>
      </trkpt>
      <trkpt lat="48.942429" lon="9.974950">
        <ele>442.972095</ele>
        <time>2026-04-26T16:18:23.604Z</time>
      </trkpt>
      <trkpt lat="48.942381" lon="9.974644">
        <ele>443.216717</ele>
        <time>2026-04-26T16:18:28.601Z</time>
      </trkpt>
      <trkpt lat="48.942396" lon="9.974362">
        <ele>443.436706</ele>
        <time>2026-04-26T16:18:33.191Z</time>
      </trkpt>
      <trkpt lat="48.942679" lon="9.974017">
        <ele>443.865891</ele>
        <time>2026-04-26T16:18:42.290Z</time>
      </trkpt>
      <trkpt lat="48.942758" lon="9.973821">
        <ele>444.044698</ele>
        <time>2026-04-26T16:18:46.016Z</time>
      </trkpt>
      <trkpt lat="48.943405" lon="9.973545">
        <ele>443.579819</ele>
        <time>2026-04-26T16:19:02.024Z</time>
      </trkpt>
      <trkpt lat="48.943500" lon="9.973561">
        <ele>443.487753</ele>
        <time>2026-04-26T16:19:04.157Z</time>
      </trkpt>
      <trkpt lat="48.943553" lon="9.973651">
        <ele>443.411279</ele>
        <time>2026-04-26T16:19:05.852Z</time>
      </trkpt>
      <trkpt lat="48.943699" lon="9.974451">
        <ele>442.885979</ele>
        <time>2026-04-26T16:19:15.935Z</time>
      </trkpt>
      <trkpt lat="48.943841" lon="9.974855">
        <ele>442.596089</ele>
        <time>2026-04-26T16:19:21.015Z</time>
      </trkpt>
      <trkpt lat="48.944060" lon="9.975208">
        <ele>441.975969</ele>
        <time>2026-04-26T16:19:26.280Z</time>
      </trkpt>
      <trkpt lat="48.944245" lon="9.975377">
        <ele>441.242996</ele>
        <time>2026-04-26T16:19:29.838Z</time>
      </trkpt>
      <trkpt lat="48.944581" lon="9.975551">
        <ele>440.037242</ele>
        <time>2026-04-26T16:19:35.578Z</time>
      </trkpt>
      <trkpt lat="48.944905" lon="9.975567">
        <ele>438.935901</ele>
        <time>2026-04-26T16:19:40.773Z</time>
      </trkpt>
      <trkpt lat="48.945254" lon="9.975567">
        <ele>437.750203</ele>
        <time>2026-04-26T16:19:46.514Z</time>
      </trkpt>
      <trkpt lat="48.945290" lon="9.975643">
        <ele>437.541116</ele>
        <time>2026-04-26T16:19:47.568Z</time>
      </trkpt>
      <trkpt lat="48.945358" lon="9.975707">
        <ele>437.269517</ele>
        <time>2026-04-26T16:19:48.959Z</time>
      </trkpt>
      <trkpt lat="48.945612" lon="9.975924">
        <ele>436.316209</ele>
        <time>2026-04-26T16:19:54.303Z</time>
      </trkpt>
      <trkpt lat="48.945780" lon="9.976138">
        <ele>436.798594</ele>
        <time>2026-04-26T16:19:58.748Z</time>
      </trkpt>
      <trkpt lat="48.945983" lon="9.976395">
        <ele>437.380009</ele>
        <time>2026-04-26T16:20:04.486Z</time>
      </trkpt>
      <trkpt lat="48.946037" lon="9.976613">
        <ele>437.717003</ele>
        <time>2026-04-26T16:20:08.000Z</time>
      </trkpt>
      <trkpt lat="48.946051" lon="9.976918">
        <ele>438.159227</ele>
        <time>2026-04-26T16:20:12.714Z</time>
      </trkpt>
      <trkpt lat="48.946167" lon="9.977244">
        <ele>438.695506</ele>
        <time>2026-04-26T16:20:18.703Z</time>
      </trkpt>
      <trkpt lat="48.946584" lon="9.978007">
        <ele>440.131219</ele>
        <time>2026-04-26T16:20:36.198Z</time>
      </trkpt>
      <trkpt lat="48.946738" lon="9.978547">
        <ele>442.081187</ele>
        <time>2026-04-26T16:20:47.497Z</time>
      </trkpt>
      <trkpt lat="48.946889" lon="9.978777">
        <ele>443.269554</ele>
        <time>2026-04-26T16:20:53.722Z</time>
      </trkpt>
      <trkpt lat="48.947112" lon="9.978362">
        <ele>445.228926</ele>
        <time>2026-04-26T16:21:03.666Z</time>
      </trkpt>
      <trkpt lat="48.947250" lon="9.978483">
        <ele>446.114952</ele>
        <time>2026-04-26T16:21:08.117Z</time>
      </trkpt>
      <trkpt lat="48.947446" lon="9.979516">
        <ele>450.044021</ele>
        <time>2026-04-26T16:21:27.483Z</time>
      </trkpt>
      <trkpt lat="48.947971" lon="9.980380">
        <ele>453.547562</ele>
        <time>2026-04-26T16:21:48.057Z</time>
      </trkpt>
      <trkpt lat="48.948288" lon="9.980978">
        <ele>455.805992</ele>
        <time>2026-04-26T16:22:01.123Z</time>
      </trkpt>
      <trkpt lat="48.949377" lon="9.984444">
        <ele>465.291343</ele>
        <time>2026-04-26T16:23:04.569Z</time>
      </trkpt>
      <trkpt lat="48.949819" lon="9.985259">
        <ele>466.730085</ele>
        <time>2026-04-26T16:23:20.976Z</time>
      </trkpt>
      <trkpt lat="48.949868" lon="9.985601">
        <ele>467.206557</ele>
        <time>2026-04-26T16:23:26.301Z</time>
      </trkpt>
      <trkpt lat="48.949890" lon="9.985996">
        <ele>467.746151</ele>
        <time>2026-04-26T16:23:32.246Z</time>
      </trkpt>
      <trkpt lat="48.949965" lon="9.986275">
        <ele>468.156502</ele>
        <time>2026-04-26T16:23:36.747Z</time>
      </trkpt>
      <trkpt lat="48.950418" lon="9.986836">
        <ele>469.150096</ele>
        <time>2026-04-26T16:23:49.944Z</time>
      </trkpt>
      <trkpt lat="48.950748" lon="9.987358">
        <ele>469.824584</ele>
        <time>2026-04-26T16:24:00.743Z</time>
      </trkpt>
      <trkpt lat="48.951051" lon="9.987720">
        <ele>470.370503</ele>
        <time>2026-04-26T16:24:09.524Z</time>
      </trkpt>
      <trkpt lat="48.951647" lon="9.988066">
        <ele>471.297667</ele>
        <time>2026-04-26T16:24:24.218Z</time>
      </trkpt>
      <trkpt lat="48.952251" lon="9.988366">
        <ele>472.672694</ele>
        <time>2026-04-26T16:24:39.177Z</time>
      </trkpt>
      <trkpt lat="48.952644" lon="9.988796">
        <ele>473.720063</ele>
        <time>2026-04-26T16:24:50.684Z</time>
      </trkpt>
      <trkpt lat="48.952816" lon="9.988931">
        <ele>474.138863</ele>
        <time>2026-04-26T16:24:55.260Z</time>
      </trkpt>
      <trkpt lat="48.953304" lon="9.989227">
        <ele>475.256067</ele>
        <time>2026-04-26T16:25:07.592Z</time>
      </trkpt>
      <trkpt lat="48.953482" lon="9.989468">
        <ele>475.704799</ele>
        <time>2026-04-26T16:25:13.168Z</time>
      </trkpt>
      <trkpt lat="48.953547" lon="9.989544">
        <ele>475.859192</ele>
        <time>2026-04-26T16:25:15.084Z</time>
      </trkpt>
      <trkpt lat="48.953723" lon="9.989925">
        <ele>476.435499</ele>
        <time>2026-04-26T16:25:22.208Z</time>
      </trkpt>
      <trkpt lat="48.953964" lon="9.990678">
        <ele>477.471841</ele>
        <time>2026-04-26T16:25:34.948Z</time>
      </trkpt>
      <trkpt lat="48.954192" lon="9.991292">
        <ele>478.344498</ele>
        <time>2026-04-26T16:25:45.645Z</time>
      </trkpt>
      <trkpt lat="48.954239" lon="9.991612">
        <ele>478.735524</ele>
        <time>2026-04-26T16:25:50.650Z</time>
      </trkpt>
      <trkpt lat="48.954264" lon="9.992396">
        <ele>479.646777</ele>
        <time>2026-04-26T16:26:02.719Z</time>
      </trkpt>
      <trkpt lat="48.954257" lon="9.992930">
        <ele>480.266845</ele>
        <time>2026-04-26T16:26:10.982Z</time>
      </trkpt>
      <trkpt lat="48.954229" lon="9.993237">
        <ele>480.626676</ele>
        <time>2026-04-26T16:26:15.753Z</time>
      </trkpt>
      <trkpt lat="48.954196" lon="9.993426">
        <ele>480.853718</ele>
        <time>2026-04-26T16:26:18.731Z</time>
      </trkpt>
      <trkpt lat="48.953932" lon="9.994204">
        <ele>481.702361</ele>
        <time>2026-04-26T16:26:31.916Z</time>
      </trkpt>
      <trkpt lat="48.953909" lon="9.994383">
        <ele>481.714275</ele>
        <time>2026-04-26T16:26:34.614Z</time>
      </trkpt>
      <trkpt lat="48.953918" lon="9.994809">
        <ele>481.742116</ele>
        <time>2026-04-26T16:26:40.849Z</time>
      </trkpt>
      <trkpt lat="48.954960" lon="9.994710">
        <ele>481.845968</ele>
        <time>2026-04-26T16:27:02.332Z</time>
      </trkpt>
      <trkpt lat="48.955444" lon="9.994753">
        <ele>482.049453</ele>
        <time>2026-04-26T16:27:11.844Z</time>
      </trkpt>
      <trkpt lat="48.955970" lon="9.994870">
        <ele>482.460269</ele>
        <time>2026-04-26T16:27:22.653Z</time>
      </trkpt>
      <trkpt lat="48.957020" lon="9.995123">
        <ele>483.314609</ele>
        <time>2026-04-26T16:27:47.022Z</time>
      </trkpt>
      <trkpt lat="48.957832" lon="9.995290">
        <ele>484.958655</ele>
        <time>2026-04-26T16:28:06.852Z</time>
      </trkpt>
      <trkpt lat="48.958208" lon="9.995322">
        <ele>485.714266</ele>
        <time>2026-04-26T16:28:15.834Z</time>
      </trkpt>
      <trkpt lat="48.958948" lon="9.995230">
        <ele>486.678866</ele>
        <time>2026-04-26T16:28:32.843Z</time>
      </trkpt>
      <trkpt lat="48.959617" lon="9.995020">
        <ele>485.893176</ele>
        <time>2026-04-26T16:28:46.561Z</time>
      </trkpt>
      <trkpt lat="48.960352" lon="9.994736">
        <ele>485.020960</ele>
        <time>2026-04-26T16:29:00.114Z</time>
      </trkpt>
      <trkpt lat="48.960948" lon="9.994449">
        <ele>482.451296</ele>
        <time>2026-04-26T16:29:10.320Z</time>
      </trkpt>
      <trkpt lat="48.961081" lon="9.994426">
        <ele>481.726725</ele>
        <time>2026-04-26T16:29:12.393Z</time>
      </trkpt>
      <trkpt lat="48.961296" lon="9.994476">
        <ele>480.549414</ele>
        <time>2026-04-26T16:29:15.647Z</time>
      </trkpt>
      <trkpt lat="48.961558" lon="9.994662">
        <ele>478.984679</ele>
        <time>2026-04-26T16:29:19.883Z</time>
      </trkpt>
      <trkpt lat="48.961833" lon="9.994821">
        <ele>477.392420</ele>
        <time>2026-04-26T16:29:24.100Z</time>
      </trkpt>
      <trkpt lat="48.962026" lon="9.994893">
        <ele>476.316805</ele>
        <time>2026-04-26T16:29:26.922Z</time>
      </trkpt>
      <trkpt lat="48.962382" lon="9.994928">
        <ele>474.366172</ele>
        <time>2026-04-26T16:29:31.996Z</time>
      </trkpt>
      <trkpt lat="48.962817" lon="9.994869">
        <ele>471.934109</ele>
        <time>2026-04-26T16:29:38.228Z</time>
      </trkpt>
      <trkpt lat="48.963280" lon="9.994763">
        <ele>469.326738</ele>
        <time>2026-04-26T16:29:45.003Z</time>
      </trkpt>
      <trkpt lat="48.963980" lon="9.994488">
        <ele>465.300920</ele>
        <time>2026-04-26T16:29:56.009Z</time>
      </trkpt>
      <trkpt lat="48.965231" lon="9.993977">
        <ele>464.197280</ele>
        <time>2026-04-26T16:30:19.149Z</time>
      </trkpt>
      <trkpt lat="48.965868" lon="9.993852">
        <ele>464.137778</ele>
        <time>2026-04-26T16:30:34.193Z</time>
      </trkpt>
      <trkpt lat="48.966477" lon="9.993846">
        <ele>466.184444</ele>
        <time>2026-04-26T16:30:49.708Z</time>
      </trkpt>
      <trkpt lat="48.966726" lon="9.993888">
        <ele>467.026356</ele>
        <time>2026-04-26T16:30:56.289Z</time>
      </trkpt>
      <trkpt lat="48.967810" lon="9.994047">
        <ele>469.847140</ele>
        <time>2026-04-26T16:31:23.386Z</time>
      </trkpt>
      <trkpt lat="48.968078" lon="9.994032">
        <ele>469.824044</ele>
        <time>2026-04-26T16:31:29.413Z</time>
      </trkpt>
      <trkpt lat="48.968340" lon="9.993827">
        <ele>469.798679</ele>
        <time>2026-04-26T16:31:35.678Z</time>
      </trkpt>
      <trkpt lat="48.968696" lon="9.993485">
        <ele>469.762433</ele>
        <time>2026-04-26T16:31:43.884Z</time>
      </trkpt>
      <trkpt lat="48.968847" lon="9.993346">
        <ele>469.747239</ele>
        <time>2026-04-26T16:31:47.074Z</time>
      </trkpt>
      <trkpt lat="48.970021" lon="9.992136">
        <ele>468.132424</ele>
        <time>2026-04-26T16:32:11.404Z</time>
      </trkpt>
      <trkpt lat="48.971006" lon="9.991453">
        <ele>467.395262</ele>
        <time>2026-04-26T16:32:32.752Z</time>
      </trkpt>
      <trkpt lat="48.971185" lon="9.991438">
        <ele>467.666835</ele>
        <time>2026-04-26T16:32:36.672Z</time>
      </trkpt>
      <trkpt lat="48.971362" lon="9.991543">
        <ele>467.954581</ele>
        <time>2026-04-26T16:32:40.945Z</time>
      </trkpt>
      <trkpt lat="48.971761" lon="9.991943">
        <ele>468.678156</ele>
        <time>2026-04-26T16:32:52.039Z</time>
      </trkpt>
      <trkpt lat="48.971966" lon="9.992047">
        <ele>469.005473</ele>
        <time>2026-04-26T16:32:57.212Z</time>
      </trkpt>
      <trkpt lat="48.972202" lon="9.992110">
        <ele>469.368431</ele>
        <time>2026-04-26T16:33:03.073Z</time>
      </trkpt>
      <trkpt lat="48.972462" lon="9.992079">
        <ele>469.717425</ele>
        <time>2026-04-26T16:33:09.518Z</time>
      </trkpt>
      <trkpt lat="48.972679" lon="9.991996">
        <ele>469.910235</ele>
        <time>2026-04-26T16:33:15.026Z</time>
      </trkpt>
      <trkpt lat="48.972998" lon="9.991756">
        <ele>470.216839</ele>
        <time>2026-04-26T16:33:23.601Z</time>
      </trkpt>
      <trkpt lat="48.973069" lon="9.991657">
        <ele>470.299785</ele>
        <time>2026-04-26T16:33:25.881Z</time>
      </trkpt>
      <trkpt lat="48.973239" lon="9.991530">
        <ele>470.462955</ele>
        <time>2026-04-26T16:33:30.252Z</time>
      </trkpt>
      <trkpt lat="48.973592" lon="9.991152">
        <ele>470.834794</ele>
        <time>2026-04-26T16:33:39.642Z</time>
      </trkpt>
      <trkpt lat="48.973927" lon="9.990915">
        <ele>471.153100</ele>
        <time>2026-04-26T16:33:46.366Z</time>
      </trkpt>
      <trkpt lat="48.974278" lon="9.990756">
        <ele>470.665894</ele>
        <time>2026-04-26T16:33:52.394Z</time>
      </trkpt>
      <trkpt lat="48.975113" lon="9.990693">
        <ele>469.178967</ele>
        <time>2026-04-26T16:34:06.111Z</time>
      </trkpt>
      <trkpt lat="48.975311" lon="9.990572">
        <ele>468.799534</ele>
        <time>2026-04-26T16:34:09.895Z</time>
      </trkpt>
      <trkpt lat="48.975776" lon="9.990165">
        <ele>468.268150</ele>
        <time>2026-04-26T16:34:20.682Z</time>
      </trkpt>
      <trkpt lat="48.976080" lon="9.989980">
        <ele>469.204934</ele>
        <time>2026-04-26T16:34:28.078Z</time>
      </trkpt>
      <trkpt lat="48.977066" lon="9.989478">
        <ele>472.179930</ele>
        <time>2026-04-26T16:34:53.732Z</time>
      </trkpt>
      <trkpt lat="48.977444" lon="9.989293">
        <ele>473.405478</ele>
        <time>2026-04-26T16:35:04.407Z</time>
      </trkpt>
      <trkpt lat="48.978316" lon="9.989125">
        <ele>477.314602</ele>
        <time>2026-04-26T16:35:27.856Z</time>
      </trkpt>
      <trkpt lat="48.978944" lon="9.988733">
        <ele>480.332959</ele>
        <time>2026-04-26T16:35:45.606Z</time>
      </trkpt>
      <trkpt lat="48.979124" lon="9.988708">
        <ele>481.136832</ele>
        <time>2026-04-26T16:35:50.051Z</time>
      </trkpt>
      <trkpt lat="48.979294" lon="9.988740">
        <ele>481.496720</ele>
        <time>2026-04-26T16:35:54.203Z</time>
      </trkpt>
      <trkpt lat="48.979443" lon="9.988830">
        <ele>481.824655</ele>
        <time>2026-04-26T16:35:58.091Z</time>
      </trkpt>
      <trkpt lat="48.979541" lon="9.988942">
        <ele>482.075301</ele>
        <time>2026-04-26T16:36:01.050Z</time>
      </trkpt>
      <trkpt lat="48.979868" lon="9.989568">
        <ele>483.149663</ele>
        <time>2026-04-26T16:36:13.614Z</time>
      </trkpt>
      <trkpt lat="48.980003" lon="9.989721">
        <ele>483.493905</ele>
        <time>2026-04-26T16:36:17.566Z</time>
      </trkpt>
      <trkpt lat="48.980354" lon="9.989809">
        <ele>484.221706</ele>
        <time>2026-04-26T16:36:25.638Z</time>
      </trkpt>
      <trkpt lat="48.980775" lon="9.989796">
        <ele>484.605978</ele>
        <time>2026-04-26T16:36:34.773Z</time>
      </trkpt>
      <trkpt lat="48.980929" lon="9.989710">
        <ele>484.298202</ele>
        <time>2026-04-26T16:36:38.278Z</time>
      </trkpt>
      <trkpt lat="48.981208" lon="9.989336">
        <ele>483.600889</ele>
        <time>2026-04-26T16:36:45.770Z</time>
      </trkpt>
      <trkpt lat="48.981313" lon="9.989071">
        <ele>483.219665</ele>
        <time>2026-04-26T16:36:49.405Z</time>
      </trkpt>
      <trkpt lat="48.981511" lon="9.988419">
        <ele>482.334906</ele>
        <time>2026-04-26T16:36:57.145Z</time>
      </trkpt>
      <trkpt lat="48.981699" lon="9.988072">
        <ele>481.780763</ele>
        <time>2026-04-26T16:37:01.829Z</time>
      </trkpt>
      <trkpt lat="48.981897" lon="9.987746">
        <ele>481.233516</ele>
        <time>2026-04-26T16:37:06.521Z</time>
      </trkpt>
      <trkpt lat="48.982032" lon="9.987611">
        <ele>480.930202</ele>
        <time>2026-04-26T16:37:09.126Z</time>
      </trkpt>
      <trkpt lat="48.982186" lon="9.987552">
        <ele>480.631929</ele>
        <time>2026-04-26T16:37:11.690Z</time>
      </trkpt>
      <trkpt lat="48.982347" lon="9.987512">
        <ele>480.325518</ele>
        <time>2026-04-26T16:37:14.357Z</time>
      </trkpt>
      <trkpt lat="48.982510" lon="9.987521">
        <ele>480.019142</ele>
        <time>2026-04-26T16:37:17.047Z</time>
      </trkpt>
      <trkpt lat="48.983061" lon="9.987634">
        <ele>478.974828</ele>
        <time>2026-04-26T16:37:26.876Z</time>
      </trkpt>
      <trkpt lat="48.983349" lon="9.987624">
        <ele>478.433717</ele>
        <time>2026-04-26T16:37:32.695Z</time>
      </trkpt>
      <trkpt lat="48.983806" lon="9.987482">
        <ele>478.343722</ele>
        <time>2026-04-26T16:37:42.893Z</time>
      </trkpt>
      <trkpt lat="48.984095" lon="9.987260">
        <ele>478.649487</ele>
        <time>2026-04-26T16:37:50.207Z</time>
      </trkpt>
      <trkpt lat="48.984930" lon="9.986562">
        <ele>479.549261</ele>
        <time>2026-04-26T16:38:11.917Z</time>
      </trkpt>
      <trkpt lat="48.986260" lon="9.985439">
        <ele>480.662148</ele>
        <time>2026-04-26T16:38:46.378Z</time>
      </trkpt>
      <trkpt lat="48.986398" lon="9.985358">
        <ele>480.764364</ele>
        <time>2026-04-26T16:38:49.582Z</time>
      </trkpt>
      <trkpt lat="48.986630" lon="9.985290">
        <ele>480.927660</ele>
        <time>2026-04-26T16:38:54.521Z</time>
      </trkpt>
      <trkpt lat="48.987161" lon="9.985401">
        <ele>480.847982</ele>
        <time>2026-04-26T16:39:05.208Z</time>
      </trkpt>
      <trkpt lat="48.987609" lon="9.985667">
        <ele>480.636304</ele>
        <time>2026-04-26T16:39:14.264Z</time>
      </trkpt>
      <trkpt lat="48.987853" lon="9.985923">
        <ele>480.505883</ele>
        <time>2026-04-26T16:39:20.011Z</time>
      </trkpt>
      <trkpt lat="48.987971" lon="9.986227">
        <ele>480.403842</ele>
        <time>2026-04-26T16:39:24.721Z</time>
      </trkpt>
      <trkpt lat="48.988032" lon="9.987018">
        <ele>480.304114</ele>
        <time>2026-04-26T16:39:36.029Z</time>
      </trkpt>
      <trkpt lat="48.988066" lon="9.987129">
        <ele>480.348928</ele>
        <time>2026-04-26T16:39:37.819Z</time>
      </trkpt>
      <trkpt lat="48.988113" lon="9.987177">
        <ele>480.380471</ele>
        <time>2026-04-26T16:39:39.085Z</time>
      </trkpt>
      <trkpt lat="48.988186" lon="9.987222">
        <ele>480.424373</ele>
        <time>2026-04-26T16:39:40.844Z</time>
      </trkpt>
      <trkpt lat="48.988270" lon="9.987225">
        <ele>480.471216</ele>
        <time>2026-04-26T16:39:42.739Z</time>
      </trkpt>
      <trkpt lat="48.988779" lon="9.987156">
        <ele>480.756105</ele>
        <time>2026-04-26T16:39:54.327Z</time>
      </trkpt>
      <trkpt lat="48.990972" lon="9.987234">
        <ele>481.310312</ele>
        <time>2026-04-26T16:40:41.625Z</time>
      </trkpt>
      <trkpt lat="48.991197" lon="9.987196">
        <ele>481.323236</ele>
        <time>2026-04-26T16:40:46.393Z</time>
      </trkpt>
      <trkpt lat="48.991373" lon="9.987051">
        <ele>481.334658</ele>
        <time>2026-04-26T16:40:50.542Z</time>
      </trkpt>
      <trkpt lat="48.991463" lon="9.986922">
        <ele>481.201644</ele>
        <time>2026-04-26T16:40:53.050Z</time>
      </trkpt>
      <trkpt lat="48.991749" lon="9.986246">
        <ele>480.388977</ele>
        <time>2026-04-26T16:41:03.331Z</time>
      </trkpt>
      <trkpt lat="48.991911" lon="9.985994">
        <ele>480.032537</ele>
        <time>2026-04-26T16:41:07.532Z</time>
      </trkpt>
      <trkpt lat="48.992046" lon="9.985910">
        <ele>479.808008</ele>
        <time>2026-04-26T16:41:10.141Z</time>
      </trkpt>
      <trkpt lat="48.992523" lon="9.985914">
        <ele>479.073519</ele>
        <time>2026-04-26T16:41:18.446Z</time>
      </trkpt>
      <trkpt lat="48.992814" lon="9.985816">
        <ele>478.614632</ele>
        <time>2026-04-26T16:41:23.500Z</time>
      </trkpt>
      <trkpt lat="48.993042" lon="9.985607">
        <ele>478.489246</ele>
        <time>2026-04-26T16:41:28.020Z</time>
      </trkpt>
      <trkpt lat="48.993214" lon="9.985356">
        <ele>478.410357</ele>
        <time>2026-04-26T16:41:32.175Z</time>
      </trkpt>
      <trkpt lat="48.993637" lon="9.984665">
        <ele>478.204938</ele>
        <time>2026-04-26T16:41:44.322Z</time>
      </trkpt>
      <trkpt lat="48.993815" lon="9.984248">
        <ele>478.096803</ele>
        <time>2026-04-26T16:41:51.555Z</time>
      </trkpt>
      <trkpt lat="48.994005" lon="9.983335">
        <ele>478.481062</ele>
        <time>2026-04-26T16:42:06.148Z</time>
      </trkpt>
      <trkpt lat="48.994112" lon="9.982677">
        <ele>479.389095</ele>
        <time>2026-04-26T16:42:16.805Z</time>
      </trkpt>
      <trkpt lat="48.994382" lon="9.981086">
        <ele>481.590303</ele>
        <time>2026-04-26T16:42:42.330Z</time>
      </trkpt>
      <trkpt lat="48.995288" lon="9.976846">
        <ele>483.107039</ele>
        <time>2026-04-26T16:43:47.021Z</time>
      </trkpt>
      <trkpt lat="48.995542" lon="9.975725">
        <ele>482.870924</ele>
        <time>2026-04-26T16:44:02.379Z</time>
      </trkpt>
      <trkpt lat="48.995705" lon="9.975788">
        <ele>482.481806</ele>
        <time>2026-04-26T16:44:07.889Z</time>
      </trkpt>
      <trkpt lat="48.997793" lon="9.975654">
        <ele>477.233188</ele>
        <time>2026-04-26T16:45:11.296Z</time>
      </trkpt>
      <trkpt lat="48.999225" lon="9.975548">
        <ele>472.898899</ele>
        <time>2026-04-26T16:45:53.348Z</time>
      </trkpt>
      <trkpt lat="48.999997" lon="9.975581">
        <ele>470.869256</ele>
        <time>2026-04-26T16:46:16.481Z</time>
      </trkpt>
      <trkpt lat="49.000113" lon="9.975686">
        <ele>470.514702</ele>
        <time>2026-04-26T16:46:20.618Z</time>
      </trkpt>
      <trkpt lat="49.000313" lon="9.976076">
        <ele>469.661235</ele>
        <time>2026-04-26T16:46:30.585Z</time>
      </trkpt>
      <trkpt lat="49.000490" lon="9.976497">
        <ele>468.799116</ele>
        <time>2026-04-26T16:46:40.818Z</time>
      </trkpt>
      <trkpt lat="49.000811" lon="9.976931">
        <ele>467.621964</ele>
        <time>2026-04-26T16:46:54.525Z</time>
      </trkpt>
      <trkpt lat="49.001228" lon="9.977687">
        <ele>465.831300</ele>
        <time>2026-04-26T16:47:14.752Z</time>
      </trkpt>
      <trkpt lat="49.001511" lon="9.978034">
        <ele>464.827619</ele>
        <time>2026-04-26T16:47:25.522Z</time>
      </trkpt>
      <trkpt lat="49.001746" lon="9.978420">
        <ele>463.872920</ele>
        <time>2026-04-26T16:47:35.535Z</time>
      </trkpt>
      <trkpt lat="49.002172" lon="9.979740">
        <ele>460.341027</ele>
        <time>2026-04-26T16:48:02.829Z</time>
      </trkpt>
      <trkpt lat="49.002331" lon="9.980287">
        <ele>458.874371</ele>
        <time>2026-04-26T16:48:14.000Z</time>
      </trkpt>
      <trkpt lat="49.002566" lon="9.980761">
        <ele>457.417909</ele>
        <time>2026-04-26T16:48:25.271Z</time>
      </trkpt>
      <trkpt lat="49.002807" lon="9.981148">
        <ele>456.612137</ele>
        <time>2026-04-26T16:48:35.641Z</time>
      </trkpt>
      <trkpt lat="49.002898" lon="9.981360">
        <ele>456.366503</ele>
        <time>2026-04-26T16:48:40.695Z</time>
      </trkpt>
      <trkpt lat="49.003152" lon="9.982294">
        <ele>455.386226</ele>
        <time>2026-04-26T16:49:02.166Z</time>
      </trkpt>
      <trkpt lat="49.003552" lon="9.985251">
        <ele>454.147769</ele>
        <time>2026-04-26T16:50:10.762Z</time>
      </trkpt>
      <trkpt lat="49.003706" lon="9.986955">
        <ele>453.741927</ele>
        <time>2026-04-26T16:50:49.656Z</time>
      </trkpt>
      <trkpt lat="49.003839" lon="9.988776">
        <ele>453.007967</ele>
        <time>2026-04-26T16:51:31.046Z</time>
      </trkpt>
      <trkpt lat="49.003959" lon="9.989545">
        <ele>451.760953</ele>
        <time>2026-04-26T16:51:46.995Z</time>
      </trkpt>
      <trkpt lat="49.004044" lon="9.989891">
        <ele>451.148481</ele>
        <time>2026-04-26T16:51:54.431Z</time>
      </trkpt>
      <trkpt lat="49.004071" lon="9.990636">
        <ele>449.911594</ele>
        <time>2026-04-26T16:52:09.307Z</time>
      </trkpt>
      <trkpt lat="49.004138" lon="9.991120">
        <ele>449.091588</ele>
        <time>2026-04-26T16:52:18.882Z</time>
      </trkpt>
      <trkpt lat="49.004196" lon="9.991366">
        <ele>448.658250</ele>
        <time>2026-04-26T16:52:23.904Z</time>
      </trkpt>
      <trkpt lat="49.004256" lon="9.991896">
        <ele>447.858410</ele>
        <time>2026-04-26T16:52:34.222Z</time>
      </trkpt>
      <trkpt lat="49.004342" lon="9.992298">
        <ele>447.252596</ele>
        <time>2026-04-26T16:52:42.522Z</time>
      </trkpt>
      <trkpt lat="49.004560" lon="9.992843">
        <ele>446.338046</ele>
        <time>2026-04-26T16:52:55.362Z</time>
      </trkpt>
      <trkpt lat="49.004725" lon="9.993087">
        <ele>445.835976</ele>
        <time>2026-04-26T16:53:02.516Z</time>
      </trkpt>
      <trkpt lat="49.004909" lon="9.993410">
        <ele>445.223073</ele>
        <time>2026-04-26T16:53:11.332Z</time>
      </trkpt>
      <trkpt lat="49.005001" lon="9.993677">
        <ele>444.790976</ele>
        <time>2026-04-26T16:53:17.754Z</time>
      </trkpt>
      <trkpt lat="49.005063" lon="9.993804">
        <ele>444.564164</ele>
        <time>2026-04-26T16:53:21.304Z</time>
      </trkpt>
      <trkpt lat="49.005109" lon="9.993899">
        <ele>444.535312</ele>
        <time>2026-04-26T16:53:23.944Z</time>
      </trkpt>
      <trkpt lat="49.005306" lon="9.993873">
        <ele>444.611353</ele>
        <time>2026-04-26T16:53:30.820Z</time>
      </trkpt>
      <trkpt lat="49.005792" lon="9.993708">
        <ele>444.802828</ele>
        <time>2026-04-26T16:53:47.974Z</time>
      </trkpt>
      <trkpt lat="49.006509" lon="9.993357">
        <ele>445.092425</ele>
        <time>2026-04-26T16:54:13.705Z</time>
      </trkpt>
      <trkpt lat="49.006887" lon="9.993112">
        <ele>445.389110</ele>
        <time>2026-04-26T16:54:27.672Z</time>
      </trkpt>
      <trkpt lat="49.007153" lon="9.993060">
        <ele>445.814526</ele>
        <time>2026-04-26T16:54:36.721Z</time>
      </trkpt>
      <trkpt lat="49.007999" lon="9.993096">
        <ele>447.157074</ele>
        <time>2026-04-26T16:55:05.224Z</time>
      </trkpt>
      <trkpt lat="49.008252" lon="9.992950">
        <ele>447.586204</ele>
        <time>2026-04-26T16:55:14.283Z</time>
      </trkpt>
      <trkpt lat="49.009225" lon="9.992067">
        <ele>449.539001</ele>
        <time>2026-04-26T16:55:52.327Z</time>
      </trkpt>
      <trkpt lat="49.009888" lon="9.991538">
        <ele>450.866491</ele>
        <time>2026-04-26T16:56:17.535Z</time>
      </trkpt>
      <trkpt lat="49.010152" lon="9.991428">
        <ele>451.367106</ele>
        <time>2026-04-26T16:56:26.754Z</time>
      </trkpt>
      <trkpt lat="49.010294" lon="9.991417">
        <ele>451.656685</ele>
        <time>2026-04-26T16:56:31.508Z</time>
      </trkpt>
      <trkpt lat="49.011138" lon="9.991499">
        <ele>453.379118</ele>
        <time>2026-04-26T16:56:59.891Z</time>
      </trkpt>
      <trkpt lat="49.011920" lon="9.991297">
        <ele>454.989734</ele>
        <time>2026-04-26T16:57:26.472Z</time>
      </trkpt>
      <trkpt lat="49.012248" lon="9.991155">
        <ele>455.643551</ele>
        <time>2026-04-26T16:57:37.924Z</time>
      </trkpt>
      <trkpt lat="49.012585" lon="9.990870">
        <ele>456.382518</ele>
        <time>2026-04-26T16:57:50.816Z</time>
      </trkpt>
      <trkpt lat="49.012857" lon="9.990553">
        <ele>457.039016</ele>
        <time>2026-04-26T16:58:02.289Z</time>
      </trkpt>
      <trkpt lat="49.013253" lon="9.989897">
        <ele>458.160311</ele>
        <time>2026-04-26T16:58:21.958Z</time>
      </trkpt>
      <trkpt lat="49.013413" lon="9.989711">
        <ele>458.327857</ele>
        <time>2026-04-26T16:58:28.807Z</time>
      </trkpt>
      <trkpt lat="49.013590" lon="9.989555">
        <ele>458.254733</ele>
        <time>2026-04-26T16:58:35.861Z</time>
      </trkpt>
      <trkpt lat="49.014226" lon="9.989400">
        <ele>458.024369</ele>
        <time>2026-04-26T16:58:58.172Z</time>
      </trkpt>
      <trkpt lat="49.014469" lon="9.989405">
        <ele>457.937448</ele>
        <time>2026-04-26T16:59:06.382Z</time>
      </trkpt>
      <trkpt lat="49.014644" lon="9.989471">
        <ele>457.872969</ele>
        <time>2026-04-26T16:59:12.335Z</time>
      </trkpt>
      <trkpt lat="49.014812" lon="9.989581">
        <ele>457.807575</ele>
        <time>2026-04-26T16:59:18.242Z</time>
      </trkpt>
      <trkpt lat="49.015009" lon="9.989814">
        <ele>457.718340</ele>
        <time>2026-04-26T16:59:26.306Z</time>
      </trkpt>
      <trkpt lat="49.016085" lon="9.991308">
        <ele>457.128526</ele>
        <time>2026-04-26T17:00:16.670Z</time>
      </trkpt>
      <trkpt lat="49.016139" lon="9.991432">
        <ele>457.088961</ele>
        <time>2026-04-26T17:00:19.990Z</time>
      </trkpt>
      <trkpt lat="49.016230" lon="9.991876">
        <ele>456.965818</ele>
        <time>2026-04-26T17:00:30.430Z</time>
      </trkpt>
      <trkpt lat="49.016210" lon="9.992889">
        <ele>456.701960</ele>
        <time>2026-04-26T17:00:53.456Z</time>
      </trkpt>
      <trkpt lat="49.016311" lon="9.993269">
        <ele>456.595209</ele>
        <time>2026-04-26T17:01:02.739Z</time>
      </trkpt>
      <trkpt lat="49.016454" lon="9.993502">
        <ele>456.512128</ele>
        <time>2026-04-26T17:01:09.941Z</time>
      </trkpt>
      <trkpt lat="49.016704" lon="9.993670">
        <ele>456.403673</ele>
        <time>2026-04-26T17:01:19.077Z</time>
      </trkpt>
      <trkpt lat="49.017136" lon="9.993875">
        <ele>456.440343</ele>
        <time>2026-04-26T17:01:34.087Z</time>
      </trkpt>
      <trkpt lat="49.017543" lon="9.993981">
        <ele>456.960822</ele>
        <time>2026-04-26T17:01:48.369Z</time>
      </trkpt>
      <trkpt lat="49.017771" lon="9.993986">
        <ele>457.248260</ele>
        <time>2026-04-26T17:01:56.140Z</time>
      </trkpt>
      <trkpt lat="49.018298" lon="9.993863">
        <ele>457.920313</ele>
        <time>2026-04-26T17:02:13.981Z</time>
      </trkpt>
      <trkpt lat="49.018857" lon="9.993559">
        <ele>458.752854</ele>
        <time>2026-04-26T17:02:33.905Z</time>
      </trkpt>
      <trkpt lat="49.019410" lon="9.993497">
        <ele>459.922800</ele>
        <time>2026-04-26T17:02:52.494Z</time>
      </trkpt>
      <trkpt lat="49.019674" lon="9.993533">
        <ele>460.482047</ele>
        <time>2026-04-26T17:03:01.392Z</time>
      </trkpt>
      <trkpt lat="49.019889" lon="9.993485">
        <ele>460.940520</ele>
        <time>2026-04-26T17:03:08.657Z</time>
      </trkpt>
      <trkpt lat="49.020414" lon="9.993158">
        <ele>462.137084</ele>
        <time>2026-04-26T17:03:27.683Z</time>
      </trkpt>
      <trkpt lat="49.020718" lon="9.993071">
        <ele>462.420630</ele>
        <time>2026-04-26T17:03:38.097Z</time>
      </trkpt>
      <trkpt lat="49.020931" lon="9.993125">
        <ele>462.503811</ele>
        <time>2026-04-26T17:03:45.376Z</time>
      </trkpt>
      <trkpt lat="49.021095" lon="9.993264">
        <ele>462.576092</ele>
        <time>2026-04-26T17:03:51.750Z</time>
      </trkpt>
      <trkpt lat="49.021334" lon="9.993553">
        <ele>462.693597</ele>
        <time>2026-04-26T17:04:02.098Z</time>
      </trkpt>
      <trkpt lat="49.021972" lon="9.994464">
        <ele>463.030305</ele>
        <time>2026-04-26T17:04:32.373Z</time>
      </trkpt>
      <trkpt lat="49.022157" lon="9.994692">
        <ele>462.803603</ele>
        <time>2026-04-26T17:04:39.736Z</time>
      </trkpt>
      <trkpt lat="49.022480" lon="9.995004">
        <ele>462.434782</ele>
        <time>2026-04-26T17:04:51.534Z</time>
      </trkpt>
      <trkpt lat="49.022668" lon="9.995061">
        <ele>462.249883</ele>
        <time>2026-04-26T17:04:57.837Z</time>
      </trkpt>
      <trkpt lat="49.023117" lon="9.995063">
        <ele>461.816765</ele>
        <time>2026-04-26T17:05:13.088Z</time>
      </trkpt>
      <trkpt lat="49.023456" lon="9.995012">
        <ele>461.488170</ele>
        <time>2026-04-26T17:05:20.064Z</time>
      </trkpt>
      <trkpt lat="49.023679" lon="9.995055">
        <ele>461.301557</ele>
        <time>2026-04-26T17:05:24.921Z</time>
      </trkpt>
      <trkpt lat="49.023851" lon="9.995144">
        <ele>461.340399</ele>
        <time>2026-04-26T17:05:28.959Z</time>
      </trkpt>
      <trkpt lat="49.024003" lon="9.994606">
        <ele>461.422547</ele>
        <time>2026-04-26T17:05:37.459Z</time>
      </trkpt>
      <trkpt lat="49.024212" lon="9.994051">
        <ele>461.512295</ele>
        <time>2026-04-26T17:05:46.992Z</time>
      </trkpt>
      <trkpt lat="49.024509" lon="9.993404">
        <ele>461.623045</ele>
        <time>2026-04-26T17:05:57.871Z</time>
      </trkpt>
      <trkpt lat="49.025123" lon="9.992530">
        <ele>462.047379</ele>
        <time>2026-04-26T17:06:15.106Z</time>
      </trkpt>
      <trkpt lat="49.025345" lon="9.992201">
        <ele>462.246422</ele>
        <time>2026-04-26T17:06:21.792Z</time>
      </trkpt>
      <trkpt lat="49.025484" lon="9.991978">
        <ele>462.376147</ele>
        <time>2026-04-26T17:06:26.255Z</time>
      </trkpt>
      <trkpt lat="49.025682" lon="9.991587">
        <ele>462.584441</ele>
        <time>2026-04-26T17:06:33.530Z</time>
      </trkpt>
      <trkpt lat="49.025828" lon="9.991764">
        <ele>462.704367</ele>
        <time>2026-04-26T17:06:37.903Z</time>
      </trkpt>
      <trkpt lat="49.025920" lon="9.991805">
        <ele>462.765997</ele>
        <time>2026-04-26T17:06:40.144Z</time>
      </trkpt>
      <trkpt lat="49.026016" lon="9.991793">
        <ele>462.827931</ele>
        <time>2026-04-26T17:06:42.429Z</time>
      </trkpt>
      <trkpt lat="49.026526" lon="9.991512">
        <ele>463.667780</ele>
        <time>2026-04-26T17:06:55.574Z</time>
      </trkpt>
      <trkpt lat="49.027402" lon="9.991137">
        <ele>465.099543</ele>
        <time>2026-04-26T17:07:17.370Z</time>
      </trkpt>
      <trkpt lat="49.027558" lon="9.991067">
        <ele>465.355431</ele>
        <time>2026-04-26T17:07:21.136Z</time>
      </trkpt>
      <trkpt lat="49.028146" lon="9.990822">
        <ele>465.893182</ele>
        <time>2026-04-26T17:07:34.997Z</time>
      </trkpt>
      <trkpt lat="49.028996" lon="9.990336">
        <ele>466.391202</ele>
        <time>2026-04-26T17:07:55.490Z</time>
      </trkpt>
      <trkpt lat="49.029230" lon="9.990169">
        <ele>466.532939</ele>
        <time>2026-04-26T17:08:01.362Z</time>
      </trkpt>
      <trkpt lat="49.031609" lon="9.987708">
        <ele>468.377474</ele>
        <time>2026-04-26T17:09:06.906Z</time>
      </trkpt>
      <trkpt lat="49.032088" lon="9.987204">
        <ele>468.842241</ele>
        <time>2026-04-26T17:09:20.491Z</time>
      </trkpt>
      <trkpt lat="49.033021" lon="9.986370">
        <ele>469.870872</ele>
        <time>2026-04-26T17:09:45.374Z</time>
      </trkpt>
      <trkpt lat="49.033680" lon="9.985891">
        <ele>470.621288</ele>
        <time>2026-04-26T17:10:02.234Z</time>
      </trkpt>
      <trkpt lat="49.033981" lon="9.985844">
        <ele>470.932322</ele>
        <time>2026-04-26T17:10:09.380Z</time>
      </trkpt>
      <trkpt lat="49.034322" lon="9.985973">
        <ele>471.696977</ele>
        <time>2026-04-26T17:10:17.733Z</time>
      </trkpt>
      <trkpt lat="49.034524" lon="9.986019">
        <ele>472.177517</ele>
        <time>2026-04-26T17:10:22.678Z</time>
      </trkpt>
      <trkpt lat="49.034752" lon="9.986023">
        <ele>472.713999</ele>
        <time>2026-04-26T17:10:28.257Z</time>
      </trkpt>
      <trkpt lat="49.035841" lon="9.986548">
        <ele>475.450712</ele>
        <time>2026-04-26T17:10:56.280Z</time>
      </trkpt>
      <trkpt lat="49.035956" lon="9.986538">
        <ele>475.792834</ele>
        <time>2026-04-26T17:10:59.076Z</time>
      </trkpt>
      <trkpt lat="49.036249" lon="9.986230">
        <ele>476.849726</ele>
        <time>2026-04-26T17:11:07.852Z</time>
      </trkpt>
      <trkpt lat="49.036821" lon="9.985767">
        <ele>478.773036</ele>
        <time>2026-04-26T17:11:23.835Z</time>
      </trkpt>
      <trkpt lat="49.037037" lon="9.985758">
        <ele>479.414828</ele>
        <time>2026-04-26T17:11:29.204Z</time>
      </trkpt>
      <trkpt lat="49.037168" lon="9.985899">
        <ele>479.891028</ele>
        <time>2026-04-26T17:11:33.230Z</time>
      </trkpt>
      <trkpt lat="49.037382" lon="9.986034">
        <ele>480.581950</ele>
        <time>2026-04-26T17:11:39.074Z</time>
      </trkpt>
      <trkpt lat="49.037557" lon="9.986036">
        <ele>481.168041</ele>
        <time>2026-04-26T17:11:43.542Z</time>
      </trkpt>
      <trkpt lat="49.037783" lon="9.985924">
        <ele>481.963855</ele>
        <time>2026-04-26T17:11:49.633Z</time>
      </trkpt>
      <trkpt lat="49.037969" lon="9.985787">
        <ele>482.655583</ele>
        <time>2026-04-26T17:11:54.944Z</time>
      </trkpt>
      <trkpt lat="49.038495" lon="9.985288">
        <ele>484.730027</ele>
        <time>2026-04-26T17:12:10.525Z</time>
      </trkpt>
      <trkpt lat="49.039486" lon="9.984665">
        <ele>487.739342</ele>
        <time>2026-04-26T17:12:37.425Z</time>
      </trkpt>
      <trkpt lat="49.039703" lon="9.984351">
        <ele>488.407218</ele>
        <time>2026-04-26T17:12:44.758Z</time>
      </trkpt>
      <trkpt lat="49.040057" lon="9.983356">
        <ele>490.064374</ele>
        <time>2026-04-26T17:13:02.533Z</time>
      </trkpt>
      <trkpt lat="49.040976" lon="9.984298">
        <ele>491.182022</ele>
        <time>2026-04-26T17:13:28.120Z</time>
      </trkpt>
      <trkpt lat="49.042843" lon="9.986602">
        <ele>491.968377</ele>
        <time>2026-04-26T17:14:22.137Z</time>
      </trkpt>
      <trkpt lat="49.042886" lon="9.986655">
        <ele>491.974344</ele>
        <time>2026-04-26T17:14:23.353Z</time>
      </trkpt>
      <trkpt lat="49.043568" lon="9.987496">
        <ele>491.647385</ele>
        <time>2026-04-26T17:14:41.561Z</time>
      </trkpt>
      <trkpt lat="49.044137" lon="9.989296">
        <ele>491.035415</ele>
        <time>2026-04-26T17:15:08.323Z</time>
      </trkpt>
      <trkpt lat="49.044299" lon="9.989834">
        <ele>491.329372</ele>
        <time>2026-04-26T17:15:17.285Z</time>
      </trkpt>
      <trkpt lat="49.044615" lon="9.990714">
        <ele>491.827564</ele>
        <time>2026-04-26T17:15:33.012Z</time>
      </trkpt>
      <trkpt lat="49.044800" lon="9.991135">
        <ele>492.079217</ele>
        <time>2026-04-26T17:15:40.901Z</time>
      </trkpt>
      <trkpt lat="49.044932" lon="9.991355">
        <ele>492.227299</ele>
        <time>2026-04-26T17:15:45.427Z</time>
      </trkpt>
      <trkpt lat="49.045268" lon="9.991768">
        <ele>491.851916</ele>
        <time>2026-04-26T17:15:54.659Z</time>
      </trkpt>
      <trkpt lat="49.045114" lon="9.992081">
        <ele>491.489711</ele>
        <time>2026-04-26T17:15:59.569Z</time>
      </trkpt>
      <trkpt lat="49.044790" lon="9.992470">
        <ele>490.907569</ele>
        <time>2026-04-26T17:16:06.906Z</time>
      </trkpt>
      <trkpt lat="49.044607" lon="9.992752">
        <ele>490.540311</ele>
        <time>2026-04-26T17:16:11.463Z</time>
      </trkpt>
      <trkpt lat="49.044141" lon="9.993586">
        <ele>489.618552</ele>
        <time>2026-04-26T17:16:25.007Z</time>
      </trkpt>
      <trkpt lat="49.043981" lon="9.993793">
        <ele>489.434947</ele>
        <time>2026-04-26T17:16:29.357Z</time>
      </trkpt>
      <trkpt lat="49.043532" lon="9.994140">
        <ele>488.994437</ele>
        <time>2026-04-26T17:16:40.036Z</time>
      </trkpt>
      <trkpt lat="49.043486" lon="9.994238">
        <ele>488.925288</ele>
        <time>2026-04-26T17:16:41.731Z</time>
      </trkpt>
      <trkpt lat="49.043511" lon="9.994363">
        <ele>488.850314</ele>
        <time>2026-04-26T17:16:43.578Z</time>
      </trkpt>
      <trkpt lat="49.043554" lon="9.994440">
        <ele>488.792283</ele>
        <time>2026-04-26T17:16:45.006Z</time>
      </trkpt>
      <trkpt lat="49.043522" lon="9.994456">
        <ele>488.762811</ele>
        <time>2026-04-26T17:16:46.188Z</time>
      </trkpt>
      <trkpt lat="49.043554" lon="9.994440">
        <ele>488.733339</ele>
        <time>2026-04-26T17:16:47.369Z</time>
      </trkpt>
      <trkpt lat="49.044898" lon="9.996678">
        <ele>487.880562</ele>
        <time>2026-04-26T17:17:27.318Z</time>
      </trkpt>
      <trkpt lat="49.045240" lon="9.997359">
        <ele>488.387234</ele>
        <time>2026-04-26T17:17:40.514Z</time>
      </trkpt>
      <trkpt lat="49.045605" lon="9.997462">
        <ele>490.007128</ele>
        <time>2026-04-26T17:17:49.874Z</time>
      </trkpt>
      <trkpt lat="49.046112" lon="9.997503">
        <ele>492.222803</ele>
        <time>2026-04-26T17:18:03.860Z</time>
      </trkpt>
      <trkpt lat="49.046322" lon="9.997578">
        <ele>493.164026</ele>
        <time>2026-04-26T17:18:10.034Z</time>
      </trkpt>
      <trkpt lat="49.046695" lon="9.997773">
        <ele>494.884726</ele>
        <time>2026-04-26T17:18:21.407Z</time>
      </trkpt>
      <trkpt lat="49.046848" lon="9.997853">
        <ele>495.590548</ele>
        <time>2026-04-26T17:18:25.997Z</time>
      </trkpt>
      <trkpt lat="49.047231" lon="9.998052">
        <ele>496.934723</ele>
        <time>2026-04-26T17:18:37.107Z</time>
      </trkpt>
      <trkpt lat="49.047432" lon="9.998226">
        <ele>497.696579</ele>
        <time>2026-04-26T17:18:43.205Z</time>
      </trkpt>
      <trkpt lat="49.047612" lon="9.998312">
        <ele>498.318389</ele>
        <time>2026-04-26T17:18:48.014Z</time>
      </trkpt>
      <trkpt lat="49.047810" lon="9.998370">
        <ele>498.983046</ele>
        <time>2026-04-26T17:18:53.040Z</time>
      </trkpt>
      <trkpt lat="49.047928" lon="9.998442">
        <ele>499.402004</ele>
        <time>2026-04-26T17:18:56.146Z</time>
      </trkpt>
      <trkpt lat="49.048254" lon="9.998770">
        <ele>500.689351</ele>
        <time>2026-04-26T17:19:05.513Z</time>
      </trkpt>
      <trkpt lat="49.048505" lon="9.998970">
        <ele>501.580848</ele>
        <time>2026-04-26T17:19:12.221Z</time>
      </trkpt>
      <trkpt lat="49.049371" lon="9.999576">
        <ele>502.540873</ele>
        <time>2026-04-26T17:19:34.530Z</time>
      </trkpt>
      <trkpt lat="49.049827" lon="9.999768">
        <ele>503.017537</ele>
        <time>2026-04-26T17:19:45.447Z</time>
      </trkpt>
      <trkpt lat="49.050108" lon="9.999346">
        <ele>503.376045</ele>
        <time>2026-04-26T17:19:54.413Z</time>
      </trkpt>
      <trkpt lat="49.050174" lon="9.999165">
        <ele>503.380436</ele>
        <time>2026-04-26T17:19:57.475Z</time>
      </trkpt>
      <trkpt lat="49.050217" lon="9.998670">
        <ele>503.391022</ele>
        <time>2026-04-26T17:20:04.782Z</time>
      </trkpt>
      <trkpt lat="49.050223" lon="9.996769">
        <ele>503.431324</ele>
        <time>2026-04-26T17:20:31.884Z</time>
      </trkpt>
      <trkpt lat="49.050258" lon="9.996596">
        <ele>503.375168</ele>
        <time>2026-04-26T17:20:34.530Z</time>
      </trkpt>
      <trkpt lat="49.050319" lon="9.996429">
        <ele>503.269836</ele>
        <time>2026-04-26T17:20:37.265Z</time>
      </trkpt>
      <trkpt lat="49.050435" lon="9.996274">
        <ele>503.140218</ele>
        <time>2026-04-26T17:20:40.560Z</time>
      </trkpt>
      <trkpt lat="49.050621" lon="9.996120">
        <ele>502.962326</ele>
        <time>2026-04-26T17:20:44.944Z</time>
      </trkpt>
      <trkpt lat="49.051097" lon="9.996146">
        <ele>502.561934</ele>
        <time>2026-04-26T17:20:54.479Z</time>
      </trkpt>
      <trkpt lat="49.051207" lon="9.996105">
        <ele>502.466747</ele>
        <time>2026-04-26T17:20:56.714Z</time>
      </trkpt>
      <trkpt lat="49.051702" lon="9.995847">
        <ele>502.027032</ele>
        <time>2026-04-26T17:21:07.231Z</time>
      </trkpt>
      <trkpt lat="49.051946" lon="9.995671">
        <ele>501.883988</ele>
        <time>2026-04-26T17:21:12.664Z</time>
      </trkpt>
      <trkpt lat="49.052227" lon="9.995800">
        <ele>501.808491</ele>
        <time>2026-04-26T17:21:18.443Z</time>
      </trkpt>
      <trkpt lat="49.052677" lon="9.996315">
        <ele>501.663767</ele>
        <time>2026-04-26T17:21:30.149Z</time>
      </trkpt>
      <trkpt lat="49.053136" lon="9.997189">
        <ele>501.474920</ele>
        <time>2026-04-26T17:21:46.757Z</time>
      </trkpt>
      <trkpt lat="49.053583" lon="9.997903">
        <ele>501.899827</ele>
        <time>2026-04-26T17:22:01.724Z</time>
      </trkpt>
      <trkpt lat="49.053774" lon="9.998207">
        <ele>502.109200</ele>
        <time>2026-04-26T17:22:08.080Z</time>
      </trkpt>
      <trkpt lat="49.053911" lon="9.998575">
        <ele>502.319614</ele>
        <time>2026-04-26T17:22:14.534Z</time>
      </trkpt>
      <trkpt lat="49.054004" lon="9.998945">
        <ele>502.516628</ele>
        <time>2026-04-26T17:22:20.597Z</time>
      </trkpt>
      <trkpt lat="49.054119" lon="9.999383">
        <ele>502.751209</ele>
        <time>2026-04-26T17:22:27.778Z</time>
      </trkpt>
      <trkpt lat="49.054177" lon="9.999498">
        <ele>502.821627</ele>
        <time>2026-04-26T17:22:29.947Z</time>
      </trkpt>
      <trkpt lat="49.054299" lon="9.999585">
        <ele>502.659861</ele>
        <time>2026-04-26T17:22:32.995Z</time>
      </trkpt>
      <trkpt lat="49.054674" lon="9.999705">
        <ele>502.199592</ele>
        <time>2026-04-26T17:22:41.382Z</time>
      </trkpt>
      <trkpt lat="49.054977" lon="9.999915">
        <ele>501.799829</ele>
        <time>2026-04-26T17:22:48.167Z</time>
      </trkpt>
      <trkpt lat="49.056099" lon="10.001062">
        <ele>499.949895</ele>
        <time>2026-04-26T17:23:12.619Z</time>
      </trkpt>
      <trkpt lat="49.056169" lon="10.001101">
        <ele>499.818324</ele>
        <time>2026-04-26T17:23:13.938Z</time>
      </trkpt>
      <trkpt lat="49.056572" lon="10.002813">
        <ele>497.713582</ele>
        <time>2026-04-26T17:23:35.082Z</time>
      </trkpt>
      <trkpt lat="49.056703" lon="10.003127">
        <ele>497.457541</ele>
        <time>2026-04-26T17:23:39.929Z</time>
      </trkpt>
      <trkpt lat="49.057023" lon="10.003586">
        <ele>497.347618</ele>
        <time>2026-04-26T17:23:48.900Z</time>
      </trkpt>
      <trkpt lat="49.057403" lon="10.004163">
        <ele>497.213442</ele>
        <time>2026-04-26T17:24:00.254Z</time>
      </trkpt>
      <trkpt lat="49.057804" lon="10.004992">
        <ele>497.044438</ele>
        <time>2026-04-26T17:24:14.854Z</time>
      </trkpt>
      <trkpt lat="49.058487" lon="10.006823">
        <ele>496.456220</ele>
        <time>2026-04-26T17:24:42.874Z</time>
      </trkpt>
      <trkpt lat="49.058512" lon="10.006890">
        <ele>496.434478</ele>
        <time>2026-04-26T17:24:43.842Z</time>
      </trkpt>
      <trkpt lat="49.058774" lon="10.007493">
        <ele>496.268574</ele>
        <time>2026-04-26T17:24:53.062Z</time>
      </trkpt>
      <trkpt lat="49.058846" lon="10.007932">
        <ele>496.294437</ele>
        <time>2026-04-26T17:24:59.090Z</time>
      </trkpt>
      <trkpt lat="49.058941" lon="10.008431">
        <ele>496.324134</ele>
        <time>2026-04-26T17:25:06.201Z</time>
      </trkpt>
      <trkpt lat="49.059050" lon="10.008649">
        <ele>496.339805</ele>
        <time>2026-04-26T17:25:10.047Z</time>
      </trkpt>
      <trkpt lat="49.059140" lon="10.008851">
        <ele>496.353765</ele>
        <time>2026-04-26T17:25:13.513Z</time>
      </trkpt>
      <trkpt lat="49.059161" lon="10.008898">
        <ele>496.357016</ele>
        <time>2026-04-26T17:25:14.313Z</time>
      </trkpt>
      <trkpt lat="49.059243" lon="10.009335">
        <ele>496.382994</ele>
        <time>2026-04-26T17:25:20.805Z</time>
      </trkpt>
      <trkpt lat="49.059463" lon="10.010088">
        <ele>496.403709</ele>
        <time>2026-04-26T17:25:32.767Z</time>
      </trkpt>
      <trkpt lat="49.059498" lon="10.010369">
        <ele>496.381158</ele>
        <time>2026-04-26T17:25:36.893Z</time>
      </trkpt>
      <trkpt lat="49.059470" lon="10.010917">
        <ele>496.337821</ele>
        <time>2026-04-26T17:25:44.727Z</time>
      </trkpt>
      <trkpt lat="49.059481" lon="10.011300">
        <ele>496.307596</ele>
        <time>2026-04-26T17:25:50.158Z</time>
      </trkpt>
      <trkpt lat="49.059550" lon="10.011590">
        <ele>496.283271</ele>
        <time>2026-04-26T17:25:54.417Z</time>
      </trkpt>
      <trkpt lat="49.059663" lon="10.011800">
        <ele>496.261847</ele>
        <time>2026-04-26T17:25:58.082Z</time>
      </trkpt>
      <trkpt lat="49.059876" lon="10.012083">
        <ele>496.227867</ele>
        <time>2026-04-26T17:26:03.802Z</time>
      </trkpt>
      <trkpt lat="49.060062" lon="10.012539">
        <ele>495.691259</ele>
        <time>2026-04-26T17:26:10.793Z</time>
      </trkpt>
      <trkpt lat="49.060928" lon="10.013709">
        <ele>491.526351</ele>
        <time>2026-04-26T17:26:30.632Z</time>
      </trkpt>
      <trkpt lat="49.061324" lon="10.013971">
        <ele>489.972116</ele>
        <time>2026-04-26T17:26:37.362Z</time>
      </trkpt>
      <trkpt lat="49.062180" lon="10.014761">
        <ele>480.987210</ele>
        <time>2026-04-26T17:26:51.673Z</time>
      </trkpt>
      <trkpt lat="49.062877" lon="10.014583">
        <ele>474.360619</ele>
        <time>2026-04-26T17:27:01.551Z</time>
      </trkpt>
      <trkpt lat="49.062987" lon="10.014477">
        <ele>473.140757</ele>
        <time>2026-04-26T17:27:03.416Z</time>
      </trkpt>
      <trkpt lat="49.063513" lon="10.013898">
        <ele>469.913308</ele>
        <time>2026-04-26T17:27:13.049Z</time>
      </trkpt>
      <trkpt lat="49.063749" lon="10.014154">
        <ele>468.534111</ele>
        <time>2026-04-26T17:27:17.779Z</time>
      </trkpt>
      <trkpt lat="49.063952" lon="10.014431">
        <ele>467.237000</ele>
        <time>2026-04-26T17:27:22.675Z</time>
      </trkpt>
      <trkpt lat="49.064347" lon="10.015064">
        <ele>464.508727</ele>
        <time>2026-04-26T17:27:33.570Z</time>
      </trkpt>
      <trkpt lat="49.064483" lon="10.015234">
        <ele>463.589481</ele>
        <time>2026-04-26T17:27:36.863Z</time>
      </trkpt>
      <trkpt lat="49.064830" lon="10.015485">
        <ele>461.519104</ele>
        <time>2026-04-26T17:27:43.478Z</time>
      </trkpt>
      <trkpt lat="49.064959" lon="10.015732">
        <ele>460.403264</ele>
        <time>2026-04-26T17:27:46.779Z</time>
      </trkpt>
      <trkpt lat="49.065063" lon="10.016560">
        <ele>457.425007</ele>
        <time>2026-04-26T17:27:55.181Z</time>
      </trkpt>
      <trkpt lat="49.065363" lon="10.016630">
        <ele>455.788727</ele>
        <time>2026-04-26T17:27:59.671Z</time>
      </trkpt>
      <trkpt lat="49.065472" lon="10.016703">
        <ele>455.146950</ele>
        <time>2026-04-26T17:28:01.424Z</time>
      </trkpt>
      <trkpt lat="49.066814" lon="10.018235">
        <ele>443.985562</ele>
        <time>2026-04-26T17:28:26.341Z</time>
      </trkpt>
      <trkpt lat="49.066909" lon="10.018228">
        <ele>443.344256</ele>
        <time>2026-04-26T17:28:27.840Z</time>
      </trkpt>
      <trkpt lat="49.067211" lon="10.018092">
        <ele>441.956102</ele>
        <time>2026-04-26T17:28:32.916Z</time>
      </trkpt>
      <trkpt lat="49.068010" lon="10.017707">
        <ele>439.639873</ele>
        <time>2026-04-26T17:28:47.539Z</time>
      </trkpt>
      <trkpt lat="49.068045" lon="10.017663">
        <ele>439.514525</ele>
        <time>2026-04-26T17:28:48.402Z</time>
      </trkpt>
      <trkpt lat="49.068871" lon="10.020281">
        <ele>435.809790</ele>
        <time>2026-04-26T17:29:25.026Z</time>
      </trkpt>
      <trkpt lat="49.069055" lon="10.020972">
        <ele>435.107929</ele>
        <time>2026-04-26T17:29:34.543Z</time>
      </trkpt>
      <trkpt lat="49.069169" lon="10.021754">
        <ele>434.450566</ele>
        <time>2026-04-26T17:29:44.924Z</time>
      </trkpt>
      <trkpt lat="49.069324" lon="10.023667">
        <ele>432.950833</ele>
        <time>2026-04-26T17:30:09.877Z</time>
      </trkpt>
      <trkpt lat="49.069384" lon="10.023929">
        <ele>432.755297</ele>
        <time>2026-04-26T17:30:13.604Z</time>
      </trkpt>
      <trkpt lat="49.069485" lon="10.024137">
        <ele>432.655795</ele>
        <time>2026-04-26T17:30:17.110Z</time>
      </trkpt>
      <trkpt lat="49.069606" lon="10.024209">
        <ele>432.579611</ele>
        <time>2026-04-26T17:30:19.803Z</time>
      </trkpt>
      <trkpt lat="49.069992" lon="10.024284">
        <ele>432.351347</ele>
        <time>2026-04-26T17:30:27.909Z</time>
      </trkpt>
      <trkpt lat="49.070100" lon="10.024344">
        <ele>432.283926</ele>
        <time>2026-04-26T17:30:30.317Z</time>
      </trkpt>
      <trkpt lat="49.070196" lon="10.024525">
        <ele>432.194426</ele>
        <time>2026-04-26T17:30:33.502Z</time>
      </trkpt>
      <trkpt lat="49.070201" lon="10.024912">
        <ele>432.045667</ele>
        <time>2026-04-26T17:30:38.827Z</time>
      </trkpt>
      <trkpt lat="49.070127" lon="10.025698">
        <ele>431.740491</ele>
        <time>2026-04-26T17:30:50.100Z</time>
      </trkpt>
      <trkpt lat="49.070143" lon="10.026580">
        <ele>431.480809</ele>
        <time>2026-04-26T17:31:02.262Z</time>
      </trkpt>
      <trkpt lat="49.070175" lon="10.026886">
        <ele>431.391394</ele>
        <time>2026-04-26T17:31:06.497Z</time>
      </trkpt>
      <trkpt lat="49.070251" lon="10.027431">
        <ele>431.230611</ele>
        <time>2026-04-26T17:31:14.129Z</time>
      </trkpt>
      <trkpt lat="49.070518" lon="10.029738">
        <ele>430.638301</ele>
        <time>2026-04-26T17:31:46.993Z</time>
      </trkpt>
      <trkpt lat="49.070610" lon="10.030364">
        <ele>430.494682</ele>
        <time>2026-04-26T17:31:55.994Z</time>
      </trkpt>
      <trkpt lat="49.070568" lon="10.030748">
        <ele>430.407529</ele>
        <time>2026-04-26T17:32:01.201Z</time>
      </trkpt>
      <trkpt lat="49.070544" lon="10.031086">
        <ele>430.331421</ele>
        <time>2026-04-26T17:32:05.709Z</time>
      </trkpt>
      <trkpt lat="49.070579" lon="10.032492">
        <ele>429.902395</ele>
        <time>2026-04-26T17:32:24.095Z</time>
      </trkpt>
      <trkpt lat="49.070628" lon="10.033260">
        <ele>429.663287</ele>
        <time>2026-04-26T17:32:34.311Z</time>
      </trkpt>
      <trkpt lat="49.070746" lon="10.034051">
        <ele>429.537485</ele>
        <time>2026-04-26T17:32:45.248Z</time>
      </trkpt>
      <trkpt lat="49.070875" lon="10.034814">
        <ele>429.898951</ele>
        <time>2026-04-26T17:32:55.925Z</time>
      </trkpt>
      <trkpt lat="49.071094" lon="10.035685">
        <ele>430.326904</ele>
        <time>2026-04-26T17:33:09.497Z</time>
      </trkpt>
      <trkpt lat="49.071207" lon="10.036259">
        <ele>430.601835</ele>
        <time>2026-04-26T17:33:18.617Z</time>
      </trkpt>
      <trkpt lat="49.071536" lon="10.036051">
        <ele>430.678965</ele>
        <time>2026-04-26T17:33:27.225Z</time>
      </trkpt>
      <trkpt lat="49.072241" lon="10.035675">
        <ele>430.505147</ele>
        <time>2026-04-26T17:33:44.563Z</time>
      </trkpt>
      <trkpt lat="49.072374" lon="10.035668">
        <ele>430.474172</ele>
        <time>2026-04-26T17:33:47.478Z</time>
      </trkpt>
      <trkpt lat="49.072631" lon="10.035685">
        <ele>430.414298</ele>
        <time>2026-04-26T17:33:52.715Z</time>
      </trkpt>
      <trkpt lat="49.073033" lon="10.035733">
        <ele>430.320446</ele>
        <time>2026-04-26T17:34:00.041Z</time>
      </trkpt>
      <trkpt lat="49.073641" lon="10.035880">
        <ele>429.224872</ele>
        <time>2026-04-26T17:34:10.538Z</time>
      </trkpt>
      <trkpt lat="49.073684" lon="10.035893">
        <ele>429.137632</ele>
        <time>2026-04-26T17:34:11.269Z</time>
      </trkpt>
      <trkpt lat="49.073923" lon="10.035976">
        <ele>428.649821</ele>
        <time>2026-04-26T17:34:15.452Z</time>
      </trkpt>
      <trkpt lat="49.074190" lon="10.036008">
        <ele>428.116802</ele>
        <time>2026-04-26T17:34:20.260Z</time>
      </trkpt>
      <trkpt lat="49.074594" lon="10.036575">
        <ele>427.024592</ele>
        <time>2026-04-26T17:34:31.168Z</time>
      </trkpt>
      <trkpt lat="49.075313" lon="10.037584">
        <ele>427.045321</ele>
        <time>2026-04-26T17:34:52.235Z</time>
      </trkpt>
      <trkpt lat="49.075467" lon="10.037803">
        <ele>427.127346</ele>
        <time>2026-04-26T17:34:56.813Z</time>
      </trkpt>
      <trkpt lat="49.076105" lon="10.038971">
        <ele>428.080791</ele>
        <time>2026-04-26T17:35:19.996Z</time>
      </trkpt>
      <trkpt lat="49.077342" lon="10.039911">
        <ele>431.964506</ele>
        <time>2026-04-26T17:35:54.759Z</time>
      </trkpt>
      <trkpt lat="49.078005" lon="10.040144">
        <ele>433.281797</ele>
        <time>2026-04-26T17:36:11.796Z</time>
      </trkpt>
      <trkpt lat="49.078546" lon="10.040601">
        <ele>434.279415</ele>
        <time>2026-04-26T17:36:26.608Z</time>
      </trkpt>
      <trkpt lat="49.078745" lon="10.040729">
        <ele>434.627836</ele>
        <time>2026-04-26T17:36:31.636Z</time>
      </trkpt>
      <trkpt lat="49.079113" lon="10.040816">
        <ele>435.228679</ele>
        <time>2026-04-26T17:36:40.018Z</time>
      </trkpt>
      <trkpt lat="49.079469" lon="10.040835">
        <ele>435.329924</ele>
        <time>2026-04-26T17:36:47.576Z</time>
      </trkpt>
      <trkpt lat="49.080061" lon="10.040951">
        <ele>435.210678</ele>
        <time>2026-04-26T17:36:59.676Z</time>
      </trkpt>
      <trkpt lat="49.080618" lon="10.041104">
        <ele>435.097608</ele>
        <time>2026-04-26T17:37:11.505Z</time>
      </trkpt>
      <trkpt lat="49.080852" lon="10.041356">
        <ele>435.040397</ele>
        <time>2026-04-26T17:37:17.819Z</time>
      </trkpt>
      <trkpt lat="49.081526" lon="10.042470">
        <ele>436.280536</ele>
        <time>2026-04-26T17:37:41.241Z</time>
      </trkpt>
      <trkpt lat="49.082050" lon="10.043443">
        <ele>437.427269</ele>
        <time>2026-04-26T17:38:01.067Z</time>
      </trkpt>
      <trkpt lat="49.082290" lon="10.043782">
        <ele>437.537172</ele>
        <time>2026-04-26T17:38:08.718Z</time>
      </trkpt>
      <trkpt lat="49.082589" lon="10.044084">
        <ele>437.557336</ele>
        <time>2026-04-26T17:38:16.861Z</time>
      </trkpt>
      <trkpt lat="49.083121" lon="10.044218">
        <ele>437.587662</ele>
        <time>2026-04-26T17:38:28.201Z</time>
      </trkpt>
      <trkpt lat="49.083505" lon="10.044215">
        <ele>437.609259</ele>
        <time>2026-04-26T17:38:36.053Z</time>
      </trkpt>
      <trkpt lat="49.083603" lon="10.044221">
        <ele>437.614775</ele>
        <time>2026-04-26T17:38:38.055Z</time>
      </trkpt>
      <trkpt lat="49.083806" lon="10.044272">
        <ele>437.653545</ele>
        <time>2026-04-26T17:38:42.313Z</time>
      </trkpt>
      <trkpt lat="49.083945" lon="10.044410">
        <ele>437.762635</ele>
        <time>2026-04-26T17:38:45.856Z</time>
      </trkpt>
      <trkpt lat="49.084447" lon="10.045232">
        <ele>438.246953</ele>
        <time>2026-04-26T17:39:02.525Z</time>
      </trkpt>
      <trkpt lat="49.085330" lon="10.046567">
        <ele>438.522145</ele>
        <time>2026-04-26T17:39:31.877Z</time>
      </trkpt>
      <trkpt lat="49.085532" lon="10.046876">
        <ele>438.313726</ele>
        <time>2026-04-26T17:39:38.210Z</time>
      </trkpt>
      <trkpt lat="49.086354" lon="10.048220">
        <ele>437.287365</ele>
        <time>2026-04-26T17:40:00.965Z</time>
      </trkpt>
      <trkpt lat="49.086581" lon="10.048500">
        <ele>436.550997</ele>
        <time>2026-04-26T17:40:06.204Z</time>
      </trkpt>
      <trkpt lat="49.086754" lon="10.048789">
        <ele>435.903939</ele>
        <time>2026-04-26T17:40:10.822Z</time>
      </trkpt>
      <trkpt lat="49.086889" lon="10.049297">
        <ele>434.997928</ele>
        <time>2026-04-26T17:40:17.136Z</time>
      </trkpt>
      <trkpt lat="49.086982" lon="10.050169">
        <ele>433.537867</ele>
        <time>2026-04-26T17:40:27.271Z</time>
      </trkpt>
      <trkpt lat="49.087045" lon="10.050385">
        <ele>433.147104</ele>
        <time>2026-04-26T17:40:29.962Z</time>
      </trkpt>
      <trkpt lat="49.087199" lon="10.050650">
        <ele>432.656914</ele>
        <time>2026-04-26T17:40:33.977Z</time>
      </trkpt>
      <trkpt lat="49.087416" lon="10.050971">
        <ele>432.078055</ele>
        <time>2026-04-26T17:40:39.245Z</time>
      </trkpt>
      <trkpt lat="49.087540" lon="10.051108">
        <ele>431.784813</ele>
        <time>2026-04-26T17:40:41.944Z</time>
      </trkpt>
      <trkpt lat="49.087811" lon="10.051596">
        <ele>430.982001</ele>
        <time>2026-04-26T17:40:49.423Z</time>
      </trkpt>
      <trkpt lat="49.087933" lon="10.051971">
        <ele>430.456616</ele>
        <time>2026-04-26T17:40:54.525Z</time>
      </trkpt>
      <trkpt lat="49.088012" lon="10.052211">
        <ele>430.119583</ele>
        <time>2026-04-26T17:40:57.992Z</time>
      </trkpt>
      <trkpt lat="49.088272" lon="10.053284">
        <ele>429.807357</ele>
        <time>2026-04-26T17:41:13.857Z</time>
      </trkpt>
      <trkpt lat="49.088476" lon="10.053853">
        <ele>430.098455</ele>
        <time>2026-04-26T17:41:23.705Z</time>
      </trkpt>
      <trkpt lat="49.088713" lon="10.054407">
        <ele>430.395405</ele>
        <time>2026-04-26T17:41:33.935Z</time>
      </trkpt>
      <trkpt lat="49.089052" lon="10.055059">
        <ele>430.746571</ele>
        <time>2026-04-26T17:41:46.791Z</time>
      </trkpt>
      <trkpt lat="49.089299" lon="10.055427">
        <ele>430.771555</ele>
        <time>2026-04-26T17:41:54.766Z</time>
      </trkpt>
      <trkpt lat="49.089502" lon="10.055677">
        <ele>430.790436</ele>
        <time>2026-04-26T17:42:00.748Z</time>
      </trkpt>
      <trkpt lat="49.089684" lon="10.056031">
        <ele>430.811774</ele>
        <time>2026-04-26T17:42:07.465Z</time>
      </trkpt>
      <trkpt lat="49.089762" lon="10.056278">
        <ele>430.824775</ele>
        <time>2026-04-26T17:42:11.436Z</time>
      </trkpt>
      <trkpt lat="49.089791" lon="10.056515">
        <ele>430.836206</ele>
        <time>2026-04-26T17:42:14.827Z</time>
      </trkpt>
      <trkpt lat="49.089807" lon="10.056626">
        <ele>430.841595</ele>
        <time>2026-04-26T17:42:16.360Z</time>
      </trkpt>
      <trkpt lat="49.089819" lon="10.056708">
        <ele>430.845579</ele>
        <time>2026-04-26T17:42:17.504Z</time>
      </trkpt>
      <trkpt lat="49.089899" lon="10.056719">
        <ele>430.851394</ele>
        <time>2026-04-26T17:42:19.039Z</time>
      </trkpt>
      <trkpt lat="49.090261" lon="10.056985">
        <ele>430.728446</ele>
        <time>2026-04-26T17:42:26.480Z</time>
      </trkpt>
      <trkpt lat="49.090649" lon="10.057237">
        <ele>430.026675</ele>
        <time>2026-04-26T17:42:34.242Z</time>
      </trkpt>
      <trkpt lat="49.090941" lon="10.057397">
        <ele>429.510330</ele>
        <time>2026-04-26T17:42:40.269Z</time>
      </trkpt>
      <trkpt lat="49.091054" lon="10.057505">
        <ele>429.288453</ele>
        <time>2026-04-26T17:42:42.883Z</time>
      </trkpt>
      <trkpt lat="49.091118" lon="10.057550">
        <ele>429.171182</ele>
        <time>2026-04-26T17:42:44.243Z</time>
      </trkpt>
      <trkpt lat="49.091381" lon="10.057713">
        <ele>428.698767</ele>
        <time>2026-04-26T17:42:49.588Z</time>
      </trkpt>
      <trkpt lat="49.091606" lon="10.057803">
        <ele>428.311644</ele>
        <time>2026-04-26T17:42:53.646Z</time>
      </trkpt>
      <trkpt lat="49.092151" lon="10.057835">
        <ele>426.616577</ele>
        <time>2026-04-26T17:43:02.695Z</time>
      </trkpt>
      <trkpt lat="49.092274" lon="10.057886">
        <ele>426.054026</ele>
        <time>2026-04-26T17:43:04.759Z</time>
      </trkpt>
      <trkpt lat="49.093091" lon="10.058469">
        <ele>422.073695</ele>
        <time>2026-04-26T17:43:18.688Z</time>
      </trkpt>
      <trkpt lat="49.093228" lon="10.058635">
        <ele>421.301787</ele>
        <time>2026-04-26T17:43:21.248Z</time>
      </trkpt>
      <trkpt lat="49.093093" lon="10.059808">
        <ele>417.657777</ele>
        <time>2026-04-26T17:43:32.681Z</time>
      </trkpt>
      <trkpt lat="49.093056" lon="10.059949">
        <ele>417.176203</ele>
        <time>2026-04-26T17:43:34.155Z</time>
      </trkpt>
      <trkpt lat="49.093172" lon="10.060117">
        <ele>416.402198</ele>
        <time>2026-04-26T17:43:36.531Z</time>
      </trkpt>
      <trkpt lat="49.093611" lon="10.059888">
        <ele>414.156227</ele>
        <time>2026-04-26T17:43:43.564Z</time>
      </trkpt>
      <trkpt lat="49.094245" lon="10.059687">
        <ele>411.235055</ele>
        <time>2026-04-26T17:43:53.605Z</time>
      </trkpt>
      <trkpt lat="49.094372" lon="10.059598">
        <ele>411.239575</ele>
        <time>2026-04-26T17:43:55.892Z</time>
      </trkpt>
      <trkpt lat="49.094475" lon="10.059476">
        <ele>411.243792</ele>
        <time>2026-04-26T17:43:58.088Z</time>
      </trkpt>
      <trkpt lat="49.094829" lon="10.059442">
        <ele>411.255267</ele>
        <time>2026-04-26T17:44:04.281Z</time>
      </trkpt>
      <trkpt lat="49.094992" lon="10.059426">
        <ele>411.260551</ele>
        <time>2026-04-26T17:44:07.470Z</time>
      </trkpt>
      <trkpt lat="49.095140" lon="10.059416">
        <ele>411.265343</ele>
        <time>2026-04-26T17:44:10.601Z</time>
      </trkpt>
      <trkpt lat="49.095500" lon="10.059430">
        <ele>411.276993</ele>
        <time>2026-04-26T17:44:18.832Z</time>
      </trkpt>
      <trkpt lat="49.095753" lon="10.058986">
        <ele>411.289461</ele>
        <time>2026-04-26T17:44:28.017Z</time>
      </trkpt>
      <trkpt lat="49.095858" lon="10.058997">
        <ele>411.431516</ele>
        <time>2026-04-26T17:44:30.651Z</time>
      </trkpt>
      <trkpt lat="49.096332" lon="10.058951">
        <ele>413.489378</ele>
        <time>2026-04-26T17:44:43.171Z</time>
      </trkpt>
      <trkpt lat="49.096337" lon="10.058950">
        <ele>413.511227</ele>
        <time>2026-04-26T17:44:43.328Z</time>
      </trkpt>
      <trkpt lat="49.096417" lon="10.058973">
        <ele>413.863934</ele>
        <time>2026-04-26T17:44:45.537Z</time>
      </trkpt>
      <trkpt lat="49.096667" lon="10.058984">
        <ele>414.947569</ele>
        <time>2026-04-26T17:44:52.501Z</time>
      </trkpt>
      <trkpt lat="49.096952" lon="10.058967">
        <ele>416.183342</ele>
        <time>2026-04-26T17:45:00.485Z</time>
      </trkpt>
      <trkpt lat="49.097430" lon="10.058848">
        <ele>418.281728</ele>
        <time>2026-04-26T17:45:13.208Z</time>
      </trkpt>
      <trkpt lat="49.097909" lon="10.058675">
        <ele>419.476700</ele>
        <time>2026-04-26T17:45:25.157Z</time>
      </trkpt>
      <trkpt lat="49.098472" lon="10.058430">
        <ele>420.224232</ele>
        <time>2026-04-26T17:45:38.569Z</time>
      </trkpt>
      <trkpt lat="49.099089" lon="10.058230">
        <ele>421.029654</ele>
        <time>2026-04-26T17:45:52.171Z</time>
      </trkpt>
      <trkpt lat="49.100130" lon="10.058168">
        <ele>420.949971</ele>
        <time>2026-04-26T17:46:14.011Z</time>
      </trkpt>
      <trkpt lat="49.100538" lon="10.058216">
        <ele>420.719411</ele>
        <time>2026-04-26T17:46:22.602Z</time>
      </trkpt>
      <trkpt lat="49.100809" lon="10.058348">
        <ele>420.559145</ele>
        <time>2026-04-26T17:46:28.294Z</time>
      </trkpt>
      <trkpt lat="49.101084" lon="10.058425">
        <ele>420.401619</ele>
        <time>2026-04-26T17:46:33.606Z</time>
      </trkpt>
      <trkpt lat="49.101435" lon="10.058409">
        <ele>419.312999</ele>
        <time>2026-04-26T17:46:39.778Z</time>
      </trkpt>
      <trkpt lat="49.101928" lon="10.058251">
        <ele>417.491942</ele>
        <time>2026-04-26T17:46:48.018Z</time>
      </trkpt>
      <trkpt lat="49.102942" lon="10.057903">
        <ele>413.809298</ele>
        <time>2026-04-26T17:47:03.806Z</time>
      </trkpt>
      <trkpt lat="49.103225" lon="10.057834">
        <ele>413.361656</ele>
        <time>2026-04-26T17:47:08.199Z</time>
      </trkpt>
      <trkpt lat="49.103632" lon="10.057581">
        <ele>412.675292</ele>
        <time>2026-04-26T17:47:15.258Z</time>
      </trkpt>
      <trkpt lat="49.103864" lon="10.057432">
        <ele>412.282178</ele>
        <time>2026-04-26T17:47:19.707Z</time>
      </trkpt>
      <trkpt lat="49.104341" lon="10.057129">
        <ele>411.475244</ele>
        <time>2026-04-26T17:47:30.297Z</time>
      </trkpt>
      <trkpt lat="49.105368" lon="10.056752">
        <ele>413.229236</ele>
        <time>2026-04-26T17:47:55.549Z</time>
      </trkpt>
      <trkpt lat="49.105820" lon="10.056582">
        <ele>414.512531</ele>
        <time>2026-04-26T17:48:07.143Z</time>
      </trkpt>
      <trkpt lat="49.107024" lon="10.055981">
        <ele>417.489200</ele>
        <time>2026-04-26T17:48:37.697Z</time>
      </trkpt>
      <trkpt lat="49.107337" lon="10.055886">
        <ele>418.141099</ele>
        <time>2026-04-26T17:48:45.194Z</time>
      </trkpt>
      <trkpt lat="49.107821" lon="10.055846">
        <ele>419.131265</ele>
        <time>2026-04-26T17:48:56.412Z</time>
      </trkpt>
      <trkpt lat="49.108379" lon="10.055863">
        <ele>419.727987</ele>
        <time>2026-04-26T17:49:08.931Z</time>
      </trkpt>
      <trkpt lat="49.108750" lon="10.055875">
        <ele>419.778393</ele>
        <time>2026-04-26T17:49:16.940Z</time>
      </trkpt>
      <trkpt lat="49.109033" lon="10.055828">
        <ele>419.817061</ele>
        <time>2026-04-26T17:49:22.938Z</time>
      </trkpt>
      <trkpt lat="49.109982" lon="10.055607">
        <ele>419.900899</ele>
        <time>2026-04-26T17:49:42.599Z</time>
      </trkpt>
      <trkpt lat="49.110967" lon="10.055808">
        <ele>419.582377</ele>
        <time>2026-04-26T17:50:02.856Z</time>
      </trkpt>
      <trkpt lat="49.111867" lon="10.055915">
        <ele>419.278948</ele>
        <time>2026-04-26T17:50:21.344Z</time>
      </trkpt>
      <trkpt lat="49.113318" lon="10.055299">
        <ele>418.690110</ele>
        <time>2026-04-26T17:50:52.016Z</time>
      </trkpt>
      <trkpt lat="49.113561" lon="10.055126">
        <ele>418.563179</ele>
        <time>2026-04-26T17:50:57.523Z</time>
      </trkpt>
      <trkpt lat="49.114449" lon="10.054318">
        <ele>418.028690</ele>
        <time>2026-04-26T17:51:18.433Z</time>
      </trkpt>
      <trkpt lat="49.114867" lon="10.054010">
        <ele>417.788702</ele>
        <time>2026-04-26T17:51:27.724Z</time>
      </trkpt>
      <trkpt lat="49.114976" lon="10.054056">
        <ele>417.730224</ele>
        <time>2026-04-26T17:51:29.981Z</time>
      </trkpt>
      <trkpt lat="49.115082" lon="10.054148">
        <ele>417.667457</ele>
        <time>2026-04-26T17:51:32.399Z</time>
      </trkpt>
      <trkpt lat="49.115501" lon="10.054348">
        <ele>417.441563</ele>
        <time>2026-04-26T17:51:41.120Z</time>
      </trkpt>
      <trkpt lat="49.115829" lon="10.054464">
        <ele>417.268313</ele>
        <time>2026-04-26T17:51:47.803Z</time>
      </trkpt>
      <trkpt lat="49.116906" lon="10.054023">
        <ele>416.801822</ele>
        <time>2026-04-26T17:52:10.481Z</time>
      </trkpt>
      <trkpt lat="49.117387" lon="10.053888">
        <ele>416.810834</ele>
        <time>2026-04-26T17:52:20.677Z</time>
      </trkpt>
      <trkpt lat="49.119297" lon="10.053736">
        <ele>417.007339</ele>
        <time>2026-04-26T17:53:01.665Z</time>
      </trkpt>
      <trkpt lat="49.119358" lon="10.053736">
        <ele>417.020694</ele>
        <time>2026-04-26T17:53:02.965Z</time>
      </trkpt>
      <trkpt lat="49.119613" lon="10.053698">
        <ele>417.076787</ele>
        <time>2026-04-26T17:53:08.508Z</time>
      </trkpt>
      <trkpt lat="49.120074" lon="10.053409">
        <ele>417.185880</ele>
        <time>2026-04-26T17:53:19.290Z</time>
      </trkpt>
      <trkpt lat="49.120916" lon="10.052971">
        <ele>417.582852</ele>
        <time>2026-04-26T17:53:38.433Z</time>
      </trkpt>
      <trkpt lat="49.121052" lon="10.052942">
        <ele>417.651998</ele>
        <time>2026-04-26T17:53:41.418Z</time>
      </trkpt>
      <trkpt lat="49.121476" lon="10.052970">
        <ele>417.865698</ele>
        <time>2026-04-26T17:53:50.705Z</time>
      </trkpt>
      <trkpt lat="49.121651" lon="10.052986">
        <ele>417.953975</ele>
        <time>2026-04-26T17:53:54.564Z</time>
      </trkpt>
      <trkpt lat="49.121799" lon="10.053000">
        <ele>418.028641</ele>
        <time>2026-04-26T17:53:57.867Z</time>
      </trkpt>
      <trkpt lat="49.122016" lon="10.052927">
        <ele>418.140215</ele>
        <time>2026-04-26T17:54:02.826Z</time>
      </trkpt>
      <trkpt lat="49.122235" lon="10.052800">
        <ele>418.254412</ele>
        <time>2026-04-26T17:54:08.101Z</time>
      </trkpt>
      <trkpt lat="49.122635" lon="10.052590">
        <ele>418.460608</ele>
        <time>2026-04-26T17:54:17.631Z</time>
      </trkpt>
      <trkpt lat="49.122780" lon="10.052566">
        <ele>418.531712</ele>
        <time>2026-04-26T17:54:20.889Z</time>
      </trkpt>
      <trkpt lat="49.122947" lon="10.052586">
        <ele>418.613377</ele>
        <time>2026-04-26T17:54:24.611Z</time>
      </trkpt>
      <trkpt lat="49.123022" lon="10.052596">
        <ele>418.650080</ele>
        <time>2026-04-26T17:54:26.278Z</time>
      </trkpt>
      <trkpt lat="49.123084" lon="10.052603">
        <ele>418.680388</ele>
        <time>2026-04-26T17:54:27.652Z</time>
      </trkpt>
      <trkpt lat="49.123534" lon="10.052473">
        <ele>418.903658</ele>
        <time>2026-04-26T17:54:37.507Z</time>
      </trkpt>
      <trkpt lat="49.124260" lon="10.052232">
        <ele>418.741608</ele>
        <time>2026-04-26T17:54:52.687Z</time>
      </trkpt>
      <trkpt lat="49.124471" lon="10.052065">
        <ele>418.622291</ele>
        <time>2026-04-26T17:54:57.375Z</time>
      </trkpt>
      <trkpt lat="49.124724" lon="10.052328">
        <ele>418.468644</ele>
        <time>2026-04-26T17:55:03.441Z</time>
      </trkpt>
      <trkpt lat="49.124974" lon="10.052463">
        <ele>418.335505</ele>
        <time>2026-04-26T17:55:08.704Z</time>
      </trkpt>
      <trkpt lat="49.125110" lon="10.052498">
        <ele>418.266254</ele>
        <time>2026-04-26T17:55:11.425Z</time>
      </trkpt>
      <trkpt lat="49.125247" lon="10.052507">
        <ele>418.197399</ele>
        <time>2026-04-26T17:55:14.159Z</time>
      </trkpt>
      <trkpt lat="49.125573" lon="10.052444">
        <ele>418.109318</ele>
        <time>2026-04-26T17:55:20.763Z</time>
      </trkpt>
      <trkpt lat="49.125750" lon="10.052355">
        <ele>418.115635</ele>
        <time>2026-04-26T17:55:24.555Z</time>
      </trkpt>
      <trkpt lat="49.125904" lon="10.052268">
        <ele>418.121201</ele>
        <time>2026-04-26T17:55:27.939Z</time>
      </trkpt>
      <trkpt lat="49.126187" lon="10.052152">
        <ele>418.131135</ele>
        <time>2026-04-26T17:55:34.195Z</time>
      </trkpt>
      <trkpt lat="49.126431" lon="10.052120">
        <ele>418.139437</ele>
        <time>2026-04-26T17:55:39.579Z</time>
      </trkpt>
      <trkpt lat="49.126739" lon="10.052169">
        <ele>418.149936</ele>
        <time>2026-04-26T17:55:46.374Z</time>
      </trkpt>
      <trkpt lat="49.126842" lon="10.052224">
        <ele>418.153635</ele>
        <time>2026-04-26T17:55:48.729Z</time>
      </trkpt>
      <trkpt lat="49.127043" lon="10.052359">
        <ele>418.161078</ele>
        <time>2026-04-26T17:55:53.437Z</time>
      </trkpt>
      <trkpt lat="49.127353" lon="10.052640">
        <ele>418.061221</ele>
        <time>2026-04-26T17:56:00.999Z</time>
      </trkpt>
      <trkpt lat="49.127686" lon="10.052991">
        <ele>417.879540</ele>
        <time>2026-04-26T17:56:09.423Z</time>
      </trkpt>
      <trkpt lat="49.127845" lon="10.053159">
        <ele>417.792724</ele>
        <time>2026-04-26T17:56:13.480Z</time>
      </trkpt>
      <trkpt lat="49.128029" lon="10.053352">
        <ele>417.692493</ele>
        <time>2026-04-26T17:56:18.044Z</time>
      </trkpt>
      <trkpt lat="49.128144" lon="10.053491">
        <ele>417.626643</ele>
        <time>2026-04-26T17:56:20.978Z</time>
      </trkpt>
      <trkpt lat="49.128183" lon="10.053534">
        <ele>417.605045</ele>
        <time>2026-04-26T17:56:21.924Z</time>
      </trkpt>
      <trkpt lat="49.128450" lon="10.053844">
        <ele>417.454448</ele>
        <time>2026-04-26T17:56:28.425Z</time>
      </trkpt>
      <trkpt lat="49.128481" lon="10.053881">
        <ele>417.436782</ele>
        <time>2026-04-26T17:56:29.169Z</time>
      </trkpt>
      <trkpt lat="49.128585" lon="10.054029">
        <ele>417.372958</ele>
        <time>2026-04-26T17:56:31.926Z</time>
      </trkpt>
      <trkpt lat="49.128959" lon="10.054632">
        <ele>416.663167</ele>
        <time>2026-04-26T17:56:42.305Z</time>
      </trkpt>
      <trkpt lat="49.129103" lon="10.054889">
        <ele>416.361416</ele>
        <time>2026-04-26T17:56:46.644Z</time>
      </trkpt>
      <trkpt lat="49.129263" lon="10.055193">
        <ele>416.013479</ele>
        <time>2026-04-26T17:56:51.504Z</time>
      </trkpt>
      <trkpt lat="49.129535" lon="10.055712">
        <ele>415.420458</ele>
        <time>2026-04-26T17:56:59.441Z</time>
      </trkpt>
      <trkpt lat="49.129721" lon="10.056066">
        <ele>415.015567</ele>
        <time>2026-04-26T17:57:04.792Z</time>
      </trkpt>
      <trkpt lat="49.129842" lon="10.056274">
        <ele>414.745524</ele>
        <time>2026-04-26T17:57:08.045Z</time>
      </trkpt>
      <trkpt lat="49.129925" lon="10.056396">
        <ele>414.563886</ele>
        <time>2026-04-26T17:57:10.058Z</time>
      </trkpt>
      <trkpt lat="49.130028" lon="10.056521">
        <ele>414.356435</ele>
        <time>2026-04-26T17:57:12.342Z</time>
      </trkpt>
      <trkpt lat="49.130166" lon="10.056628">
        <ele>414.112362</ele>
        <time>2026-04-26T17:57:15.044Z</time>
      </trkpt>
      <trkpt lat="49.130302" lon="10.056675">
        <ele>413.892438</ele>
        <time>2026-04-26T17:57:17.493Z</time>
      </trkpt>
      <trkpt lat="49.130724" lon="10.056750">
        <ele>413.222348</ele>
        <time>2026-04-26T17:57:25.079Z</time>
      </trkpt>
      <trkpt lat="49.131001" lon="10.056792">
        <ele>412.783302</ele>
        <time>2026-04-26T17:57:30.073Z</time>
      </trkpt>
      <trkpt lat="49.131302" lon="10.056917">
        <ele>412.291332</ele>
        <time>2026-04-26T17:57:35.930Z</time>
      </trkpt>
      <trkpt lat="49.131462" lon="10.057100">
        <ele>412.062414</ele>
        <time>2026-04-26T17:57:39.872Z</time>
      </trkpt>
      <trkpt lat="49.131521" lon="10.057236">
        <ele>412.050005</ele>
        <time>2026-04-26T17:57:42.021Z</time>
      </trkpt>
      <trkpt lat="49.131598" lon="10.057519">
        <ele>412.026698</ele>
        <time>2026-04-26T17:57:46.076Z</time>
      </trkpt>
      <trkpt lat="49.131609" lon="10.057759">
        <ele>412.008403</ele>
        <time>2026-04-26T17:57:49.289Z</time>
      </trkpt>
      <trkpt lat="49.131589" lon="10.058064">
        <ele>411.985093</ele>
        <time>2026-04-26T17:57:53.461Z</time>
      </trkpt>
      <trkpt lat="49.131569" lon="10.058246">
        <ele>411.971059</ele>
        <time>2026-04-26T17:57:56.014Z</time>
      </trkpt>
      <trkpt lat="49.131540" lon="10.058453">
        <ele>411.954961</ele>
        <time>2026-04-26T17:57:58.993Z</time>
      </trkpt>
      <trkpt lat="49.131498" lon="10.058802">
        <ele>411.927977</ele>
        <time>2026-04-26T17:58:04.038Z</time>
      </trkpt>
      <trkpt lat="49.131490" lon="10.059153">
        <ele>411.901269</ele>
        <time>2026-04-26T17:58:09.040Z</time>
      </trkpt>
      <trkpt lat="49.131530" lon="10.059416">
        <ele>411.880736</ele>
        <time>2026-04-26T17:58:12.883Z</time>
      </trkpt>
      <trkpt lat="49.131691" lon="10.059790">
        <ele>411.771385</ele>
        <time>2026-04-26T17:58:19.289Z</time>
      </trkpt>
      <trkpt lat="49.131734" lon="10.059870">
        <ele>411.719757</ele>
        <time>2026-04-26T17:58:20.748Z</time>
      </trkpt>
      <trkpt lat="49.131963" lon="10.060300">
        <ele>411.443284</ele>
        <time>2026-04-26T17:58:28.250Z</time>
      </trkpt>
      <trkpt lat="49.132275" lon="10.060883">
        <ele>411.067708</ele>
        <time>2026-04-26T17:58:38.105Z</time>
      </trkpt>
      <trkpt lat="49.132469" lon="10.061247">
        <ele>410.833601</ele>
        <time>2026-04-26T17:58:44.067Z</time>
      </trkpt>
      <trkpt lat="49.132524" lon="10.061351">
        <ele>410.766919</ele>
        <time>2026-04-26T17:58:45.688Z</time>
      </trkpt>
      <trkpt lat="49.132568" lon="10.061433">
        <ele>410.714037</ele>
        <time>2026-04-26T17:58:46.960Z</time>
      </trkpt>
      <trkpt lat="49.132637" lon="10.061563">
        <ele>410.630565</ele>
        <time>2026-04-26T17:58:48.959Z</time>
      </trkpt>
      <trkpt lat="49.132762" lon="10.061796">
        <ele>410.466712</ele>
        <time>2026-04-26T17:58:52.458Z</time>
      </trkpt>
      <trkpt lat="49.133127" lon="10.062417">
        <ele>409.432122</ele>
        <time>2026-04-26T17:59:01.977Z</time>
      </trkpt>
      <trkpt lat="49.133311" lon="10.062617">
        <ele>409.004435</ele>
        <time>2026-04-26T17:59:05.945Z</time>
      </trkpt>
      <trkpt lat="49.133359" lon="10.062540">
        <ele>408.872625</ele>
        <time>2026-04-26T17:59:07.189Z</time>
      </trkpt>
      <trkpt lat="49.133311" lon="10.062617">
        <ele>408.740815</ele>
        <time>2026-04-26T17:59:08.427Z</time>
      </trkpt>
      <trkpt lat="49.133381" lon="10.062678">
        <ele>408.588183</ele>
        <time>2026-04-26T17:59:09.881Z</time>
      </trkpt>
      <trkpt lat="49.133575" lon="10.062813">
        <ele>408.184412</ele>
        <time>2026-04-26T17:59:13.644Z</time>
      </trkpt>
      <trkpt lat="49.133770" lon="10.062931">
        <ele>407.787147</ele>
        <time>2026-04-26T17:59:17.328Z</time>
      </trkpt>
      <trkpt lat="49.133758" lon="10.062988">
        <ele>407.712937</ele>
        <time>2026-04-26T17:59:18.286Z</time>
      </trkpt>
      <trkpt lat="49.134081" lon="10.063291">
        <ele>407.017008</ele>
        <time>2026-04-26T17:59:27.364Z</time>
      </trkpt>
      <trkpt lat="49.134178" lon="10.063444">
        <ele>406.819248</ele>
        <time>2026-04-26T17:59:30.772Z</time>
      </trkpt>
      <trkpt lat="49.134220" lon="10.063640">
        <ele>406.627800</ele>
        <time>2026-04-26T17:59:34.056Z</time>
      </trkpt>
      <trkpt lat="49.134272" lon="10.064988">
        <ele>405.374337</ele>
        <time>2026-04-26T17:59:56.354Z</time>
      </trkpt>
      <trkpt lat="49.134306" lon="10.065949">
        <ele>404.508236</ele>
        <time>2026-04-26T18:00:12.439Z</time>
      </trkpt>
      <trkpt lat="49.134271" lon="10.066054">
        <ele>404.458795</ele>
        <time>2026-04-26T18:00:13.961Z</time>
      </trkpt>
      <trkpt lat="49.134271" lon="10.066158">
        <ele>404.415161</ele>
        <time>2026-04-26T18:00:15.287Z</time>
      </trkpt>
      <trkpt lat="49.134279" lon="10.066379">
        <ele>404.322298</ele>
        <time>2026-04-26T18:00:18.149Z</time>
      </trkpt>
      <trkpt lat="49.134309" lon="10.067281">
        <ele>403.943370</ele>
        <time>2026-04-26T18:00:29.837Z</time>
      </trkpt>
      <trkpt lat="49.134338" lon="10.067360">
        <ele>403.905365</ele>
        <time>2026-04-26T18:00:31.015Z</time>
      </trkpt>
      <trkpt lat="49.134241" lon="10.067469">
        <ele>403.828163</ele>
        <time>2026-04-26T18:00:33.432Z</time>
      </trkpt>
      <trkpt lat="49.134196" lon="10.067565">
        <ele>403.778615</ele>
        <time>2026-04-26T18:00:34.980Z</time>
      </trkpt>
      <trkpt lat="49.134203" lon="10.067641">
        <ele>403.746415</ele>
        <time>2026-04-26T18:00:35.986Z</time>
      </trkpt>
      <trkpt lat="49.134343" lon="10.067598">
        <ele>403.654846</ele>
        <time>2026-04-26T18:00:38.878Z</time>
      </trkpt>
      <trkpt lat="49.134503" lon="10.067535">
        <ele>403.548898</ele>
        <time>2026-04-26T18:00:42.260Z</time>
      </trkpt>
      <trkpt lat="49.134608" lon="10.067389">
        <ele>403.457873</ele>
        <time>2026-04-26T18:00:45.209Z</time>
      </trkpt>
      <trkpt lat="49.135112" lon="10.067200">
        <ele>403.573594</ele>
        <time>2026-04-26T18:00:56.053Z</time>
      </trkpt>
      <trkpt lat="49.135253" lon="10.067323">
        <ele>403.654582</ele>
        <time>2026-04-26T18:00:59.407Z</time>
      </trkpt>
      <trkpt lat="49.135395" lon="10.067710">
        <ele>403.799400</ele>
        <time>2026-04-26T18:01:05.243Z</time>
      </trkpt>
      <trkpt lat="49.135474" lon="10.067846">
        <ele>403.858758</ele>
        <time>2026-04-26T18:01:07.593Z</time>
      </trkpt>
      <trkpt lat="49.135755" lon="10.068189">
        <ele>404.038151</ele>
        <time>2026-04-26T18:01:15.091Z</time>
      </trkpt>
      <trkpt lat="49.136014" lon="10.068647">
        <ele>404.235731</ele>
        <time>2026-04-26T18:01:24.182Z</time>
      </trkpt>
      <trkpt lat="49.136275" lon="10.068876">
        <ele>405.175860</ele>
        <time>2026-04-26T18:01:31.418Z</time>
      </trkpt>
      <trkpt lat="49.136266" lon="10.068953">
        <ele>405.382670</ele>
        <time>2026-04-26T18:01:32.675Z</time>
      </trkpt>
      <trkpt lat="49.136288" lon="10.069376">
        <ele>406.504603</ele>
        <time>2026-04-26T18:01:39.858Z</time>
      </trkpt>
      <trkpt lat="49.136301" lon="10.069465">
        <ele>406.745711</ele>
        <time>2026-04-26T18:01:41.404Z</time>
      </trkpt>
      <trkpt lat="49.136305" lon="10.069495">
        <ele>406.826661</ele>
        <time>2026-04-26T18:01:41.935Z</time>
      </trkpt>
      <trkpt lat="49.136282" lon="10.069593">
        <ele>407.101938</ele>
        <time>2026-04-26T18:01:43.683Z</time>
      </trkpt>
      <trkpt lat="49.136411" lon="10.069666">
        <ele>407.657832</ele>
        <time>2026-04-26T18:01:47.267Z</time>
      </trkpt>
      <trkpt lat="49.136395" lon="10.069716">
        <ele>407.804996</ele>
        <time>2026-04-26T18:01:48.237Z</time>
      </trkpt>
      <trkpt lat="49.136347" lon="10.070116">
        <ele>408.880229</ele>
        <time>2026-04-26T18:01:56.330Z</time>
      </trkpt>
      <trkpt lat="49.136364" lon="10.070383">
        <ele>409.589507</ele>
        <time>2026-04-26T18:02:01.754Z</time>
      </trkpt>
      <trkpt lat="49.136424" lon="10.070706">
        <ele>410.477266</ele>
        <time>2026-04-26T18:02:08.670Z</time>
      </trkpt>
      <trkpt lat="49.136438" lon="10.071126">
        <ele>411.556976</ele>
        <time>2026-04-26T18:02:17.322Z</time>
      </trkpt>
      <trkpt lat="49.136449" lon="10.071126">
        <ele>411.570276</ele>
        <time>2026-04-26T18:02:18.122Z</time>
      </trkpt>
      <trkpt lat="49.136441" lon="10.071428">
        <ele>411.809369</ele>
        <time>2026-04-26T18:02:31.840Z</time>
      </trkpt>
      <trkpt lat="49.136464" lon="10.071428">
        <ele>411.837178</ele>
        <time>2026-04-26T18:02:33.411Z</time>
      </trkpt>
      <trkpt lat="49.136605" lon="10.071429">
        <ele>412.007660</ele>
        <time>2026-04-26T18:02:43.250Z</time>
      </trkpt>
      <trkpt lat="49.136635" lon="10.071429">
        <ele>412.043933</ele>
        <time>2026-04-26T18:02:45.302Z</time>
      </trkpt>
      <trkpt lat="49.136631" lon="10.071244">
        <ele>412.190357</ele>
        <time>2026-04-26T18:02:53.720Z</time>
      </trkpt>
      <trkpt lat="49.136781" lon="10.071239">
        <ele>412.371762</ele>
        <time>2026-04-26T18:03:04.135Z</time>
      </trkpt>
      <trkpt lat="49.136782" lon="10.071320">
        <ele>412.435848</ele>
        <time>2026-04-26T18:03:07.815Z</time>
      </trkpt>
      <trkpt lat="49.136785" lon="10.071615">
        <ele>412.669235</ele>
        <time>2026-04-26T18:03:21.239Z</time>
      </trkpt>
      <trkpt lat="49.136788" lon="10.071767">
        <ele>412.789529</ele>
        <time>2026-04-26T18:03:28.153Z</time>
      </trkpt>
      <trkpt lat="49.136788" lon="10.071781">
        <ele>412.800603</ele>
        <time>2026-04-26T18:03:28.790Z</time>
      </trkpt>
      <trkpt lat="49.136789" lon="10.071805">
        <ele>412.819627</ele>
        <time>2026-04-26T18:03:29.891Z</time>
      </trkpt>
      <trkpt lat="49.137357" lon="10.071775">
        <ele>413.506794</ele>
        <time>2026-04-26T18:04:09.390Z</time>
      </trkpt>
      <trkpt lat="49.137347" lon="10.071669">
        <ele>413.591512</ele>
        <time>2026-04-26T18:04:10.712Z</time>
      </trkpt>
      <trkpt lat="49.137303" lon="10.071270">
        <ele>413.376849</ele>
        <time>2026-04-26T18:04:15.311Z</time>
      </trkpt>
      <trkpt lat="49.137288" lon="10.071148">
        <ele>413.203898</ele>
        <time>2026-04-26T18:04:16.634Z</time>
      </trkpt>
      <trkpt lat="49.137287" lon="10.071030">
        <ele>413.039481</ele>
        <time>2026-04-26T18:04:17.851Z</time>
      </trkpt>
      <trkpt lat="49.137341" lon="10.070869">
        <ele>412.787411</ele>
        <time>2026-04-26T18:04:19.683Z</time>
      </trkpt>
      <trkpt lat="49.137753" lon="10.070483">
        <ele>411.758338</ele>
        <time>2026-04-26T18:04:27.420Z</time>
      </trkpt>
      <trkpt lat="49.137838" lon="10.070423">
        <ele>411.558958</ele>
        <time>2026-04-26T18:04:28.975Z</time>
      </trkpt>
      <trkpt lat="49.138055" lon="10.070323">
        <ele>411.076304</ele>
        <time>2026-04-26T18:04:32.881Z</time>
      </trkpt>
      <trkpt lat="49.138416" lon="10.070238">
        <ele>410.298475</ele>
        <time>2026-04-26T18:04:39.304Z</time>
      </trkpt>
      <trkpt lat="49.138416" lon="10.070836">
        <ele>410.138599</ele>
        <time>2026-04-26T18:04:47.073Z</time>
      </trkpt>
      <trkpt lat="49.138900" lon="10.070760">
        <ele>410.754225</ele>
        <time>2026-04-26T18:04:58.008Z</time>
      </trkpt>
      <trkpt lat="49.139024" lon="10.070745">
        <ele>410.911612</ele>
        <time>2026-04-26T18:05:00.940Z</time>
      </trkpt>
      <trkpt lat="49.139418" lon="10.070809">
        <ele>411.412945</ele>
        <time>2026-04-26T18:05:10.378Z</time>
      </trkpt>
      <trkpt lat="49.139733" lon="10.070860">
        <ele>411.813743</ele>
        <time>2026-04-26T18:05:17.827Z</time>
      </trkpt>
      <trkpt lat="49.140011" lon="10.070957">
        <ele>412.177023</ele>
        <time>2026-04-26T18:05:24.555Z</time>
      </trkpt>
      <trkpt lat="49.140184" lon="10.071088">
        <ele>412.476071</ele>
        <time>2026-04-26T18:05:29.033Z</time>
      </trkpt>
      <trkpt lat="49.140219" lon="10.071150">
        <ele>412.559055</ele>
        <time>2026-04-26T18:05:30.253Z</time>
      </trkpt>
      <trkpt lat="49.140255" lon="10.071215">
        <ele>412.645357</ele>
        <time>2026-04-26T18:05:31.503Z</time>
      </trkpt>
      <trkpt lat="49.140469" lon="10.071962">
        <ele>413.471719</ele>
        <time>2026-04-26T18:05:43.307Z</time>
      </trkpt>
      <trkpt lat="49.140564" lon="10.072192">
        <ele>413.747352</ele>
        <time>2026-04-26T18:05:47.316Z</time>
      </trkpt>
      <trkpt lat="49.140672" lon="10.072285">
        <ele>413.939358</ele>
        <time>2026-04-26T18:05:50.157Z</time>
      </trkpt>
      <trkpt lat="49.140733" lon="10.072215">
        <ele>414.057508</ele>
        <time>2026-04-26T18:05:51.917Z</time>
      </trkpt>
      <trkpt lat="49.140975" lon="10.072054">
        <ele>414.466320</ele>
        <time>2026-04-26T18:05:58.193Z</time>
      </trkpt>
      <trkpt lat="49.141223" lon="10.071993">
        <ele>414.855403</ele>
        <time>2026-04-26T18:06:04.148Z</time>
      </trkpt>
      <trkpt lat="49.141269" lon="10.071983">
        <ele>414.927372</ele>
        <time>2026-04-26T18:06:05.236Z</time>
      </trkpt>
      <trkpt lat="49.141313" lon="10.071974">
        <ele>415.013269</ele>
        <time>2026-04-26T18:06:06.251Z</time>
      </trkpt>
      <trkpt lat="49.141430" lon="10.071970">
        <ele>415.261153</ele>
        <time>2026-04-26T18:06:08.962Z</time>
      </trkpt>
      <trkpt lat="49.141722" lon="10.071972">
        <ele>415.879656</ele>
        <time>2026-04-26T18:06:15.642Z</time>
      </trkpt>
      <trkpt lat="49.141929" lon="10.072135">
        <ele>416.372867</ele>
        <time>2026-04-26T18:06:21.063Z</time>
      </trkpt>
      <trkpt lat="49.142120" lon="10.072404">
        <ele>416.922967</ele>
        <time>2026-04-26T18:06:27.242Z</time>
      </trkpt>
      <trkpt lat="49.142209" lon="10.072602">
        <ele>417.255849</ele>
        <time>2026-04-26T18:06:31.029Z</time>
      </trkpt>
      <trkpt lat="49.142674" lon="10.072389">
        <ele>418.284054</ele>
        <time>2026-04-26T18:06:42.478Z</time>
      </trkpt>
      <trkpt lat="49.143091" lon="10.072170">
        <ele>419.365324</ele>
        <time>2026-04-26T18:06:52.772Z</time>
      </trkpt>
      <trkpt lat="49.143598" lon="10.071975">
        <ele>420.828359</ele>
        <time>2026-04-26T18:07:04.955Z</time>
      </trkpt>
      <trkpt lat="49.143856" lon="10.071928">
        <ele>421.555468</ele>
        <time>2026-04-26T18:07:11.136Z</time>
      </trkpt>
      <trkpt lat="49.144347" lon="10.071891">
        <ele>422.931176</ele>
        <time>2026-04-26T18:07:23.237Z</time>
      </trkpt>
      <trkpt lat="49.144349" lon="10.071951">
        <ele>423.041156</ele>
        <time>2026-04-26T18:07:24.226Z</time>
      </trkpt>
      <trkpt lat="49.144347" lon="10.072030">
        <ele>423.185884</ele>
        <time>2026-04-26T18:07:25.520Z</time>
      </trkpt>
      <trkpt lat="49.144516" lon="10.072029">
        <ele>423.658826</ele>
        <time>2026-04-26T18:07:29.811Z</time>
      </trkpt>
      <trkpt lat="49.144900" lon="10.072050">
        <ele>424.672956</ele>
        <time>2026-04-26T18:07:39.552Z</time>
      </trkpt>
      <trkpt lat="49.145367" lon="10.072151">
        <ele>425.907095</ele>
        <time>2026-04-26T18:07:51.399Z</time>
      </trkpt>
      <trkpt lat="49.146170" lon="10.072533">
        <ele>428.107640</ele>
        <time>2026-04-26T18:08:11.341Z</time>
      </trkpt>
      <trkpt lat="49.146513" lon="10.072763">
        <ele>428.334848</ele>
        <time>2026-04-26T18:08:19.540Z</time>
      </trkpt>
      <trkpt lat="49.147346" lon="10.073321">
        <ele>427.670771</ele>
        <time>2026-04-26T18:08:37.245Z</time>
      </trkpt>
      <trkpt lat="49.148735" lon="10.074253">
        <ele>426.647318</ele>
        <time>2026-04-26T18:09:05.011Z</time>
      </trkpt>
      <trkpt lat="49.150480" lon="10.075373">
        <ele>426.532251</ele>
        <time>2026-04-26T18:09:45.515Z</time>
      </trkpt>
      <trkpt lat="49.151318" lon="10.075958">
        <ele>427.028262</ele>
        <time>2026-04-26T18:10:06.332Z</time>
      </trkpt>
      <trkpt lat="49.151770" lon="10.076201">
        <ele>427.456823</ele>
        <time>2026-04-26T18:10:16.649Z</time>
      </trkpt>
      <trkpt lat="49.151868" lon="10.076211">
        <ele>427.544675</ele>
        <time>2026-04-26T18:10:18.689Z</time>
      </trkpt>
      <trkpt lat="49.152002" lon="10.076111">
        <ele>427.678048</ele>
        <time>2026-04-26T18:10:21.809Z</time>
      </trkpt>
      <trkpt lat="49.152123" lon="10.076048">
        <ele>427.792380</ele>
        <time>2026-04-26T18:10:24.538Z</time>
      </trkpt>
      <trkpt lat="49.152418" lon="10.076008">
        <ele>428.057281</ele>
        <time>2026-04-26T18:10:34.729Z</time>
      </trkpt>
      <trkpt lat="49.152765" lon="10.075967">
        <ele>428.368584</ele>
        <time>2026-04-26T18:10:46.550Z</time>
      </trkpt>
      <trkpt lat="49.152977" lon="10.075947">
        <ele>428.558569</ele>
        <time>2026-04-26T18:10:53.707Z</time>
      </trkpt>
      <trkpt lat="49.153492" lon="10.075933">
        <ele>430.273045</ele>
        <time>2026-04-26T18:11:06.018Z</time>
      </trkpt>
      <trkpt lat="49.153769" lon="10.076074">
        <ele>431.271495</ele>
        <time>2026-04-26T18:11:13.283Z</time>
      </trkpt>
      <trkpt lat="49.154598" lon="10.076812">
        <ele>434.552191</ele>
        <time>2026-04-26T18:11:37.995Z</time>
      </trkpt>
      <trkpt lat="49.155138" lon="10.077209">
        <ele>436.118487</ele>
        <time>2026-04-26T18:11:52.913Z</time>
      </trkpt>
      <trkpt lat="49.155300" lon="10.077212">
        <ele>436.529856</ele>
        <time>2026-04-26T18:11:56.908Z</time>
      </trkpt>
      <trkpt lat="49.155422" lon="10.077430">
        <ele>437.006315</ele>
        <time>2026-04-26T18:12:01.498Z</time>
      </trkpt>
      <trkpt lat="49.155526" lon="10.077538">
        <ele>437.325528</ele>
        <time>2026-04-26T18:12:04.538Z</time>
      </trkpt>
      <trkpt lat="49.156010" lon="10.077889">
        <ele>438.685683</ele>
        <time>2026-04-26T18:12:17.254Z</time>
      </trkpt>
      <trkpt lat="49.156762" lon="10.078197">
        <ele>438.188223</ele>
        <time>2026-04-26T18:12:33.759Z</time>
      </trkpt>
      <trkpt lat="49.157836" lon="10.078461">
        <ele>435.958045</ele>
        <time>2026-04-26T18:12:51.629Z</time>
      </trkpt>
      <trkpt lat="49.159719" lon="10.078875">
        <ele>430.426662</ele>
        <time>2026-04-26T18:13:21.604Z</time>
      </trkpt>
      <trkpt lat="49.162759" lon="10.079426">
        <ele>434.419358</ele>
        <time>2026-04-26T18:14:32.756Z</time>
      </trkpt>
      <trkpt lat="49.163814" lon="10.079652">
        <ele>435.553550</ele>
        <time>2026-04-26T18:14:57.218Z</time>
      </trkpt>
      <trkpt lat="49.164163" lon="10.079760">
        <ele>435.646633</ele>
        <time>2026-04-26T18:15:04.950Z</time>
      </trkpt>
      <trkpt lat="49.165028" lon="10.080132">
        <ele>435.881530</ele>
        <time>2026-04-26T18:15:23.283Z</time>
      </trkpt>
      <trkpt lat="49.165477" lon="10.080253">
        <ele>435.706755</ele>
        <time>2026-04-26T18:15:32.355Z</time>
      </trkpt>
      <trkpt lat="49.165713" lon="10.080271">
        <ele>435.582393</ele>
        <time>2026-04-26T18:15:37.132Z</time>
      </trkpt>
      <trkpt lat="49.165940" lon="10.080242">
        <ele>435.462506</ele>
        <time>2026-04-26T18:15:41.754Z</time>
      </trkpt>
      <trkpt lat="49.166164" lon="10.080185">
        <ele>435.342994</ele>
        <time>2026-04-26T18:15:46.361Z</time>
      </trkpt>
      <trkpt lat="49.166839" lon="10.079899">
        <ele>434.974358</ele>
        <time>2026-04-26T18:16:00.584Z</time>
      </trkpt>
      <trkpt lat="49.166905" lon="10.079904">
        <ele>434.901305</ele>
        <time>2026-04-26T18:16:01.924Z</time>
      </trkpt>
      <trkpt lat="49.166978" lon="10.079982">
        <ele>434.748602</ele>
        <time>2026-04-26T18:16:03.690Z</time>
      </trkpt>
      <trkpt lat="49.167041" lon="10.079963">
        <ele>434.638491</ele>
        <time>2026-04-26T18:16:04.988Z</time>
      </trkpt>
      <trkpt lat="49.167043" lon="10.079982">
        <ele>434.616913</ele>
        <time>2026-04-26T18:16:05.229Z</time>
      </trkpt>
      <trkpt lat="49.167073" lon="10.080163">
        <ele>434.407554</ele>
        <time>2026-04-26T18:16:07.666Z</time>
      </trkpt>
      <trkpt lat="49.167091" lon="10.080274">
        <ele>434.279329</ele>
        <time>2026-04-26T18:16:09.116Z</time>
      </trkpt>
      <trkpt lat="49.167063" lon="10.080357">
        <ele>434.174612</ele>
        <time>2026-04-26T18:16:10.300Z</time>
      </trkpt>
      <trkpt lat="49.167295" lon="10.081656">
        <ele>432.664798</ele>
        <time>2026-04-26T18:16:26.186Z</time>
      </trkpt>
      <trkpt lat="49.167746" lon="10.083952">
        <ele>428.560870</ele>
        <time>2026-04-26T18:16:52.114Z</time>
      </trkpt>
      <trkpt lat="49.167865" lon="10.084513">
        <ele>427.405599</ele>
        <time>2026-04-26T18:16:58.357Z</time>
      </trkpt>
      <trkpt lat="49.168030" lon="10.085287">
        <ele>425.944763</ele>
        <time>2026-04-26T18:17:07.066Z</time>
      </trkpt>
      <trkpt lat="49.168138" lon="10.085638">
        <ele>425.336014</ele>
        <time>2026-04-26T18:17:11.258Z</time>
      </trkpt>
      <trkpt lat="49.168335" lon="10.086165">
        <ele>424.383404</ele>
        <time>2026-04-26T18:17:17.896Z</time>
      </trkpt>
      <trkpt lat="49.168588" lon="10.086652">
        <ele>423.407322</ele>
        <time>2026-04-26T18:17:24.878Z</time>
      </trkpt>
      <trkpt lat="49.168620" lon="10.086776">
        <ele>423.198129</ele>
        <time>2026-04-26T18:17:26.413Z</time>
      </trkpt>
      <trkpt lat="49.168596" lon="10.086918">
        <ele>422.967974</ele>
        <time>2026-04-26T18:17:28.104Z</time>
      </trkpt>
      <trkpt lat="49.168656" lon="10.086980">
        <ele>422.794185</ele>
        <time>2026-04-26T18:17:29.397Z</time>
      </trkpt>
      <trkpt lat="49.168708" lon="10.087088">
        <ele>422.583714</ele>
        <time>2026-04-26T18:17:30.955Z</time>
      </trkpt>
      <trkpt lat="49.168858" lon="10.087033">
        <ele>422.213506</ele>
        <time>2026-04-26T18:17:33.754Z</time>
      </trkpt>
      <trkpt lat="49.168951" lon="10.087038">
        <ele>422.119499</ele>
        <time>2026-04-26T18:17:35.448Z</time>
      </trkpt>
      <trkpt lat="49.169316" lon="10.087207">
        <ele>421.873547</ele>
        <time>2026-04-26T18:17:42.595Z</time>
      </trkpt>
      <trkpt lat="49.170090" lon="10.087403">
        <ele>421.367571</ele>
        <time>2026-04-26T18:17:58.390Z</time>
      </trkpt>
      <trkpt lat="49.170151" lon="10.087547">
        <ele>421.295220</ele>
        <time>2026-04-26T18:18:00.718Z</time>
      </trkpt>
      <trkpt lat="49.170211" lon="10.087586">
        <ele>421.253175</ele>
        <time>2026-04-26T18:18:02.068Z</time>
      </trkpt>
      <trkpt lat="49.170294" lon="10.087585">
        <ele>421.199643</ele>
        <time>2026-04-26T18:18:03.802Z</time>
      </trkpt>
      <trkpt lat="49.170313" lon="10.087513">
        <ele>421.166904</ele>
        <time>2026-04-26T18:18:04.878Z</time>
      </trkpt>
      <trkpt lat="49.170362" lon="10.087472">
        <ele>421.130882</ele>
        <time>2026-04-26T18:18:06.060Z</time>
      </trkpt>
      <trkpt lat="49.170666" lon="10.087515">
        <ele>420.957603</ele>
        <time>2026-04-26T18:18:12.541Z</time>
      </trkpt>
      <trkpt lat="49.171407" lon="10.087656">
        <ele>420.631763</ele>
        <time>2026-04-26T18:18:28.688Z</time>
      </trkpt>
      <trkpt lat="49.171898" lon="10.087807">
        <ele>420.413219</ele>
        <time>2026-04-26T18:18:38.691Z</time>
      </trkpt>
      <trkpt lat="49.171949" lon="10.087856">
        <ele>420.386938</ele>
        <time>2026-04-26T18:18:39.867Z</time>
      </trkpt>
      <trkpt lat="49.171988" lon="10.087948">
        <ele>420.355656</ele>
        <time>2026-04-26T18:18:41.251Z</time>
      </trkpt>
      <trkpt lat="49.172007" lon="10.088069">
        <ele>420.320154</ele>
        <time>2026-04-26T18:18:42.798Z</time>
      </trkpt>
      <trkpt lat="49.172072" lon="10.088106">
        <ele>420.289890</ele>
        <time>2026-04-26T18:18:44.120Z</time>
      </trkpt>
      <trkpt lat="49.172136" lon="10.088128">
        <ele>420.261266</ele>
        <time>2026-04-26T18:18:45.356Z</time>
      </trkpt>
      <trkpt lat="49.172186" lon="10.088075">
        <ele>420.234720</ele>
        <time>2026-04-26T18:18:46.513Z</time>
      </trkpt>
      <trkpt lat="49.172256" lon="10.088087">
        <ele>420.162606</ele>
        <time>2026-04-26T18:18:47.817Z</time>
      </trkpt>
      <trkpt lat="49.172314" lon="10.087964">
        <ele>420.020787</ele>
        <time>2026-04-26T18:18:51.097Z</time>
      </trkpt>
      <trkpt lat="49.172474" lon="10.088193">
        <ele>419.707364</ele>
        <time>2026-04-26T18:18:55.117Z</time>
      </trkpt>
      <trkpt lat="49.172617" lon="10.088495">
        <ele>419.358661</ele>
        <time>2026-04-26T18:18:59.514Z</time>
      </trkpt>
      <trkpt lat="49.172880" lon="10.089163">
        <ele>418.629466</ele>
        <time>2026-04-26T18:19:08.425Z</time>
      </trkpt>
      <trkpt lat="49.173048" lon="10.089449">
        <ele>418.269922</ele>
        <time>2026-04-26T18:19:12.896Z</time>
      </trkpt>
      <trkpt lat="49.173281" lon="10.089764">
        <ele>417.825131</ele>
        <time>2026-04-26T18:19:18.787Z</time>
      </trkpt>
      <trkpt lat="49.173437" lon="10.089970">
        <ele>417.685418</ele>
        <time>2026-04-26T18:19:22.885Z</time>
      </trkpt>
      <trkpt lat="49.173508" lon="10.090064">
        <ele>417.725968</ele>
        <time>2026-04-26T18:19:24.782Z</time>
      </trkpt>
      <trkpt lat="49.173752" lon="10.090346">
        <ele>417.858030</ele>
        <time>2026-04-26T18:19:31.145Z</time>
      </trkpt>
      <trkpt lat="49.174047" lon="10.090542">
        <ele>417.996919</ele>
        <time>2026-04-26T18:19:38.001Z</time>
      </trkpt>
      <trkpt lat="49.174744" lon="10.090681">
        <ele>418.300454</ele>
        <time>2026-04-26T18:19:53.753Z</time>
      </trkpt>
      <trkpt lat="49.175532" lon="10.091119">
        <ele>419.334026</ele>
        <time>2026-04-26T18:20:13.026Z</time>
      </trkpt>
      <trkpt lat="49.175777" lon="10.091155">
        <ele>419.742307</ele>
        <time>2026-04-26T18:20:18.713Z</time>
      </trkpt>
      <trkpt lat="49.177480" lon="10.090767">
        <ele>422.713384</ele>
        <time>2026-04-26T18:20:58.641Z</time>
      </trkpt>
      <trkpt lat="49.177758" lon="10.090737">
        <ele>423.220388</ele>
        <time>2026-04-26T18:21:05.099Z</time>
      </trkpt>
      <trkpt lat="49.177937" lon="10.090756">
        <ele>423.546814</ele>
        <time>2026-04-26T18:21:09.273Z</time>
      </trkpt>
      <trkpt lat="49.178847" lon="10.091194">
        <ele>425.523144</ele>
        <time>2026-04-26T18:21:31.414Z</time>
      </trkpt>
      <trkpt lat="49.179093" lon="10.091249">
        <ele>426.156842</ele>
        <time>2026-04-26T18:21:37.280Z</time>
      </trkpt>
      <trkpt lat="49.179877" lon="10.091201">
        <ele>428.156801</ele>
        <time>2026-04-26T18:21:56.159Z</time>
      </trkpt>
      <trkpt lat="49.180209" lon="10.091238">
        <ele>429.005287</ele>
        <time>2026-04-26T18:22:04.308Z</time>
      </trkpt>
      <trkpt lat="49.180548" lon="10.091427">
        <ele>429.655219</ele>
        <time>2026-04-26T18:22:13.038Z</time>
      </trkpt>
      <trkpt lat="49.180809" lon="10.091793">
        <ele>430.187954</ele>
        <time>2026-04-26T18:22:21.471Z</time>
      </trkpt>
      <trkpt lat="49.180992" lon="10.092192">
        <ele>430.667352</ele>
        <time>2026-04-26T18:22:28.966Z</time>
      </trkpt>
      <trkpt lat="49.181047" lon="10.092410">
        <ele>430.897180</ele>
        <time>2026-04-26T18:22:32.487Z</time>
      </trkpt>
      <trkpt lat="49.181261" lon="10.094495">
        <ele>431.405359</ele>
        <time>2026-04-26T18:23:01.815Z</time>
      </trkpt>
      <trkpt lat="49.181331" lon="10.094887">
        <ele>431.178565</ele>
        <time>2026-04-26T18:23:07.015Z</time>
      </trkpt>
      <trkpt lat="49.181455" lon="10.095317">
        <ele>430.916265</ele>
        <time>2026-04-26T18:23:12.927Z</time>
      </trkpt>
      <trkpt lat="49.181591" lon="10.095663">
        <ele>430.690938</ele>
        <time>2026-04-26T18:23:17.775Z</time>
      </trkpt>
      <trkpt lat="49.181823" lon="10.096113">
        <ele>430.297440</ele>
        <time>2026-04-26T18:23:24.360Z</time>
      </trkpt>
      <trkpt lat="49.182152" lon="10.096588">
        <ele>429.480929</ele>
        <time>2026-04-26T18:23:32.254Z</time>
      </trkpt>
      <trkpt lat="49.182581" lon="10.097140">
        <ele>428.469148</ele>
        <time>2026-04-26T18:23:42.052Z</time>
      </trkpt>
      <trkpt lat="49.183632" lon="10.098524">
        <ele>426.438832</ele>
        <time>2026-04-26T18:24:07.428Z</time>
      </trkpt>
      <trkpt lat="49.184582" lon="10.099753">
        <ele>425.122410</ele>
        <time>2026-04-26T18:24:31.818Z</time>
      </trkpt>
      <trkpt lat="49.185020" lon="10.100388">
        <ele>424.757663</ele>
        <time>2026-04-26T18:24:43.664Z</time>
      </trkpt>
      <trkpt lat="49.185356" lon="10.100954">
        <ele>424.455574</ele>
        <time>2026-04-26T18:24:53.663Z</time>
      </trkpt>
      <trkpt lat="49.185537" lon="10.101190">
        <ele>424.311823</ele>
        <time>2026-04-26T18:24:58.504Z</time>
      </trkpt>
      <trkpt lat="49.185678" lon="10.101335">
        <ele>424.209128</ele>
        <time>2026-04-26T18:25:01.985Z</time>
      </trkpt>
      <trkpt lat="49.185827" lon="10.101427">
        <ele>424.112004</ele>
        <time>2026-04-26T18:25:05.283Z</time>
      </trkpt>
      <trkpt lat="49.186386" lon="10.101571">
        <ele>423.957364</ele>
        <time>2026-04-26T18:25:16.974Z</time>
      </trkpt>
      <trkpt lat="49.186864" lon="10.101654">
        <ele>423.827034</ele>
        <time>2026-04-26T18:25:27.035Z</time>
      </trkpt>
      <trkpt lat="49.187059" lon="10.101621">
        <ele>423.773883</ele>
        <time>2026-04-26T18:25:31.098Z</time>
      </trkpt>
      <trkpt lat="49.187624" lon="10.101328">
        <ele>423.611596</ele>
        <time>2026-04-26T18:25:43.213Z</time>
      </trkpt>
      <trkpt lat="49.188172" lon="10.100926">
        <ele>423.436554</ele>
        <time>2026-04-26T18:25:55.748Z</time>
      </trkpt>
      <trkpt lat="49.188541" lon="10.100603">
        <ele>423.314109</ele>
        <time>2026-04-26T18:26:04.635Z</time>
      </trkpt>
      <trkpt lat="49.189078" lon="10.099884">
        <ele>423.108581</ele>
        <time>2026-04-26T18:26:19.076Z</time>
      </trkpt>
      <trkpt lat="49.189356" lon="10.099623">
        <ele>423.035389</ele>
        <time>2026-04-26T18:26:25.780Z</time>
      </trkpt>
      <trkpt lat="49.189522" lon="10.099552">
        <ele>422.997179</ele>
        <time>2026-04-26T18:26:29.334Z</time>
      </trkpt>
      <trkpt lat="49.189848" lon="10.099564">
        <ele>422.924888</ele>
        <time>2026-04-26T18:26:36.047Z</time>
      </trkpt>
      <trkpt lat="49.189916" lon="10.099585">
        <ele>422.909509</ele>
        <time>2026-04-26T18:26:37.443Z</time>
      </trkpt>
      <trkpt lat="49.190372" lon="10.099724">
        <ele>422.806434</ele>
        <time>2026-04-26T18:26:46.744Z</time>
      </trkpt>
      <trkpt lat="49.190817" lon="10.099800">
        <ele>422.707171</ele>
        <time>2026-04-26T18:26:56.052Z</time>
      </trkpt>
      <trkpt lat="49.190878" lon="10.099807">
        <ele>422.786139</ele>
        <time>2026-04-26T18:26:57.383Z</time>
      </trkpt>
      <trkpt lat="49.191068" lon="10.099728">
        <ele>423.068479</ele>
        <time>2026-04-26T18:27:01.715Z</time>
      </trkpt>
      <trkpt lat="49.191161" lon="10.099651">
        <ele>423.220112</ele>
        <time>2026-04-26T18:27:04.092Z</time>
      </trkpt>
      <trkpt lat="49.191209" lon="10.099548">
        <ele>423.338668</ele>
        <time>2026-04-26T18:27:05.951Z</time>
      </trkpt>
      <trkpt lat="49.191218" lon="10.099367">
        <ele>423.508786</ele>
        <time>2026-04-26T18:27:08.634Z</time>
      </trkpt>
      <trkpt lat="49.191189" lon="10.098938">
        <ele>423.912977</ele>
        <time>2026-04-26T18:27:15.092Z</time>
      </trkpt>
      <trkpt lat="49.191237" lon="10.098709">
        <ele>424.138357</ele>
        <time>2026-04-26T18:27:18.721Z</time>
      </trkpt>
      <trkpt lat="49.191434" lon="10.098373">
        <ele>424.561393</ele>
        <time>2026-04-26T18:27:25.572Z</time>
      </trkpt>
      <trkpt lat="49.191559" lon="10.098234">
        <ele>424.782977</ele>
        <time>2026-04-26T18:27:29.186Z</time>
      </trkpt>
      <trkpt lat="49.191862" lon="10.097895">
        <ele>425.342225</ele>
        <time>2026-04-26T18:27:38.048Z</time>
      </trkpt>
      <trkpt lat="49.192361" lon="10.097122">
        <ele>426.954340</ele>
        <time>2026-04-26T18:27:54.853Z</time>
      </trkpt>
      <trkpt lat="49.193103" lon="10.096221">
        <ele>429.104918</ele>
        <time>2026-04-26T18:28:17.108Z</time>
      </trkpt>
      <trkpt lat="49.194034" lon="10.095320">
        <ele>432.019999</ele>
        <time>2026-04-26T18:28:43.362Z</time>
      </trkpt>
      <trkpt lat="49.194714" lon="10.094765">
        <ele>434.093616</ele>
        <time>2026-04-26T18:29:02.091Z</time>
      </trkpt>
      <trkpt lat="49.194896" lon="10.094657">
        <ele>434.584782</ele>
        <time>2026-04-26T18:29:06.832Z</time>
      </trkpt>
      <trkpt lat="49.195759" lon="10.094314">
        <ele>436.784799</ele>
        <time>2026-04-26T18:29:28.222Z</time>
      </trkpt>
      <trkpt lat="49.195956" lon="10.094183">
        <ele>437.314787</ele>
        <time>2026-04-26T18:29:33.282Z</time>
      </trkpt>
      <trkpt lat="49.196176" lon="10.093982">
        <ele>437.947002</ele>
        <time>2026-04-26T18:29:39.261Z</time>
      </trkpt>
      <trkpt lat="49.196381" lon="10.093746">
        <ele>438.579968</ele>
        <time>2026-04-26T18:29:45.223Z</time>
      </trkpt>
      <trkpt lat="49.196995" lon="10.092890">
        <ele>440.710073</ele>
        <time>2026-04-26T18:30:04.590Z</time>
      </trkpt>
      <trkpt lat="49.197342" lon="10.092285">
        <ele>442.060807</ele>
        <time>2026-04-26T18:30:17.208Z</time>
      </trkpt>
      <trkpt lat="49.198009" lon="10.091114">
        <ele>445.074027</ele>
        <time>2026-04-26T18:30:42.303Z</time>
      </trkpt>
      <trkpt lat="49.198279" lon="10.090701">
        <ele>446.338512</ele>
        <time>2026-04-26T18:30:51.851Z</time>
      </trkpt>
      <trkpt lat="49.198539" lon="10.090369">
        <ele>447.460145</ele>
        <time>2026-04-26T18:31:00.186Z</time>
      </trkpt>
      <trkpt lat="49.198741" lon="10.090205">
        <ele>448.217568</ele>
        <time>2026-04-26T18:31:05.776Z</time>
      </trkpt>
      <trkpt lat="49.200235" lon="10.089120">
        <ele>452.228962</ele>
        <time>2026-04-26T18:31:45.632Z</time>
      </trkpt>
      <trkpt lat="49.200969" lon="10.088694">
        <ele>452.663752</ele>
        <time>2026-04-26T18:32:03.355Z</time>
      </trkpt>
      <trkpt lat="49.201078" lon="10.088647">
        <ele>452.474182</ele>
        <time>2026-04-26T18:32:05.712Z</time>
      </trkpt>
      <trkpt lat="49.202412" lon="10.088296">
        <ele>450.197615</ele>
        <time>2026-04-26T18:32:28.801Z</time>
      </trkpt>
      <trkpt lat="49.202614" lon="10.088243">
        <ele>449.398349</ele>
        <time>2026-04-26T18:32:31.984Z</time>
      </trkpt>
      <trkpt lat="49.203482" lon="10.088015">
        <ele>445.963770</ele>
        <time>2026-04-26T18:32:45.561Z</time>
      </trkpt>
      <trkpt lat="49.203539" lon="10.088002">
        <ele>445.739023</ele>
        <time>2026-04-26T18:32:46.445Z</time>
      </trkpt>
      <trkpt lat="49.204136" lon="10.087838">
        <ele>443.373596</ele>
        <time>2026-04-26T18:32:55.910Z</time>
      </trkpt>
      <trkpt lat="49.204460" lon="10.087696">
        <ele>442.567995</ele>
        <time>2026-04-26T18:33:01.360Z</time>
      </trkpt>
      <trkpt lat="49.204698" lon="10.087489">
        <ele>441.975757</ele>
        <time>2026-04-26T18:33:05.934Z</time>
      </trkpt>
      <trkpt lat="49.205041" lon="10.087092">
        <ele>441.045389</ele>
        <time>2026-04-26T18:33:13.368Z</time>
      </trkpt>
      <trkpt lat="49.205521" lon="10.086556">
        <ele>439.759915</ele>
        <time>2026-04-26T18:33:24.014Z</time>
      </trkpt>
      <trkpt lat="49.205764" lon="10.086391">
        <ele>439.441689</ele>
        <time>2026-04-26T18:33:29.057Z</time>
      </trkpt>
      <trkpt lat="49.206003" lon="10.086329">
        <ele>439.988617</ele>
        <time>2026-04-26T18:33:34.002Z</time>
      </trkpt>
      <trkpt lat="49.206257" lon="10.086342">
        <ele>440.562017</ele>
        <time>2026-04-26T18:33:39.538Z</time>
      </trkpt>
      <trkpt lat="49.206512" lon="10.086399">
        <ele>441.143457</ele>
        <time>2026-04-26T18:33:45.399Z</time>
      </trkpt>
      <trkpt lat="49.206614" lon="10.086432">
        <ele>441.378677</ele>
        <time>2026-04-26T18:33:47.832Z</time>
      </trkpt>
      <trkpt lat="49.206705" lon="10.086468">
        <ele>441.590740</ele>
        <time>2026-04-26T18:33:50.020Z</time>
      </trkpt>
      <trkpt lat="49.207944" lon="10.086909">
        <ele>446.178602</ele>
        <time>2026-04-26T18:34:23.377Z</time>
      </trkpt>
      <trkpt lat="49.208753" lon="10.087304">
        <ele>451.108080</ele>
        <time>2026-04-26T18:34:48.626Z</time>
      </trkpt>
      <trkpt lat="49.209199" lon="10.087620">
        <ele>453.880052</ele>
        <time>2026-04-26T18:35:02.756Z</time>
      </trkpt>
      <trkpt lat="49.209437" lon="10.087794">
        <ele>454.589981</ele>
        <time>2026-04-26T18:35:09.886Z</time>
      </trkpt>
      <trkpt lat="49.209579" lon="10.087960">
        <ele>455.070910</ele>
        <time>2026-04-26T18:35:14.566Z</time>
      </trkpt>
      <trkpt lat="49.209764" lon="10.088354">
        <ele>455.924116</ele>
        <time>2026-04-26T18:35:22.522Z</time>
      </trkpt>
      <trkpt lat="49.209864" lon="10.088677">
        <ele>456.552639</ele>
        <time>2026-04-26T18:35:28.119Z</time>
      </trkpt>
      <trkpt lat="49.209906" lon="10.089033">
        <ele>457.188763</ele>
        <time>2026-04-26T18:35:33.607Z</time>
      </trkpt>
      <trkpt lat="49.209932" lon="10.089752">
        <ele>458.455004</ele>
        <time>2026-04-26T18:35:44.027Z</time>
      </trkpt>
      <trkpt lat="49.209974" lon="10.090101">
        <ele>458.525761</ele>
        <time>2026-04-26T18:35:48.671Z</time>
      </trkpt>
      <trkpt lat="49.210078" lon="10.090406">
        <ele>458.348172</ele>
        <time>2026-04-26T18:35:52.940Z</time>
      </trkpt>
      <trkpt lat="49.210249" lon="10.090753">
        <ele>458.123813</ele>
        <time>2026-04-26T18:35:58.066Z</time>
      </trkpt>
      <trkpt lat="49.210547" lon="10.091062">
        <ele>457.839420</ele>
        <time>2026-04-26T18:36:04.447Z</time>
      </trkpt>
      <trkpt lat="49.211264" lon="10.091648">
        <ele>457.271827</ele>
        <time>2026-04-26T18:36:20.295Z</time>
      </trkpt>
      <trkpt lat="49.211328" lon="10.091700">
        <ele>457.344212</ele>
        <time>2026-04-26T18:36:21.850Z</time>
      </trkpt>
      <trkpt lat="49.211755" lon="10.091998">
        <ele>457.813030</ele>
        <time>2026-04-26T18:36:32.454Z</time>
      </trkpt>
      <trkpt lat="49.212060" lon="10.092159">
        <ele>458.135335</ele>
        <time>2026-04-26T18:36:40.036Z</time>
      </trkpt>
      <trkpt lat="49.212674" lon="10.092339">
        <ele>458.759873</ele>
        <time>2026-04-26T18:36:54.736Z</time>
      </trkpt>
      <trkpt lat="49.213016" lon="10.092488">
        <ele>458.869144</ele>
        <time>2026-04-26T18:37:02.550Z</time>
      </trkpt>
      <trkpt lat="49.213356" lon="10.092724">
        <ele>458.200655</ele>
        <time>2026-04-26T18:37:09.894Z</time>
      </trkpt>
      <trkpt lat="49.213911" lon="10.093126">
        <ele>457.101203</ele>
        <time>2026-04-26T18:37:20.451Z</time>
      </trkpt>
      <trkpt lat="49.214544" lon="10.093585">
        <ele>455.846984</ele>
        <time>2026-04-26T18:37:31.890Z</time>
      </trkpt>
      <trkpt lat="49.214707" lon="10.093704">
        <ele>455.680081</ele>
        <time>2026-04-26T18:37:34.998Z</time>
      </trkpt>
      <trkpt lat="49.214831" lon="10.093851">
        <ele>455.554713</ele>
        <time>2026-04-26T18:37:37.766Z</time>
      </trkpt>
      <trkpt lat="49.215110" lon="10.094267">
        <ele>455.243384</ele>
        <time>2026-04-26T18:37:44.779Z</time>
      </trkpt>
      <trkpt lat="49.215190" lon="10.094342">
        <ele>455.168396</ele>
        <time>2026-04-26T18:37:46.538Z</time>
      </trkpt>
      <trkpt lat="49.215282" lon="10.094363">
        <ele>455.094041</ele>
        <time>2026-04-26T18:37:48.277Z</time>
      </trkpt>
      <trkpt lat="49.215536" lon="10.094296">
        <ele>454.888008</ele>
        <time>2026-04-26T18:37:53.390Z</time>
      </trkpt>
      <trkpt lat="49.215670" lon="10.094302">
        <ele>454.780846</ele>
        <time>2026-04-26T18:37:56.240Z</time>
      </trkpt>
      <trkpt lat="49.216056" lon="10.094460">
        <ele>454.461450</ele>
        <time>2026-04-26T18:38:05.210Z</time>
      </trkpt>
      <trkpt lat="49.216425" lon="10.094397">
        <ele>454.330515</ele>
        <time>2026-04-26T18:38:13.657Z</time>
      </trkpt>
      <trkpt lat="49.216827" lon="10.094312">
        <ele>454.270105</ele>
        <time>2026-04-26T18:38:22.580Z</time>
      </trkpt>
      <trkpt lat="49.217146" lon="10.094328">
        <ele>454.222594</ele>
        <time>2026-04-26T18:38:29.544Z</time>
      </trkpt>
      <trkpt lat="49.217147" lon="10.094428">
        <ele>454.212869</ele>
        <time>2026-04-26T18:38:30.922Z</time>
      </trkpt>
      <trkpt lat="49.217151" lon="10.094678">
        <ele>454.188553</ele>
        <time>2026-04-26T18:38:34.383Z</time>
      </trkpt>
      <trkpt lat="49.217184" lon="10.094911">
        <ele>454.165371</ele>
        <time>2026-04-26T18:38:37.632Z</time>
      </trkpt>
      <trkpt lat="49.217233" lon="10.095083">
        <ele>454.147126</ele>
        <time>2026-04-26T18:38:40.156Z</time>
      </trkpt>
      <trkpt lat="49.217423" lon="10.095515">
        <ele>454.021926</ele>
        <time>2026-04-26T18:38:46.582Z</time>
      </trkpt>
      <trkpt lat="49.217561" lon="10.095759">
        <ele>453.438505</ele>
        <time>2026-04-26T18:38:50.133Z</time>
      </trkpt>
      <trkpt lat="49.217658" lon="10.095970">
        <ele>452.972105</ele>
        <time>2026-04-26T18:38:52.831Z</time>
      </trkpt>
      <trkpt lat="49.217870" lon="10.096592">
        <ele>451.703907</ele>
        <time>2026-04-26T18:39:00.236Z</time>
      </trkpt>
      <trkpt lat="49.217923" lon="10.096861">
        <ele>451.196021</ele>
        <time>2026-04-26T18:39:03.207Z</time>
      </trkpt>
      <trkpt lat="49.217955" lon="10.097032">
        <ele>450.874485</ele>
        <time>2026-04-26T18:39:05.086Z</time>
      </trkpt>
      <trkpt lat="49.218365" lon="10.096953">
        <ele>449.730910</ele>
        <time>2026-04-26T18:39:11.865Z</time>
      </trkpt>
      <trkpt lat="49.218761" lon="10.097010">
        <ele>448.759150</ele>
        <time>2026-04-26T18:39:18.578Z</time>
      </trkpt>
      <trkpt lat="49.219144" lon="10.097226">
        <ele>447.925068</ele>
        <time>2026-04-26T18:39:25.505Z</time>
      </trkpt>
      <trkpt lat="49.219617" lon="10.097549">
        <ele>446.866694</ele>
        <time>2026-04-26T18:39:34.527Z</time>
      </trkpt>
      <trkpt lat="49.220276" lon="10.097664">
        <ele>445.511295</ele>
        <time>2026-04-26T18:39:46.896Z</time>
      </trkpt>
      <trkpt lat="49.221012" lon="10.097764">
        <ele>445.029575</ele>
        <time>2026-04-26T18:40:00.519Z</time>
      </trkpt>
      <trkpt lat="49.221056" lon="10.097845">
        <ele>444.988929</ele>
        <time>2026-04-26T18:40:01.880Z</time>
      </trkpt>
      <trkpt lat="49.221148" lon="10.098338">
        <ele>444.791113</ele>
        <time>2026-04-26T18:40:08.616Z</time>
      </trkpt>
      <trkpt lat="49.221184" lon="10.098555">
        <ele>444.704734</ele>
        <time>2026-04-26T18:40:11.670Z</time>
      </trkpt>
      <trkpt lat="49.221275" lon="10.099135">
        <ele>444.474599</ele>
        <time>2026-04-26T18:40:19.980Z</time>
      </trkpt>
      <trkpt lat="49.221312" lon="10.099249">
        <ele>444.425485</ele>
        <time>2026-04-26T18:40:21.791Z</time>
      </trkpt>
      <trkpt lat="49.221911" lon="10.099792">
        <ele>444.720007</ele>
        <time>2026-04-26T18:40:37.005Z</time>
      </trkpt>
      <trkpt lat="49.222547" lon="10.100989">
        <ele>445.257438</ele>
        <time>2026-04-26T18:40:59.552Z</time>
      </trkpt>
      <trkpt lat="49.222631" lon="10.101103">
        <ele>445.317296</ele>
        <time>2026-04-26T18:41:01.953Z</time>
      </trkpt>
      <trkpt lat="49.223087" lon="10.101466">
        <ele>445.196092</ele>
        <time>2026-04-26T18:41:12.739Z</time>
      </trkpt>
      <trkpt lat="49.223311" lon="10.101705">
        <ele>445.108727</ele>
        <time>2026-04-26T18:41:18.304Z</time>
      </trkpt>
      <trkpt lat="49.224735" lon="10.103898">
        <ele>444.389949</ele>
        <time>2026-04-26T18:41:58.804Z</time>
      </trkpt>
      <trkpt lat="49.224968" lon="10.104136">
        <ele>444.279112</ele>
        <time>2026-04-26T18:42:04.531Z</time>
      </trkpt>
      <trkpt lat="49.225778" lon="10.104394">
        <ele>444.097894</ele>
        <time>2026-04-26T18:42:21.725Z</time>
      </trkpt>
      <trkpt lat="49.226168" lon="10.104626">
        <ele>444.162161</ele>
        <time>2026-04-26T18:42:30.608Z</time>
      </trkpt>
      <trkpt lat="49.226475" lon="10.104882">
        <ele>444.215856</ele>
        <time>2026-04-26T18:42:38.105Z</time>
      </trkpt>
      <trkpt lat="49.226781" lon="10.105218">
        <ele>444.273694</ele>
        <time>2026-04-26T18:42:46.282Z</time>
      </trkpt>
      <trkpt lat="49.227253" lon="10.105826">
        <ele>444.389973</ele>
        <time>2026-04-26T18:42:59.707Z</time>
      </trkpt>
      <trkpt lat="49.227797" lon="10.106836">
        <ele>444.601784</ele>
        <time>2026-04-26T18:43:18.237Z</time>
      </trkpt>
      <trkpt lat="49.227979" lon="10.107143">
        <ele>444.668865</ele>
        <time>2026-04-26T18:43:24.038Z</time>
      </trkpt>
      <trkpt lat="49.228191" lon="10.107409">
        <ele>444.736765</ele>
        <time>2026-04-26T18:43:29.868Z</time>
      </trkpt>
      <trkpt lat="49.228390" lon="10.107600">
        <ele>444.781136</ele>
        <time>2026-04-26T18:43:34.845Z</time>
      </trkpt>
      <trkpt lat="49.228840" lon="10.107848">
        <ele>444.797718</ele>
        <time>2026-04-26T18:43:44.911Z</time>
      </trkpt>
      <trkpt lat="49.229917" lon="10.108077">
        <ele>444.835417</ele>
        <time>2026-04-26T18:44:07.824Z</time>
      </trkpt>
      <trkpt lat="49.230558" lon="10.108268">
        <ele>444.972295</ele>
        <time>2026-04-26T18:44:21.694Z</time>
      </trkpt>
      <trkpt lat="49.230931" lon="10.108452">
        <ele>445.078223</ele>
        <time>2026-04-26T18:44:30.077Z</time>
      </trkpt>
      <trkpt lat="49.231360" lon="10.108718">
        <ele>445.203331</ele>
        <time>2026-04-26T18:44:40.082Z</time>
      </trkpt>
      <trkpt lat="49.231976" lon="10.109317">
        <ele>445.469080</ele>
        <time>2026-04-26T18:44:56.087Z</time>
      </trkpt>
      <trkpt lat="49.232672" lon="10.110203">
        <ele>445.942893</ele>
        <time>2026-04-26T18:45:16.143Z</time>
      </trkpt>
      <trkpt lat="49.232993" lon="10.110688">
        <ele>446.178962</ele>
        <time>2026-04-26T18:45:26.003Z</time>
      </trkpt>
      <trkpt lat="49.233404" lon="10.111475">
        <ele>446.521043</ele>
        <time>2026-04-26T18:45:40.084Z</time>
      </trkpt>
      <trkpt lat="49.233422" lon="10.111453">
        <ele>446.532985</ele>
        <time>2026-04-26T18:45:40.569Z</time>
      </trkpt>
      <trkpt lat="49.233481" lon="10.111385">
        <ele>446.571276</ele>
        <time>2026-04-26T18:45:42.141Z</time>
      </trkpt>
      <trkpt lat="49.233834" lon="10.110976">
        <ele>446.800810</ele>
        <time>2026-04-26T18:45:51.587Z</time>
      </trkpt>
      <trkpt lat="49.234302" lon="10.110160">
        <ele>447.168554</ele>
        <time>2026-04-26T18:46:07.128Z</time>
      </trkpt>
      <trkpt lat="49.234732" lon="10.109165">
        <ele>448.952109</ele>
        <time>2026-04-26T18:46:25.310Z</time>
      </trkpt>
      <trkpt lat="49.236136" lon="10.109326">
        <ele>452.162967</ele>
        <time>2026-04-26T18:46:59.747Z</time>
      </trkpt>
      <trkpt lat="49.237838" lon="10.108572">
        <ele>454.536391</ele>
        <time>2026-04-26T18:47:40.391Z</time>
      </trkpt>
      <trkpt lat="49.240645" lon="10.107355">
        <ele>452.688257</ele>
        <time>2026-04-26T18:48:36.207Z</time>
      </trkpt>
      <trkpt lat="49.240760" lon="10.107319">
        <ele>452.604240</ele>
        <time>2026-04-26T18:48:38.587Z</time>
      </trkpt>
      <trkpt lat="49.242332" lon="10.106629">
        <ele>453.136454</ele>
        <time>2026-04-26T18:49:14.736Z</time>
      </trkpt>
      <trkpt lat="49.243345" lon="10.106180">
        <ele>453.150005</ele>
        <time>2026-04-26T18:49:38.075Z</time>
      </trkpt>
      <trkpt lat="49.243877" lon="10.106278">
        <ele>452.968373</ele>
        <time>2026-04-26T18:49:48.738Z</time>
      </trkpt>
      <trkpt lat="49.244111" lon="10.106332">
        <ele>452.888159</ele>
        <time>2026-04-26T18:49:53.300Z</time>
      </trkpt>
      <trkpt lat="49.244575" lon="10.106507">
        <ele>452.697044</ele>
        <time>2026-04-26T18:50:02.304Z</time>
      </trkpt>
      <trkpt lat="49.245884" lon="10.106950">
        <ele>451.740427</ele>
        <time>2026-04-26T18:50:28.444Z</time>
      </trkpt>
      <trkpt lat="49.247030" lon="10.107380">
        <ele>451.773165</ele>
        <time>2026-04-26T18:50:53.426Z</time>
      </trkpt>
      <trkpt lat="49.247299" lon="10.107454">
        <ele>451.877117</ele>
        <time>2026-04-26T18:50:59.384Z</time>
      </trkpt>
      <trkpt lat="49.247456" lon="10.107429">
        <ele>451.937155</ele>
        <time>2026-04-26T18:51:02.856Z</time>
      </trkpt>
      <trkpt lat="49.249912" lon="10.106280">
        <ele>453.673767</ele>
        <time>2026-04-26T18:52:00.416Z</time>
      </trkpt>
      <trkpt lat="49.250453" lon="10.109094">
        <ele>453.147720</ele>
        <time>2026-04-26T18:52:40.459Z</time>
      </trkpt>
      <trkpt lat="49.250040" lon="10.109400">
        <ele>452.356995</ele>
        <time>2026-04-26T18:52:48.769Z</time>
      </trkpt>
      <trkpt lat="49.249960" lon="10.110356">
        <ele>451.272606</ele>
        <time>2026-04-26T18:52:59.519Z</time>
      </trkpt>
      <trkpt lat="49.249887" lon="10.111629">
        <ele>449.908828</ele>
        <time>2026-04-26T18:53:13.728Z</time>
      </trkpt>
      <trkpt lat="49.249870" lon="10.111928">
        <ele>449.604012</ele>
        <time>2026-04-26T18:53:17.176Z</time>
      </trkpt>
      <trkpt lat="49.249900" lon="10.112555">
        <ele>448.965519</ele>
        <time>2026-04-26T18:53:24.603Z</time>
      </trkpt>
      <trkpt lat="49.249984" lon="10.113215">
        <ele>448.282597</ele>
        <time>2026-04-26T18:53:32.866Z</time>
      </trkpt>
      <trkpt lat="49.250134" lon="10.114090">
        <ele>447.836278</ele>
        <time>2026-04-26T18:53:44.648Z</time>
      </trkpt>
      <trkpt lat="49.250090" lon="10.114465">
        <ele>447.871720</ele>
        <time>2026-04-26T18:53:50.041Z</time>
      </trkpt>
      <trkpt lat="49.250024" lon="10.114733">
        <ele>447.898365</ele>
        <time>2026-04-26T18:53:54.164Z</time>
      </trkpt>
      <trkpt lat="49.249936" lon="10.114869">
        <ele>447.916179</ele>
        <time>2026-04-26T18:53:56.937Z</time>
      </trkpt>
      <trkpt lat="49.250024" lon="10.114733">
        <ele>447.933992</ele>
        <time>2026-04-26T18:53:59.729Z</time>
      </trkpt>
      <trkpt lat="49.250090" lon="10.114465">
        <ele>447.960637</ele>
        <time>2026-04-26T18:54:03.936Z</time>
      </trkpt>
      <trkpt lat="49.250134" lon="10.114090">
        <ele>447.996079</ele>
        <time>2026-04-26T18:54:09.566Z</time>
      </trkpt>
      <trkpt lat="49.250653" lon="10.117179">
        <ele>449.389695</ele>
        <time>2026-04-26T18:54:56.111Z</time>
      </trkpt>
      <trkpt lat="49.250790" lon="10.117640">
        <ele>449.626457</ele>
        <time>2026-04-26T18:55:03.425Z</time>
      </trkpt>
      <trkpt lat="49.251136" lon="10.118496">
        <ele>450.069428</ele>
        <time>2026-04-26T18:55:17.933Z</time>
      </trkpt>
      <trkpt lat="49.252229" lon="10.121113">
        <ele>451.406059</ele>
        <time>2026-04-26T18:56:02.796Z</time>
      </trkpt>
      <trkpt lat="49.252616" lon="10.122116">
        <ele>451.932850</ele>
        <time>2026-04-26T18:56:19.558Z</time>
      </trkpt>
      <trkpt lat="49.253119" lon="10.123621">
        <ele>453.257229</ele>
        <time>2026-04-26T18:56:44.321Z</time>
      </trkpt>
      <trkpt lat="49.253222" lon="10.124125">
        <ele>453.670895</ele>
        <time>2026-04-26T18:56:52.245Z</time>
      </trkpt>
      <trkpt lat="49.253271" lon="10.127210">
        <ele>457.272397</ele>
        <time>2026-04-26T18:57:39.179Z</time>
      </trkpt>
      <trkpt lat="49.253307" lon="10.128287">
        <ele>458.308484</ele>
        <time>2026-04-26T18:57:55.560Z</time>
      </trkpt>
      <trkpt lat="49.253664" lon="10.129994">
        <ele>459.969301</ele>
        <time>2026-04-26T18:58:22.415Z</time>
      </trkpt>
      <trkpt lat="49.253320" lon="10.131495">
        <ele>459.663061</ele>
        <time>2026-04-26T18:58:44.253Z</time>
      </trkpt>
      <trkpt lat="49.253283" lon="10.131544">
        <ele>459.648637</ele>
        <time>2026-04-26T18:58:45.190Z</time>
      </trkpt>
      <trkpt lat="49.252631" lon="10.131753">
        <ele>459.452181</ele>
        <time>2026-04-26T18:58:57.833Z</time>
      </trkpt>
      <trkpt lat="49.252578" lon="10.131819">
        <ele>459.431923</ele>
        <time>2026-04-26T18:58:59.062Z</time>
      </trkpt>
      <trkpt lat="49.252583" lon="10.131906">
        <ele>459.414869</ele>
        <time>2026-04-26T18:59:00.198Z</time>
      </trkpt>
      <trkpt lat="49.252880" lon="10.132906">
        <ele>459.200333</ele>
        <time>2026-04-26T18:59:14.373Z</time>
      </trkpt>
      <trkpt lat="49.252940" lon="10.133062">
        <ele>459.164976</ele>
        <time>2026-04-26T18:59:16.818Z</time>
      </trkpt>
      <trkpt lat="49.253346" lon="10.133588">
        <ele>459.005908</ele>
        <time>2026-04-26T18:59:28.201Z</time>
      </trkpt>
      <trkpt lat="49.253650" lon="10.134274">
        <ele>458.847980</ele>
        <time>2026-04-26T18:59:40.021Z</time>
      </trkpt>
      <trkpt lat="49.254650" lon="10.135987">
        <ele>458.430083</ele>
        <time>2026-04-26T19:00:11.676Z</time>
      </trkpt>
      <trkpt lat="49.254996" lon="10.137523">
        <ele>454.296144</ele>
        <time>2026-04-26T19:00:29.784Z</time>
      </trkpt>
      <trkpt lat="49.253650" lon="10.138557">
        <ele>446.768239</ele>
        <time>2026-04-26T19:00:51.379Z</time>
      </trkpt>
      <trkpt lat="49.253124" lon="10.138960">
        <ele>443.301353</ele>
        <time>2026-04-26T19:00:59.824Z</time>
      </trkpt>
      <trkpt lat="49.252767" lon="10.139287">
        <ele>440.849388</ele>
        <time>2026-04-26T19:01:06.074Z</time>
      </trkpt>
      <trkpt lat="49.253526" lon="10.141958">
        <ele>435.145518</ele>
        <time>2026-04-26T19:01:38.319Z</time>
      </trkpt>
      <trkpt lat="49.254817" lon="10.146535">
        <ele>427.636996</ele>
        <time>2026-04-26T19:02:34.064Z</time>
      </trkpt>
      <trkpt lat="49.255092" lon="10.147518">
        <ele>426.301977</ele>
        <time>2026-04-26T19:02:46.506Z</time>
      </trkpt>
      <trkpt lat="49.255398" lon="10.148222">
        <ele>425.427202</ele>
        <time>2026-04-26T19:02:56.548Z</time>
      </trkpt>
      <trkpt lat="49.257138" lon="10.151238">
        <ele>421.659078</ele>
        <time>2026-04-26T19:03:45.112Z</time>
      </trkpt>
      <trkpt lat="49.257525" lon="10.151904">
        <ele>421.342797</ele>
        <time>2026-04-26T19:03:56.512Z</time>
      </trkpt>
      <trkpt lat="49.257666" lon="10.152247">
        <ele>421.239219</ele>
        <time>2026-04-26T19:04:01.727Z</time>
      </trkpt>
      <trkpt lat="49.257739" lon="10.152689">
        <ele>421.122721</ele>
        <time>2026-04-26T19:04:07.704Z</time>
      </trkpt>
      <trkpt lat="49.257846" lon="10.153095">
        <ele>421.010842</ele>
        <time>2026-04-26T19:04:13.559Z</time>
      </trkpt>
      <trkpt lat="49.258021" lon="10.153502">
        <ele>420.886308</ele>
        <time>2026-04-26T19:04:20.362Z</time>
      </trkpt>
      <trkpt lat="49.258157" lon="10.153768">
        <ele>420.864943</ele>
        <time>2026-04-26T19:04:25.201Z</time>
      </trkpt>
      <trkpt lat="49.258513" lon="10.154310">
        <ele>421.086963</ele>
        <time>2026-04-26T19:04:36.348Z</time>
      </trkpt>
      <trkpt lat="49.258507" lon="10.154331">
        <ele>421.093582</ele>
        <time>2026-04-26T19:04:36.694Z</time>
      </trkpt>
      <trkpt lat="49.258477" lon="10.154424">
        <ele>421.123534</ele>
        <time>2026-04-26T19:04:38.232Z</time>
      </trkpt>
      <trkpt lat="49.258457" lon="10.154818">
        <ele>421.237636</ele>
        <time>2026-04-26T19:04:44.035Z</time>
      </trkpt>
      <trkpt lat="49.258283" lon="10.154969">
        <ele>421.326102</ele>
        <time>2026-04-26T19:04:48.581Z</time>
      </trkpt>
      <trkpt lat="49.258119" lon="10.155137">
        <ele>421.413376</ele>
        <time>2026-04-26T19:04:53.045Z</time>
      </trkpt>
      <trkpt lat="49.258122" lon="10.155649">
        <ele>421.561211</ele>
        <time>2026-04-26T19:05:00.437Z</time>
      </trkpt>
      <trkpt lat="49.258174" lon="10.155727">
        <ele>421.593404</ele>
        <time>2026-04-26T19:05:02.037Z</time>
      </trkpt>
      <trkpt lat="49.258122" lon="10.155649">
        <ele>421.625597</ele>
        <time>2026-04-26T19:05:03.480Z</time>
      </trkpt>
      <trkpt lat="49.258119" lon="10.155137">
        <ele>420.856429</ele>
        <time>2026-04-26T19:05:09.786Z</time>
      </trkpt>
      <trkpt lat="49.258283" lon="10.154969">
        <ele>420.400209</ele>
        <time>2026-04-26T19:05:13.230Z</time>
      </trkpt>
      <trkpt lat="49.258457" lon="10.154818">
        <ele>419.937759</ele>
        <time>2026-04-26T19:05:16.581Z</time>
      </trkpt>
      <trkpt lat="49.258477" lon="10.154424">
        <ele>419.341296</ele>
        <time>2026-04-26T19:05:20.895Z</time>
      </trkpt>
      <trkpt lat="49.258507" lon="10.154331">
        <ele>419.184720</ele>
        <time>2026-04-26T19:05:21.990Z</time>
      </trkpt>
      <trkpt lat="49.258513" lon="10.154310">
        <ele>419.150121</ele>
        <time>2026-04-26T19:05:22.239Z</time>
      </trkpt>
      <trkpt lat="49.258823" lon="10.154286">
        <ele>418.432303</ele>
        <time>2026-04-26T19:05:27.256Z</time>
      </trkpt>
      <trkpt lat="49.259546" lon="10.154336">
        <ele>416.747302</ele>
        <time>2026-04-26T19:05:39.008Z</time>
      </trkpt>
      <trkpt lat="49.259714" lon="10.154228">
        <ele>416.319258</ele>
        <time>2026-04-26T19:05:42.060Z</time>
      </trkpt>
      <trkpt lat="49.260028" lon="10.153900">
        <ele>415.426398</ele>
        <time>2026-04-26T19:05:49.082Z</time>
      </trkpt>
      <trkpt lat="49.260093" lon="10.153854">
        <ele>415.258180</ele>
        <time>2026-04-26T19:05:50.438Z</time>
      </trkpt>
      <trkpt lat="49.260537" lon="10.153722">
        <ele>414.195557</ele>
        <time>2026-04-26T19:05:58.964Z</time>
      </trkpt>
      <trkpt lat="49.260602" lon="10.153657">
        <ele>414.013196</ele>
        <time>2026-04-26T19:06:00.409Z</time>
      </trkpt>
      <trkpt lat="49.261112" lon="10.152873">
        <ele>412.149315</ele>
        <time>2026-04-26T19:06:13.484Z</time>
      </trkpt>
      <trkpt lat="49.261715" lon="10.151977">
        <ele>409.820424</ele>
        <time>2026-04-26T19:06:27.755Z</time>
      </trkpt>
      <trkpt lat="49.262230" lon="10.151733">
        <ele>408.325821</ele>
        <time>2026-04-26T19:06:36.944Z</time>
      </trkpt>
      <trkpt lat="49.263904" lon="10.150962">
        <ele>405.752234</ele>
        <time>2026-04-26T19:07:10.469Z</time>
      </trkpt>
      <trkpt lat="49.264365" lon="10.150780">
        <ele>406.374806</ele>
        <time>2026-04-26T19:07:20.899Z</time>
      </trkpt>
      <trkpt lat="49.264735" lon="10.150678">
        <ele>407.065582</ele>
        <time>2026-04-26T19:07:29.590Z</time>
      </trkpt>
      <trkpt lat="49.265208" lon="10.150687">
        <ele>407.934771</ele>
        <time>2026-04-26T19:07:40.964Z</time>
      </trkpt>
      <trkpt lat="49.265432" lon="10.150726">
        <ele>408.349011</ele>
        <time>2026-04-26T19:07:46.538Z</time>
      </trkpt>
      <trkpt lat="49.266345" lon="10.150965">
        <ele>411.811298</ele>
        <time>2026-04-26T19:08:11.291Z</time>
      </trkpt>
      <trkpt lat="49.266728" lon="10.150859">
        <ele>413.665639</ele>
        <time>2026-04-26T19:08:22.746Z</time>
      </trkpt>
      <trkpt lat="49.267537" lon="10.150426">
        <ele>417.700970</ele>
        <time>2026-04-26T19:08:45.903Z</time>
      </trkpt>
      <trkpt lat="49.267635" lon="10.150403">
        <ele>418.076986</ele>
        <time>2026-04-26T19:08:48.427Z</time>
      </trkpt>
      <trkpt lat="49.267986" lon="10.150446">
        <ele>419.412462</ele>
        <time>2026-04-26T19:08:57.229Z</time>
      </trkpt>
      <trkpt lat="49.268219" lon="10.150551">
        <ele>420.333570</ele>
        <time>2026-04-26T19:09:03.236Z</time>
      </trkpt>
      <trkpt lat="49.268406" lon="10.150580">
        <ele>421.046423</ele>
        <time>2026-04-26T19:09:07.887Z</time>
      </trkpt>
      <trkpt lat="49.268510" lon="10.150537">
        <ele>421.454964</ele>
        <time>2026-04-26T19:09:10.521Z</time>
      </trkpt>
      <trkpt lat="49.268583" lon="10.150507">
        <ele>421.741612</ele>
        <time>2026-04-26T19:09:12.396Z</time>
      </trkpt>
      <trkpt lat="49.268834" lon="10.150219">
        <ele>422.930822</ele>
        <time>2026-04-26T19:09:20.152Z</time>
      </trkpt>
      <trkpt lat="49.269001" lon="10.149835">
        <ele>424.072860</ele>
        <time>2026-04-26T19:09:28.024Z</time>
      </trkpt>
      <trkpt lat="49.269252" lon="10.148774">
        <ele>426.923407</ele>
        <time>2026-04-26T19:09:49.238Z</time>
      </trkpt>
      <trkpt lat="49.269568" lon="10.147941">
        <ele>429.362248</ele>
        <time>2026-04-26T19:10:06.721Z</time>
      </trkpt>
      <trkpt lat="49.270046" lon="10.147087">
        <ele>430.547856</ele>
        <time>2026-04-26T19:10:24.154Z</time>
      </trkpt>
      <trkpt lat="49.270441" lon="10.146371">
        <ele>428.517401</ele>
        <time>2026-04-26T19:10:34.901Z</time>
      </trkpt>
      <trkpt lat="49.271304" lon="10.144295">
        <ele>422.058485</ele>
        <time>2026-04-26T19:10:59.850Z</time>
      </trkpt>
      <trkpt lat="49.271487" lon="10.144026">
        <ele>420.776865</ele>
        <time>2026-04-26T19:11:03.785Z</time>
      </trkpt>
      <trkpt lat="49.272630" lon="10.142707">
        <ele>414.721350</ele>
        <time>2026-04-26T19:11:26.795Z</time>
      </trkpt>
      <trkpt lat="49.273520" lon="10.141743">
        <ele>411.604938</ele>
        <time>2026-04-26T19:11:46.384Z</time>
      </trkpt>
      <trkpt lat="49.273630" lon="10.141624">
        <ele>411.219922</ele>
        <time>2026-04-26T19:11:49.080Z</time>
      </trkpt>
      <trkpt lat="49.273829" lon="10.141341">
        <ele>410.922808</ele>
        <time>2026-04-26T19:11:54.501Z</time>
      </trkpt>
      <trkpt lat="49.274018" lon="10.140997">
        <ele>410.686760</ele>
        <time>2026-04-26T19:12:00.297Z</time>
      </trkpt>
      <trkpt lat="49.274254" lon="10.140627">
        <ele>410.415173</ele>
        <time>2026-04-26T19:12:07.106Z</time>
      </trkpt>
      <trkpt lat="49.274339" lon="10.140566">
        <ele>410.339668</ele>
        <time>2026-04-26T19:12:09.055Z</time>
      </trkpt>
      <trkpt lat="49.274473" lon="10.140543">
        <ele>410.231195</ele>
        <time>2026-04-26T19:12:11.883Z</time>
      </trkpt>
      <trkpt lat="49.274804" lon="10.140526">
        <ele>409.964765</ele>
        <time>2026-04-26T19:12:18.963Z</time>
      </trkpt>
      <trkpt lat="49.275074" lon="10.140565">
        <ele>409.746595</ele>
        <time>2026-04-26T19:12:24.809Z</time>
      </trkpt>
      <trkpt lat="49.275183" lon="10.140544">
        <ele>409.666394</ele>
        <time>2026-04-26T19:12:27.188Z</time>
      </trkpt>
      <trkpt lat="49.275392" lon="10.140384">
        <ele>409.773992</ele>
        <time>2026-04-26T19:12:32.230Z</time>
      </trkpt>
      <trkpt lat="49.275606" lon="10.140050">
        <ele>409.914660</ele>
        <time>2026-04-26T19:12:38.851Z</time>
      </trkpt>
      <trkpt lat="49.275699" lon="10.139905">
        <ele>409.975759</ele>
        <time>2026-04-26T19:12:41.794Z</time>
      </trkpt>
      <trkpt lat="49.275862" lon="10.139773">
        <ele>410.060666</ele>
        <time>2026-04-26T19:12:45.962Z</time>
      </trkpt>
      <trkpt lat="49.276348" lon="10.139594">
        <ele>410.290877</ele>
        <time>2026-04-26T19:12:57.451Z</time>
      </trkpt>
      <trkpt lat="49.276572" lon="10.139481">
        <ele>410.399489</ele>
        <time>2026-04-26T19:13:02.859Z</time>
      </trkpt>
      <trkpt lat="49.277624" lon="10.139094">
        <ele>412.038403</ele>
        <time>2026-04-26T19:13:27.492Z</time>
      </trkpt>
      <trkpt lat="49.277982" lon="10.139051">
        <ele>412.668510</ele>
        <time>2026-04-26T19:13:35.924Z</time>
      </trkpt>
      <trkpt lat="49.279076" lon="10.139076">
        <ele>414.000506</ele>
        <time>2026-04-26T19:14:01.950Z</time>
      </trkpt>
      <trkpt lat="49.279557" lon="10.139039">
        <ele>414.317352</ele>
        <time>2026-04-26T19:14:12.927Z</time>
      </trkpt>
      <trkpt lat="49.280151" lon="10.138958">
        <ele>414.709684</ele>
        <time>2026-04-26T19:14:25.182Z</time>
      </trkpt>
      <trkpt lat="49.280774" lon="10.138788">
        <ele>414.012196</ele>
        <time>2026-04-26T19:14:36.200Z</time>
      </trkpt>
      <trkpt lat="49.281386" lon="10.138614">
        <ele>412.874465</ele>
        <time>2026-04-26T19:14:46.691Z</time>
      </trkpt>
      <trkpt lat="49.281704" lon="10.138414">
        <ele>412.246184</ele>
        <time>2026-04-26T19:14:52.688Z</time>
      </trkpt>
      <trkpt lat="49.282104" lon="10.138089">
        <ele>411.605484</ele>
        <time>2026-04-26T19:15:01.046Z</time>
      </trkpt>
      <trkpt lat="49.282429" lon="10.137672">
        <ele>411.989883</ele>
        <time>2026-04-26T19:15:09.763Z</time>
      </trkpt>
      <trkpt lat="49.282478" lon="10.137541">
        <ele>412.079228</ele>
        <time>2026-04-26T19:15:11.920Z</time>
      </trkpt>
      <trkpt lat="49.282573" lon="10.137589">
        <ele>412.169952</ele>
        <time>2026-04-26T19:15:14.123Z</time>
      </trkpt>
      <trkpt lat="49.282747" lon="10.137557">
        <ele>412.328900</ele>
        <time>2026-04-26T19:15:18.053Z</time>
      </trkpt>
      <trkpt lat="49.282888" lon="10.137405">
        <ele>412.485241</ele>
        <time>2026-04-26T19:15:21.976Z</time>
      </trkpt>
      <trkpt lat="49.283355" lon="10.136578">
        <ele>413.132403</ele>
        <time>2026-04-26T19:15:38.668Z</time>
      </trkpt>
      <trkpt lat="49.283821" lon="10.135749">
        <ele>413.993849</ele>
        <time>2026-04-26T19:15:55.633Z</time>
      </trkpt>
      <trkpt lat="49.284013" lon="10.135530">
        <ele>414.287682</ele>
        <time>2026-04-26T19:16:01.306Z</time>
      </trkpt>
      <trkpt lat="49.285028" lon="10.134873">
        <ele>414.698000</ele>
        <time>2026-04-26T19:16:25.583Z</time>
      </trkpt>
      <trkpt lat="49.285103" lon="10.134855">
        <ele>414.449626</ele>
        <time>2026-04-26T19:16:26.929Z</time>
      </trkpt>
      <trkpt lat="49.285508" lon="10.134760">
        <ele>413.109126</ele>
        <time>2026-04-26T19:16:33.808Z</time>
      </trkpt>
      <trkpt lat="49.285641" lon="10.134625">
        <ele>412.587242</ele>
        <time>2026-04-26T19:16:36.334Z</time>
      </trkpt>
      <trkpt lat="49.285926" lon="10.134230">
        <ele>411.330214</ele>
        <time>2026-04-26T19:16:42.193Z</time>
      </trkpt>
      <trkpt lat="49.286803" lon="10.133599">
        <ele>408.092249</ele>
        <time>2026-04-26T19:16:56.680Z</time>
      </trkpt>
      <trkpt lat="49.288700" lon="10.132087">
        <ele>402.872256</ele>
        <time>2026-04-26T19:17:32.335Z</time>
      </trkpt>
      <trkpt lat="49.288785" lon="10.132069">
        <ele>402.821694</ele>
        <time>2026-04-26T19:17:34.055Z</time>
      </trkpt>
      <trkpt lat="49.288173" lon="10.128075">
        <ele>404.643398</ele>
        <time>2026-04-26T19:18:36.625Z</time>
      </trkpt>
      <trkpt lat="49.292511" lon="10.128526">
        <ele>415.281254</ele>
        <time>2026-04-26T19:20:20.230Z</time>
      </trkpt>
      <trkpt lat="49.295634" lon="10.128067">
        <ele>422.211173</ele>
        <time>2026-04-26T19:21:34.810Z</time>
      </trkpt>
      <trkpt lat="49.297828" lon="10.127745">
        <ele>423.016970</ele>
        <time>2026-04-26T19:22:19.402Z</time>
      </trkpt>
      <trkpt lat="49.297784" lon="10.125322">
        <ele>425.214046</ele>
        <time>2026-04-26T19:22:56.186Z</time>
      </trkpt>
      <trkpt lat="49.300114" lon="10.125389">
        <ele>430.642906</ele>
        <time>2026-04-26T19:23:51.632Z</time>
      </trkpt>
      <trkpt lat="49.301018" lon="10.125414">
        <ele>432.728872</ele>
        <time>2026-04-26T19:24:12.951Z</time>
      </trkpt>
      <trkpt lat="49.303251" lon="10.127182">
        <ele>437.585537</ele>
        <time>2026-04-26T19:25:11.487Z</time>
      </trkpt>
      <trkpt lat="49.303381" lon="10.127259">
        <ele>437.848699</ele>
        <time>2026-04-26T19:25:14.826Z</time>
      </trkpt>
      <trkpt lat="49.303488" lon="10.127278">
        <ele>438.052106</ele>
        <time>2026-04-26T19:25:17.406Z</time>
      </trkpt>
      <trkpt lat="49.307424" lon="10.127288">
        <ele>444.741637</ele>
        <time>2026-04-26T19:26:51.475Z</time>
      </trkpt>
      <trkpt lat="49.307469" lon="10.127278">
        <ele>444.805703</ele>
        <time>2026-04-26T19:26:52.517Z</time>
      </trkpt>
      <trkpt lat="49.310245" lon="10.127307">
        <ele>446.381231</ele>
        <time>2026-04-26T19:27:54.703Z</time>
      </trkpt>
      <trkpt lat="49.311960" lon="10.127317">
        <ele>446.960993</ele>
        <time>2026-04-26T19:28:34.494Z</time>
      </trkpt>
      <trkpt lat="49.312103" lon="10.127431">
        <ele>446.853552</ele>
        <time>2026-04-26T19:28:37.895Z</time>
      </trkpt>
      <trkpt lat="49.312479" lon="10.127600">
        <ele>446.592344</ele>
        <time>2026-04-26T19:28:45.909Z</time>
      </trkpt>
      <trkpt lat="49.313818" lon="10.128280">
        <ele>444.143803</ele>
        <time>2026-04-26T19:29:10.829Z</time>
      </trkpt>
      <trkpt lat="49.314848" lon="10.128802">
        <ele>440.839680</ele>
        <time>2026-04-26T19:29:28.183Z</time>
      </trkpt>
      <trkpt lat="49.315272" lon="10.129028">
        <ele>439.377392</ele>
        <time>2026-04-26T19:29:35.207Z</time>
      </trkpt>
      <trkpt lat="49.315511" lon="10.129184">
        <ele>438.519314</ele>
        <time>2026-04-26T19:29:39.261Z</time>
      </trkpt>
      <trkpt lat="49.315929" lon="10.129497">
        <ele>436.982649</ele>
        <time>2026-04-26T19:29:46.618Z</time>
      </trkpt>
      <trkpt lat="49.316306" lon="10.129779">
        <ele>435.596993</ele>
        <time>2026-04-26T19:29:53.384Z</time>
      </trkpt>
      <trkpt lat="49.316413" lon="10.129859">
        <ele>435.203752</ele>
        <time>2026-04-26T19:29:55.364Z</time>
      </trkpt>
      <trkpt lat="49.316717" lon="10.130057">
        <ele>434.691674</ele>
        <time>2026-04-26T19:30:01.157Z</time>
      </trkpt>
      <trkpt lat="49.317150" lon="10.130235">
        <ele>434.794873</ele>
        <time>2026-04-26T19:30:09.963Z</time>
      </trkpt>
      <trkpt lat="49.317360" lon="10.130292">
        <ele>434.843969</ele>
        <time>2026-04-26T19:30:14.620Z</time>
      </trkpt>
      <trkpt lat="49.317666" lon="10.130321">
        <ele>434.914548</ele>
        <time>2026-04-26T19:30:21.592Z</time>
      </trkpt>
      <trkpt lat="49.318201" lon="10.130284">
        <ele>435.037837</ele>
        <time>2026-04-26T19:30:33.979Z</time>
      </trkpt>
      <trkpt lat="49.318658" lon="10.130209">
        <ele>434.840582</ele>
        <time>2026-04-26T19:30:44.619Z</time>
      </trkpt>
      <trkpt lat="49.318900" lon="10.130183">
        <ele>434.672606</ele>
        <time>2026-04-26T19:30:50.028Z</time>
      </trkpt>
      <trkpt lat="49.319000" lon="10.130181">
        <ele>434.603358</ele>
        <time>2026-04-26T19:30:52.183Z</time>
      </trkpt>
      <trkpt lat="49.319387" lon="10.130241">
        <ele>434.334026</ele>
        <time>2026-04-26T19:30:59.934Z</time>
      </trkpt>
      <trkpt lat="49.319604" lon="10.130327">
        <ele>434.178839</ele>
        <time>2026-04-26T19:31:03.970Z</time>
      </trkpt>
      <trkpt lat="49.319795" lon="10.130469">
        <ele>434.031875</ele>
        <time>2026-04-26T19:31:07.615Z</time>
      </trkpt>
      <trkpt lat="49.320159" lon="10.130838">
        <ele>433.508946</ele>
        <time>2026-04-26T19:31:14.761Z</time>
      </trkpt>
      <trkpt lat="49.321265" lon="10.132528">
        <ele>429.856796</ele>
        <time>2026-04-26T19:31:40.639Z</time>
      </trkpt>
      <trkpt lat="49.321899" lon="10.133466">
        <ele>431.301555</ele>
        <time>2026-04-26T19:31:59.834Z</time>
      </trkpt>
      <trkpt lat="49.322249" lon="10.133873">
        <ele>432.254891</ele>
        <time>2026-04-26T19:32:10.589Z</time>
      </trkpt>
      <trkpt lat="49.323317" lon="10.134943">
        <ele>436.244225</ele>
        <time>2026-04-26T19:32:44.210Z</time>
      </trkpt>
      <trkpt lat="49.324118" lon="10.135714">
        <ele>439.961461</ele>
        <time>2026-04-26T19:33:08.123Z</time>
      </trkpt>
      <trkpt lat="49.324489" lon="10.136163">
        <ele>440.892392</ele>
        <time>2026-04-26T19:33:19.338Z</time>
      </trkpt>
      <trkpt lat="49.324653" lon="10.136410">
        <ele>441.114908</ele>
        <time>2026-04-26T19:33:24.702Z</time>
      </trkpt>
      <trkpt lat="49.324820" lon="10.136736">
        <ele>441.376580</ele>
        <time>2026-04-26T19:33:30.909Z</time>
      </trkpt>
      <trkpt lat="49.325182" lon="10.137691">
        <ele>442.073772</ele>
        <time>2026-04-26T19:33:46.603Z</time>
      </trkpt>
      <trkpt lat="49.325392" lon="10.138197">
        <ele>442.203744</ele>
        <time>2026-04-26T19:33:54.210Z</time>
      </trkpt>
      <trkpt lat="49.325530" lon="10.138450">
        <ele>441.984994</ele>
        <time>2026-04-26T19:33:58.273Z</time>
      </trkpt>
      <trkpt lat="49.325867" lon="10.138921">
        <ele>441.521234</ele>
        <time>2026-04-26T19:34:06.695Z</time>
      </trkpt>
      <trkpt lat="49.326270" lon="10.139306">
        <ele>441.038269</ele>
        <time>2026-04-26T19:34:15.552Z</time>
      </trkpt>
      <trkpt lat="49.326745" lon="10.139745">
        <ele>440.472065</ele>
        <time>2026-04-26T19:34:26.321Z</time>
      </trkpt>
      <trkpt lat="49.327035" lon="10.140015">
        <ele>440.100601</ele>
        <time>2026-04-26T19:34:33.244Z</time>
      </trkpt>
      <trkpt lat="49.327345" lon="10.140298">
        <ele>439.705585</ele>
        <time>2026-04-26T19:34:40.669Z</time>
      </trkpt>
      <trkpt lat="49.327491" lon="10.140431">
        <ele>439.519650</ele>
        <time>2026-04-26T19:34:44.068Z</time>
      </trkpt>
      <trkpt lat="49.327649" lon="10.140581">
        <ele>439.316187</ele>
        <time>2026-04-26T19:34:47.705Z</time>
      </trkpt>
      <trkpt lat="49.327954" lon="10.140869">
        <ele>438.924009</ele>
        <time>2026-04-26T19:34:54.413Z</time>
      </trkpt>
      <trkpt lat="49.328320" lon="10.141234">
        <ele>438.367009</ele>
        <time>2026-04-26T19:35:02.140Z</time>
      </trkpt>
      <trkpt lat="49.328734" lon="10.141701">
        <ele>437.285348</ele>
        <time>2026-04-26T19:35:10.978Z</time>
      </trkpt>
      <trkpt lat="49.329176" lon="10.142299">
        <ele>436.044872</ele>
        <time>2026-04-26T19:35:21.063Z</time>
      </trkpt>
      <trkpt lat="49.330000" lon="10.143799">
        <ele>433.286448</ele>
        <time>2026-04-26T19:35:43.724Z</time>
      </trkpt>
      <trkpt lat="49.330138" lon="10.144055">
        <ele>432.808712</ele>
        <time>2026-04-26T19:35:47.478Z</time>
      </trkpt>
      <trkpt lat="49.330937" lon="10.145186">
        <ele>430.382702</ele>
        <time>2026-04-26T19:36:06.014Z</time>
      </trkpt>
      <trkpt lat="49.331458" lon="10.145733">
        <ele>428.885453</ele>
        <time>2026-04-26T19:36:16.692Z</time>
      </trkpt>
      <trkpt lat="49.333164" lon="10.147239">
        <ele>424.446673</ele>
        <time>2026-04-26T19:36:50.643Z</time>
      </trkpt>
      <trkpt lat="49.333556" lon="10.147680">
        <ele>423.409085</ele>
        <time>2026-04-26T19:36:59.241Z</time>
      </trkpt>
      <trkpt lat="49.333866" lon="10.148137">
        <ele>422.481284</ele>
        <time>2026-04-26T19:37:06.817Z</time>
      </trkpt>
      <trkpt lat="49.334202" lon="10.148825">
        <ele>421.217679</ele>
        <time>2026-04-26T19:37:16.616Z</time>
      </trkpt>
      <trkpt lat="49.334738" lon="10.150071">
        <ele>419.023416</ele>
        <time>2026-04-26T19:37:33.166Z</time>
      </trkpt>
      <trkpt lat="49.334977" lon="10.150534">
        <ele>418.172053</ele>
        <time>2026-04-26T19:37:39.785Z</time>
      </trkpt>
      <trkpt lat="49.335195" lon="10.150890">
        <ele>417.480237</ele>
        <time>2026-04-26T19:37:45.346Z</time>
      </trkpt>
      <trkpt lat="49.335512" lon="10.151302">
        <ele>416.577464</ele>
        <time>2026-04-26T19:37:52.600Z</time>
      </trkpt>
      <trkpt lat="49.335855" lon="10.151650">
        <ele>415.683877</ele>
        <time>2026-04-26T19:37:59.798Z</time>
      </trkpt>
      <trkpt lat="49.337514" lon="10.152853">
        <ele>411.869574</ele>
        <time>2026-04-26T19:38:31.650Z</time>
      </trkpt>
      <trkpt lat="49.338379" lon="10.153470">
        <ele>410.406945</ele>
        <time>2026-04-26T19:38:48.725Z</time>
      </trkpt>
      <trkpt lat="49.339873" lon="10.154541">
        <ele>409.148628</ele>
        <time>2026-04-26T19:39:21.106Z</time>
      </trkpt>
      <trkpt lat="49.339884" lon="10.154549">
        <ele>409.154090</ele>
        <time>2026-04-26T19:39:21.350Z</time>
      </trkpt>
      <trkpt lat="49.340173" lon="10.154720">
        <ele>409.293068</ele>
        <time>2026-04-26T19:39:27.777Z</time>
      </trkpt>
      <trkpt lat="49.340444" lon="10.154804">
        <ele>409.417121</ele>
        <time>2026-04-26T19:39:33.562Z</time>
      </trkpt>
      <trkpt lat="49.340625" lon="10.154834">
        <ele>409.498808</ele>
        <time>2026-04-26T19:39:37.444Z</time>
      </trkpt>
      <trkpt lat="49.341660" lon="10.154806">
        <ele>411.406605</ele>
        <time>2026-04-26T19:40:01.326Z</time>
      </trkpt>
      <trkpt lat="49.342939" lon="10.154824">
        <ele>416.513618</ele>
        <time>2026-04-26T19:40:35.134Z</time>
      </trkpt>
      <trkpt lat="49.343194" lon="10.154807">
        <ele>417.297694</ele>
        <time>2026-04-26T19:40:42.325Z</time>
      </trkpt>
      <trkpt lat="49.343281" lon="10.154795">
        <ele>417.502786</ele>
        <time>2026-04-26T19:40:44.745Z</time>
      </trkpt>
      <trkpt lat="49.344030" lon="10.154646">
        <ele>419.276079</ele>
        <time>2026-04-26T19:41:03.626Z</time>
      </trkpt>
      <trkpt lat="49.344356" lon="10.154551">
        <ele>420.055171</ele>
        <time>2026-04-26T19:41:11.158Z</time>
      </trkpt>
      <trkpt lat="49.344469" lon="10.154540">
        <ele>420.321018</ele>
        <time>2026-04-26T19:41:13.534Z</time>
      </trkpt>
      <trkpt lat="49.344531" lon="10.154535">
        <ele>420.466789</ele>
        <time>2026-04-26T19:41:14.849Z</time>
      </trkpt>
      <trkpt lat="49.344752" lon="10.154555">
        <ele>420.986579</ele>
        <time>2026-04-26T19:41:19.368Z</time>
      </trkpt>
      <trkpt lat="49.345056" lon="10.154712">
        <ele>421.179850</ele>
        <time>2026-04-26T19:41:25.716Z</time>
      </trkpt>
      <trkpt lat="49.345240" lon="10.154884">
        <ele>421.174933</ele>
        <time>2026-04-26T19:41:29.857Z</time>
      </trkpt>
      <trkpt lat="49.345425" lon="10.155159">
        <ele>421.169055</ele>
        <time>2026-04-26T19:41:34.605Z</time>
      </trkpt>
      <trkpt lat="49.346705" lon="10.157522">
        <ele>421.132264</ele>
        <time>2026-04-26T19:42:18.402Z</time>
      </trkpt>
      <trkpt lat="49.346788" lon="10.157674">
        <ele>421.130576</ele>
        <time>2026-04-26T19:42:21.227Z</time>
      </trkpt>
      <trkpt lat="49.348700" lon="10.161268">
        <ele>420.365908</ele>
        <time>2026-04-26T19:43:21.643Z</time>
      </trkpt>
      <trkpt lat="49.349132" lon="10.161996">
        <ele>420.776530</ele>
        <time>2026-04-26T19:43:35.871Z</time>
      </trkpt>
      <trkpt lat="49.349361" lon="10.162317">
        <ele>420.975027</ele>
        <time>2026-04-26T19:43:42.886Z</time>
      </trkpt>
      <trkpt lat="49.349644" lon="10.162689">
        <ele>421.213508</ele>
        <time>2026-04-26T19:43:51.443Z</time>
      </trkpt>
      <trkpt lat="49.350005" lon="10.163081">
        <ele>422.094403</ele>
        <time>2026-04-26T19:44:01.736Z</time>
      </trkpt>
      <trkpt lat="49.350485" lon="10.163504">
        <ele>423.209173</ele>
        <time>2026-04-26T19:44:14.686Z</time>
      </trkpt>
      <trkpt lat="49.352186" lon="10.164779">
        <ele>426.978314</ele>
        <time>2026-04-26T19:44:59.278Z</time>
      </trkpt>
      <trkpt lat="49.352494" lon="10.165067">
        <ele>427.690198</ele>
        <time>2026-04-26T19:45:07.678Z</time>
      </trkpt>
      <trkpt lat="49.352745" lon="10.165393">
        <ele>428.339197</ele>
        <time>2026-04-26T19:45:15.260Z</time>
      </trkpt>
      <trkpt lat="49.352960" lon="10.165780">
        <ele>428.561447</ele>
        <time>2026-04-26T19:45:22.831Z</time>
      </trkpt>
      <trkpt lat="49.353158" lon="10.166201">
        <ele>428.750255</ele>
        <time>2026-04-26T19:45:30.487Z</time>
      </trkpt>
      <trkpt lat="49.353734" lon="10.167628">
        <ele>429.360659</ele>
        <time>2026-04-26T19:45:54.254Z</time>
      </trkpt>
      <trkpt lat="49.353854" lon="10.167879">
        <ele>429.184933</ele>
        <time>2026-04-26T19:45:58.330Z</time>
      </trkpt>
      <trkpt lat="49.354239" lon="10.168485">
        <ele>428.362124</ele>
        <time>2026-04-26T19:46:08.871Z</time>
      </trkpt>
      <trkpt lat="49.355795" lon="10.170487">
        <ele>425.460363</ele>
        <time>2026-04-26T19:46:44.372Z</time>
      </trkpt>
      <trkpt lat="49.356225" lon="10.171012">
        <ele>424.716492</ele>
        <time>2026-04-26T19:46:55.028Z</time>
      </trkpt>
      <trkpt lat="49.356874" lon="10.171716">
        <ele>424.277574</ele>
        <time>2026-04-26T19:47:11.570Z</time>
      </trkpt>
      <trkpt lat="49.357059" lon="10.171948">
        <ele>424.278410</ele>
        <time>2026-04-26T19:47:16.731Z</time>
      </trkpt>
      <trkpt lat="49.357215" lon="10.172198">
        <ele>424.279200</ele>
        <time>2026-04-26T19:47:21.603Z</time>
      </trkpt>
      <trkpt lat="49.357430" lon="10.172699">
        <ele>424.280568</ele>
        <time>2026-04-26T19:47:30.034Z</time>
      </trkpt>
      <trkpt lat="49.357569" lon="10.173274">
        <ele>424.281966</ele>
        <time>2026-04-26T19:47:38.567Z</time>
      </trkpt>
      <trkpt lat="49.357617" lon="10.173691">
        <ele>423.945871</ele>
        <time>2026-04-26T19:47:44.260Z</time>
      </trkpt>
      <trkpt lat="49.357624" lon="10.174150">
        <ele>423.445636</ele>
        <time>2026-04-26T19:47:50.249Z</time>
      </trkpt>
      <trkpt lat="49.357590" lon="10.174502">
        <ele>423.057925</ele>
        <time>2026-04-26T19:47:54.763Z</time>
      </trkpt>
      <trkpt lat="49.357527" lon="10.174878">
        <ele>422.634920</ele>
        <time>2026-04-26T19:47:59.518Z</time>
      </trkpt>
      <trkpt lat="49.357035" lon="10.177069">
        <ele>419.361546</ele>
        <time>2026-04-26T19:48:24.601Z</time>
      </trkpt>
      <trkpt lat="49.356974" lon="10.177378">
        <ele>418.783529</ele>
        <time>2026-04-26T19:48:28.000Z</time>
      </trkpt>
      <trkpt lat="49.356878" lon="10.177673">
        <ele>418.193179</ele>
        <time>2026-04-26T19:48:31.507Z</time>
      </trkpt>
      <trkpt lat="49.356685" lon="10.178021">
        <ele>417.374953</ele>
        <time>2026-04-26T19:48:36.432Z</time>
      </trkpt>
      <trkpt lat="49.356745" lon="10.178109">
        <ele>417.146891</ele>
        <time>2026-04-26T19:48:37.834Z</time>
      </trkpt>
      <trkpt lat="49.357105" lon="10.178638">
        <ele>416.042913</ele>
        <time>2026-04-26T19:48:46.325Z</time>
      </trkpt>
      <trkpt lat="49.357677" lon="10.179634">
        <ele>414.808181</ele>
        <time>2026-04-26T19:49:02.719Z</time>
      </trkpt>
      <trkpt lat="49.357921" lon="10.180118">
        <ele>414.239074</ele>
        <time>2026-04-26T19:49:10.442Z</time>
      </trkpt>
      <trkpt lat="49.358228" lon="10.180825">
        <ele>413.252639</ele>
        <time>2026-04-26T19:49:21.042Z</time>
      </trkpt>
      <trkpt lat="49.358588" lon="10.181814">
        <ele>411.538948</ele>
        <time>2026-04-26T19:49:34.417Z</time>
      </trkpt>
      <trkpt lat="49.358823" lon="10.182621">
        <ele>410.201871</ele>
        <time>2026-04-26T19:49:44.158Z</time>
      </trkpt>
      <trkpt lat="49.359003" lon="10.183347">
        <ele>408.332991</ele>
        <time>2026-04-26T19:49:52.142Z</time>
      </trkpt>
      <trkpt lat="49.359158" lon="10.184133">
        <ele>405.547230</ele>
        <time>2026-04-26T19:50:00.217Z</time>
      </trkpt>
      <trkpt lat="49.359252" lon="10.184720">
        <ele>403.496741</ele>
        <time>2026-04-26T19:50:06.026Z</time>
      </trkpt>
      <trkpt lat="49.359403" lon="10.186123">
        <ele>398.463714</ele>
        <time>2026-04-26T19:50:19.595Z</time>
      </trkpt>
      <trkpt lat="49.359552" lon="10.188483">
        <ele>389.319119</ele>
        <time>2026-04-26T19:50:42.390Z</time>
      </trkpt>
      <trkpt lat="49.359610" lon="10.188983">
        <ele>387.271195</ele>
        <time>2026-04-26T19:50:47.178Z</time>
      </trkpt>
      <trkpt lat="49.359712" lon="10.189539">
        <ele>384.941948</ele>
        <time>2026-04-26T19:50:52.589Z</time>
      </trkpt>
      <trkpt lat="49.359893" lon="10.190146">
        <ele>382.249968</ele>
        <time>2026-04-26T19:50:58.826Z</time>
      </trkpt>
      <trkpt lat="49.360070" lon="10.190616">
        <ele>380.060746</ele>
        <time>2026-04-26T19:51:03.913Z</time>
      </trkpt>
      <trkpt lat="49.360214" lon="10.190913">
        <ele>378.567731</ele>
        <time>2026-04-26T19:51:07.454Z</time>
      </trkpt>
      <trkpt lat="49.360533" lon="10.191406">
        <ele>377.102236</ele>
        <time>2026-04-26T19:51:14.490Z</time>
      </trkpt>
      <trkpt lat="49.360705" lon="10.191629">
        <ele>376.403830</ele>
        <time>2026-04-26T19:51:18.156Z</time>
      </trkpt>
      <trkpt lat="49.360932" lon="10.191862">
        <ele>375.556715</ele>
        <time>2026-04-26T19:51:22.708Z</time>
      </trkpt>
      <trkpt lat="49.360857" lon="10.191957">
        <ele>375.255076</ele>
        <time>2026-04-26T19:51:24.394Z</time>
      </trkpt>
      <trkpt lat="49.360713" lon="10.192017">
        <ele>374.792175</ele>
        <time>2026-04-26T19:51:26.968Z</time>
      </trkpt>
      <trkpt lat="49.360505" lon="10.191693">
        <ele>373.872937</ele>
        <time>2026-04-26T19:51:36.148Z</time>
      </trkpt>
      <trkpt lat="49.360713" lon="10.192017">
        <ele>372.953700</ele>
        <time>2026-04-26T19:51:45.540Z</time>
      </trkpt>
      <trkpt lat="49.360857" lon="10.191957">
        <ele>372.819531</ele>
        <time>2026-04-26T19:51:48.277Z</time>
      </trkpt>
      <trkpt lat="49.360932" lon="10.191862">
        <ele>372.783055</ele>
        <time>2026-04-26T19:51:50.048Z</time>
      </trkpt>
      <trkpt lat="49.361006" lon="10.191928">
        <ele>372.750949</ele>
        <time>2026-04-26T19:51:51.679Z</time>
      </trkpt>
      <trkpt lat="49.361126" lon="10.192033">
        <ele>372.699132</ele>
        <time>2026-04-26T19:51:54.213Z</time>
      </trkpt>
      <trkpt lat="49.361438" lon="10.192213">
        <ele>372.574092</ele>
        <time>2026-04-26T19:52:00.110Z</time>
      </trkpt>
      <trkpt lat="49.361717" lon="10.192295">
        <ele>372.467521</ele>
        <time>2026-04-26T19:52:05.350Z</time>
      </trkpt>
      <trkpt lat="49.362043" lon="10.192267">
        <ele>372.345027</ele>
        <time>2026-04-26T19:52:12.309Z</time>
      </trkpt>
      <trkpt lat="49.362110" lon="10.192231">
        <ele>372.318396</ele>
        <time>2026-04-26T19:52:13.892Z</time>
      </trkpt>
      <trkpt lat="49.362352" lon="10.192057">
        <ele>372.218146</ele>
        <time>2026-04-26T19:52:20.024Z</time>
      </trkpt>
      <trkpt lat="49.362424" lon="10.191990">
        <ele>372.238221</ele>
        <time>2026-04-26T19:52:21.983Z</time>
      </trkpt>
      <trkpt lat="49.362511" lon="10.191898">
        <ele>372.799325</ele>
        <time>2026-04-26T19:52:24.490Z</time>
      </trkpt>
      <trkpt lat="49.362655" lon="10.191715">
        <ele>373.792198</ele>
        <time>2026-04-26T19:52:29.008Z</time>
      </trkpt>
      <trkpt lat="49.362827" lon="10.191413">
        <ele>375.180035</ele>
        <time>2026-04-26T19:52:35.440Z</time>
      </trkpt>
      <trkpt lat="49.362984" lon="10.190976">
        <ele>376.906509</ele>
        <time>2026-04-26T19:52:43.934Z</time>
      </trkpt>
      <trkpt lat="49.363256" lon="10.190026">
        <ele>380.496388</ele>
        <time>2026-04-26T19:53:04.646Z</time>
      </trkpt>
      <trkpt lat="49.363274" lon="10.189972">
        <ele>380.706235</ele>
        <time>2026-04-26T19:53:05.953Z</time>
      </trkpt>
      <trkpt lat="49.363413" lon="10.189568">
        <ele>382.463205</ele>
        <time>2026-04-26T19:53:15.648Z</time>
      </trkpt>
      <trkpt lat="49.363683" lon="10.189036">
        <ele>385.554126</ele>
        <time>2026-04-26T19:53:29.169Z</time>
      </trkpt>
      <trkpt lat="49.363989" lon="10.188541">
        <ele>388.681819</ele>
        <time>2026-04-26T19:53:42.945Z</time>
      </trkpt>
      <trkpt lat="49.364089" lon="10.188735">
        <ele>389.815651</ele>
        <time>2026-04-26T19:53:47.933Z</time>
      </trkpt>
      <trkpt lat="49.364184" lon="10.189003">
        <ele>391.213967</ele>
        <time>2026-04-26T19:53:54.050Z</time>
      </trkpt>
      <trkpt lat="49.364234" lon="10.189174">
        <ele>392.072972</ele>
        <time>2026-04-26T19:53:57.714Z</time>
      </trkpt>
      <trkpt lat="49.364244" lon="10.189210">
        <ele>392.252330</ele>
        <time>2026-04-26T19:53:58.489Z</time>
      </trkpt>
      <trkpt lat="49.364285" lon="10.189360">
        <ele>392.997826</ele>
        <time>2026-04-26T19:54:01.648Z</time>
      </trkpt>
      <trkpt lat="49.364291" lon="10.189380">
        <ele>393.098738</ele>
        <time>2026-04-26T19:54:02.043Z</time>
      </trkpt>
      <trkpt lat="49.364351" lon="10.189340">
        <ele>393.559023</ele>
        <time>2026-04-26T19:54:03.974Z</time>
      </trkpt>
      <trkpt lat="49.364269" lon="10.188742">
        <ele>395.588936</ele>
        <time>2026-04-26T19:54:14.940Z</time>
      </trkpt>
      <trkpt lat="49.364322" lon="10.188531">
        <ele>396.217650</ele>
        <time>2026-04-26T19:54:18.696Z</time>
      </trkpt>
      <trkpt lat="49.364390" lon="10.188405">
        <ele>396.672583</ele>
        <time>2026-04-26T19:54:21.445Z</time>
      </trkpt>
      <trkpt lat="49.364507" lon="10.188271">
        <ele>397.295665</ele>
        <time>2026-04-26T19:54:25.201Z</time>
      </trkpt>
      <trkpt lat="49.364856" lon="10.188038">
        <ele>398.920213</ele>
        <time>2026-04-26T19:54:35.181Z</time>
      </trkpt>
      <trkpt lat="49.365065" lon="10.187838">
        <ele>399.971470</ele>
        <time>2026-04-26T19:54:41.470Z</time>
      </trkpt>
      <trkpt lat="49.365224" lon="10.187602">
        <ele>400.915473</ele>
        <time>2026-04-26T19:54:47.011Z</time>
      </trkpt>
      <trkpt lat="49.365181" lon="10.186882">
        <ele>402.147483</ele>
        <time>2026-04-26T19:55:19.731Z</time>
      </trkpt>
      <trkpt lat="49.365243" lon="10.186742">
        <ele>402.185784</ele>
        <time>2026-04-26T19:55:27.411Z</time>
      </trkpt>
      <trkpt lat="49.365335" lon="10.186683">
        <ele>402.220419</ele>
        <time>2026-04-26T19:55:34.323Z</time>
      </trkpt>
      <trkpt lat="49.365444" lon="10.186623">
        <ele>402.260643</ele>
        <time>2026-04-26T19:55:36.946Z</time>
      </trkpt>
      <trkpt lat="49.365612" lon="10.186536">
        <ele>402.322233</ele>
        <time>2026-04-26T19:55:40.967Z</time>
      </trkpt>
      <trkpt lat="49.365879" lon="10.186592">
        <ele>402.415846</ele>
        <time>2026-04-26T19:55:47.055Z</time>
      </trkpt>
      <trkpt lat="49.366430" lon="10.186007">
        <ele>402.648552</ele>
        <time>2026-04-26T19:56:00.621Z</time>
      </trkpt>
      <trkpt lat="49.366762" lon="10.185572">
        <ele>401.818186</ele>
        <time>2026-04-26T19:56:08.023Z</time>
      </trkpt>
      <trkpt lat="49.367807" lon="10.183970">
        <ele>397.126310</ele>
        <time>2026-04-26T19:56:30.977Z</time>
      </trkpt>
      <trkpt lat="49.367864" lon="10.183890">
        <ele>397.050234</ele>
        <time>2026-04-26T19:56:32.347Z</time>
      </trkpt>
      <trkpt lat="49.368130" lon="10.183573">
        <ele>397.668369</ele>
        <time>2026-04-26T19:56:38.778Z</time>
      </trkpt>
      <trkpt lat="49.368465" lon="10.183269">
        <ele>398.382733</ele>
        <time>2026-04-26T19:56:47.340Z</time>
      </trkpt>
      <trkpt lat="49.368729" lon="10.183069">
        <ele>398.923164</ele>
        <time>2026-04-26T19:56:54.302Z</time>
      </trkpt>
      <trkpt lat="49.369351" lon="10.182603">
        <ele>400.193706</ele>
        <time>2026-04-26T19:57:12.359Z</time>
      </trkpt>
      <trkpt lat="49.369884" lon="10.182151">
        <ele>402.964996</ele>
        <time>2026-04-26T19:57:29.060Z</time>
      </trkpt>
      <trkpt lat="49.370426" lon="10.182156">
        <ele>405.571161</ele>
        <time>2026-04-26T19:57:43.915Z</time>
      </trkpt>
      <trkpt lat="49.370533" lon="10.182165">
        <ele>406.086425</ele>
        <time>2026-04-26T19:57:46.788Z</time>
      </trkpt>
      <trkpt lat="49.370589" lon="10.182154">
        <ele>406.357885</ele>
        <time>2026-04-26T19:57:48.333Z</time>
      </trkpt>
      <trkpt lat="49.370592" lon="10.181977">
        <ele>406.912263</ele>
        <time>2026-04-26T19:57:51.379Z</time>
      </trkpt>
      <trkpt lat="49.370630" lon="10.181909">
        <ele>407.192826</ele>
        <time>2026-04-26T19:57:52.906Z</time>
      </trkpt>
      <trkpt lat="49.370750" lon="10.181860">
        <ele>407.789874</ele>
        <time>2026-04-26T19:57:56.182Z</time>
      </trkpt>
      <trkpt lat="49.370919" lon="10.181880">
        <ele>408.604892</ele>
        <time>2026-04-26T19:58:00.529Z</time>
      </trkpt>
      <trkpt lat="49.371215" lon="10.181759">
        <ele>409.583835</ele>
        <time>2026-04-26T19:58:08.090Z</time>
      </trkpt>
      <trkpt lat="49.371312" lon="10.181755">
        <ele>409.848092</ele>
        <time>2026-04-26T19:58:10.412Z</time>
      </trkpt>
      <trkpt lat="49.371775" lon="10.181737">
        <ele>411.109392</ele>
        <time>2026-04-26T19:58:21.313Z</time>
      </trkpt>
      <trkpt lat="49.372080" lon="10.181736">
        <ele>411.940006</ele>
        <time>2026-04-26T19:58:28.518Z</time>
      </trkpt>
      <trkpt lat="49.372111" lon="10.181738">
        <ele>412.024504</ele>
        <time>2026-04-26T19:58:29.399Z</time>
      </trkpt>
      <trkpt lat="49.372331" lon="10.181759">
        <ele>412.624790</ele>
        <time>2026-04-26T19:58:35.626Z</time>
      </trkpt>
      <trkpt lat="49.372470" lon="10.181771">
        <ele>413.003929</ele>
        <time>2026-04-26T19:58:39.588Z</time>
      </trkpt>
      <trkpt lat="49.372615" lon="10.181785">
        <ele>413.399589</ele>
        <time>2026-04-26T19:58:43.711Z</time>
      </trkpt>
      <trkpt lat="49.372682" lon="10.181793">
        <ele>413.582602</ele>
        <time>2026-04-26T19:58:45.613Z</time>
      </trkpt>
      <trkpt lat="49.373863" lon="10.181833">
        <ele>416.491548</ele>
        <time>2026-04-26T19:59:19.370Z</time>
      </trkpt>
      <trkpt lat="49.373939" lon="10.181907">
        <ele>416.711127</ele>
        <time>2026-04-26T19:59:21.889Z</time>
      </trkpt>
      <trkpt lat="49.374103" lon="10.182198">
        <ele>417.322605</ele>
        <time>2026-04-26T19:59:28.964Z</time>
      </trkpt>
      <trkpt lat="49.374120" lon="10.182177">
        <ele>417.375840</ele>
        <time>2026-04-26T19:59:29.466Z</time>
      </trkpt>
      <trkpt lat="49.373914" lon="10.181817">
        <ele>418.137302</ele>
        <time>2026-04-26T19:59:36.771Z</time>
      </trkpt>
      <trkpt lat="49.373943" lon="10.181742">
        <ele>418.277906</ele>
        <time>2026-04-26T19:59:40.685Z</time>
      </trkpt>
      <trkpt lat="49.374060" lon="10.181965">
        <ele>418.751279</ele>
        <time>2026-04-26T19:59:53.644Z</time>
      </trkpt>
      <trkpt lat="49.373943" lon="10.181742">
        <ele>419.224651</ele>
        <time>2026-04-26T20:00:06.603Z</time>
      </trkpt>
      <trkpt lat="49.373914" lon="10.181817">
        <ele>419.368831</ele>
        <time>2026-04-26T20:00:10.516Z</time>
      </trkpt>
      <trkpt lat="49.374120" lon="10.182177">
        <ele>420.161014</ele>
        <time>2026-04-26T20:00:32.216Z</time>
      </trkpt>
      <trkpt lat="49.374103" lon="10.182198">
        <ele>420.216397</ele>
        <time>2026-04-26T20:00:32.723Z</time>
      </trkpt>
      <trkpt lat="49.374165" lon="10.182320">
        <ele>420.472202</ele>
        <time>2026-04-26T20:00:35.559Z</time>
      </trkpt>
      <trkpt lat="49.374215" lon="10.182421">
        <ele>420.681918</ele>
        <time>2026-04-26T20:00:37.906Z</time>
      </trkpt>
      <trkpt lat="49.374648" lon="10.183279">
        <ele>422.476212</ele>
        <time>2026-04-26T20:00:58.121Z</time>
      </trkpt>
      <trkpt lat="49.375010" lon="10.183811">
        <ele>423.911501</ele>
        <time>2026-04-26T20:01:12.867Z</time>
      </trkpt>
      <trkpt lat="49.375196" lon="10.183982">
        <ele>424.555842</ele>
        <time>2026-04-26T20:01:19.186Z</time>
      </trkpt>
      <trkpt lat="49.375686" lon="10.184341">
        <ele>426.169528</ele>
        <time>2026-04-26T20:01:34.911Z</time>
      </trkpt>
      <trkpt lat="49.376092" lon="10.184538">
        <ele>427.435099</ele>
        <time>2026-04-26T20:01:47.010Z</time>
      </trkpt>
      <trkpt lat="49.376309" lon="10.184722">
        <ele>428.161160</ele>
        <time>2026-04-26T20:01:54.036Z</time>
      </trkpt>
      <trkpt lat="49.376360" lon="10.184851">
        <ele>428.360476</ele>
        <time>2026-04-26T20:01:56.822Z</time>
      </trkpt>
      <trkpt lat="49.376438" lon="10.184838">
        <ele>428.519621</ele>
        <time>2026-04-26T20:01:58.630Z</time>
      </trkpt>
      <trkpt lat="49.376492" lon="10.184839">
        <ele>428.629164</ele>
        <time>2026-04-26T20:01:59.891Z</time>
      </trkpt>
      <trkpt lat="49.376725" lon="10.184788">
        <ele>429.106560</ele>
        <time>2026-04-26T20:02:05.253Z</time>
      </trkpt>
      <trkpt lat="49.377254" lon="10.184931">
        <ele>430.196084</ele>
        <time>2026-04-26T20:02:17.441Z</time>
      </trkpt>
      <trkpt lat="49.377804" lon="10.185002">
        <ele>431.315647</ele>
        <time>2026-04-26T20:02:30.304Z</time>
      </trkpt>
      <trkpt lat="49.378017" lon="10.185023">
        <ele>431.748588</ele>
        <time>2026-04-26T20:02:35.441Z</time>
      </trkpt>
      <trkpt lat="49.378541" lon="10.185064">
        <ele>431.786546</ele>
        <time>2026-04-26T20:02:48.478Z</time>
      </trkpt>
      <trkpt lat="49.378829" lon="10.184974">
        <ele>431.786546</ele>
        <time>2026-04-26T20:02:55.943Z</time>
      </trkpt>
      <trkpt lat="49.379483" lon="10.184644">
        <ele>431.786546</ele>
        <time>2026-04-26T20:03:13.181Z</time>
      </trkpt>
      <trkpt lat="49.379663" lon="10.184553">
        <ele>431.786546</ele>
        <time>2026-04-26T20:03:17.764Z</time>
      </trkpt>
      <trkpt lat="49.379703" lon="10.184505">
        <ele>431.786546</ele>
        <time>2026-04-26T20:03:18.974Z</time>
      </trkpt>
      <trkpt lat="49.379785" lon="10.184408">
        <ele>431.786546</ele>
        <time>2026-04-26T20:03:21.922Z</time>
      </trkpt>
      <trkpt lat="49.379825" lon="10.184531">
        <ele>431.786546</ele>
        <time>2026-04-26T20:03:24.457Z</time>
      </trkpt>
      <trkpt lat="49.379763" lon="10.184610">
        <ele>431.786546</ele>
        <time>2026-04-26T20:03:26.347Z</time>
      </trkpt>
      <trkpt lat="49.379886" lon="10.185097">
        <ele>431.786546</ele>
        <time>2026-04-26T20:03:34.198Z</time>
      </trkpt>
      <trkpt lat="49.379802" lon="10.185141">
        <ele>431.786546</ele>
        <time>2026-04-26T20:03:40.367Z</time>
      </trkpt>
      <trkpt lat="49.379817" lon="10.185210">
        <ele>431.786546</ele>
        <time>2026-04-26T20:03:43.678Z</time>
      </trkpt>
    </trkseg>
  </trk>
</gpx>